Date StartTime U_cm/s V_cm/s W_cm/s Ustd_cm/s Vstd_cm/s Wstd_cm/s Uvar_(cm/s)^2 Vvar_(cm/s)^2 Wvar_(cm/s)^2 KE_(m/s)^2 TurbulentKE_(m/s)^2 HorizWindSpeed_cm/s FrictionSpeec_cm/s DragCoef SpeedOfSound_m/s SonicTemperature_C Pressure_mb 
07/01/2013  00:00:00      -36.506     -107.069       -9.515       24.278       26.380       17.140      589.404      695.911      293.764        0.723        0.079      113.121        4.827        0.002      347.658       26.787      861.356
07/01/2013  00:01:00      -45.248     -112.997       -0.978       31.699       30.915       23.259     1004.822      955.756      540.959        0.866        0.125      121.720       17.208        0.020      347.670       26.807      861.370
07/01/2013  00:02:00      -53.824     -140.418       -2.310       34.692       35.038       27.253     1203.515     1227.675      742.708        1.290        0.159      150.381       24.273        0.026      347.651       26.776      861.370
07/01/2013  00:03:00      -75.379     -115.685       -5.224       19.326       31.900       17.561      373.486     1017.586      308.373        1.040        0.085      138.076       13.421        0.009      347.664       26.797      861.379
07/01/2013  00:04:00      -43.414      -93.243       -3.559       34.210       20.490       21.331     1170.304      419.848      454.990        0.632        0.102      102.854       15.688        0.023      347.613       26.710      861.360
07/01/2013  00:05:00      -73.517     -116.317       -2.623       28.565       32.343       18.903      815.980     1046.069      357.327        1.058        0.111      137.602       19.454        0.020      347.620       26.720      861.353
07/01/2013  00:06:00      -57.905      -44.897        5.908       25.510       35.830       16.771      650.735     1283.817      281.254        0.381        0.111       73.272       14.392        0.039      347.588       26.664      861.337
07/01/2013  00:07:00      -62.955      -61.110        2.672       43.355       29.079       16.758     1879.684      845.610      280.828        0.535        0.150       87.737       12.593        0.021      347.531       26.568      861.339
07/01/2013  00:08:00      -81.688     -106.204        3.037       41.276       43.817       27.611     1703.675     1919.898      762.349        1.117        0.219      133.986       20.915        0.024      347.530       26.565      861.357
07/01/2013  00:09:00      -61.680     -124.084        2.278       43.073       51.158       30.023     1855.251     2617.157      901.393        1.229        0.269      138.568       30.570        0.049      347.600       26.686      861.361
07/01/2013  00:10:00      -75.626     -111.463      -13.517       36.676       28.663       24.035     1345.163      821.573      577.658        1.053        0.137      134.697       18.442        0.019      347.577       26.645      861.353
07/01/2013  00:11:00      -52.234      -57.348       -4.513       33.697       36.278       17.484     1135.461     1316.094      305.676        0.440        0.138       77.570       14.491        0.035      347.548       26.598      861.355
07/01/2013  00:12:00      -36.181      -79.375        3.116       37.621       34.682       29.426     1415.336     1202.814      865.898        0.555        0.174       87.232       15.619        0.032      347.526       26.559      861.349
07/01/2013  00:13:00      -47.196     -123.786        6.989       53.251       60.135       36.366     2835.708     3616.275     1322.502        1.269        0.389      132.479       34.851        0.069      347.492       26.502      861.348
07/01/2013  00:14:00      -44.943     -110.870        9.233       48.648       44.208       33.708     2366.651     1954.380     1136.210        0.993        0.273      119.633       30.400        0.065      347.473       26.469      861.362
07/01/2013  00:15:00      -29.721     -112.292        0.473       37.668       45.530       21.715     1418.888     2073.025      471.524        0.873        0.198      116.159       15.774        0.018      347.462       26.449      861.369
07/01/2013  00:16:00      -57.686      -94.591       13.668       52.426       56.421       35.599     2748.443     3183.370     1267.260        0.983        0.360      110.793       31.254        0.080      347.411       26.361      861.374
07/01/2013  00:17:00      -53.301      -92.488       -2.929       39.985       44.038       31.082     1598.832     1939.368      966.067        0.795        0.225      106.748       21.146        0.039      347.387       26.318      861.383
07/01/2013  00:18:00      -17.488      -49.610       12.693       36.323       35.194       28.123     1319.337     1238.593      790.891        0.314        0.167       52.602       20.421        0.151      347.339       26.236      861.363
07/01/2013  00:19:00      -10.280      -16.744       17.234       26.870       20.725       14.968      722.004      429.533      224.054        0.103        0.069       19.648       10.759        0.300      347.298       26.167      861.364
07/01/2013  00:20:00     -109.273      -97.425       -8.139       42.666       49.001       26.218     1820.364     2401.132      687.381        1.320        0.245      146.398       26.707        0.033      347.339       26.236      861.361
07/01/2013  00:21:00      -80.209      -57.223        4.451       62.821       35.649       22.611     3946.503     1270.830      511.269        0.773        0.286       98.529       18.277        0.034      347.223       26.039      861.360
07/01/2013  00:22:00      -88.018      -71.481       10.242       50.353       38.938       28.388     2535.395     1516.143      805.881        0.891        0.243      113.387       28.417        0.063      347.191       25.981      861.366
07/01/2013  00:23:00      -96.603      -84.156       10.527       61.960       44.326       32.089     3839.053     1964.836     1029.710        1.168        0.342      128.119       28.641        0.050      347.146       25.905      861.349
07/01/2013  00:24:00      -73.475      -73.760        4.281       51.770       41.536       22.854     2680.113     1725.254      522.322        0.789        0.246      104.111       23.876        0.053      347.086       25.800      861.347
07/01/2013  00:25:00      -73.512      -35.637        3.144       40.943       34.397       22.444     1676.324     1183.174      503.714        0.502        0.168       81.694       22.567        0.076      346.974       25.607      861.342
07/01/2013  00:26:00      -56.712      -41.133        7.140       35.836       27.588       17.756     1284.246      761.111      315.261        0.366        0.118       70.058       19.785        0.080      347.003       25.657      861.327
07/01/2013  00:27:00      -61.284      -56.715        3.127       45.941       28.202       20.740     2110.569      795.360      430.162        0.516        0.167       83.500       22.513        0.073      347.018       25.683      861.340
07/01/2013  00:28:00      -54.415      -56.297        6.853       38.040       34.673       21.872     1447.042     1202.185      478.367        0.465        0.156       78.296       20.373        0.068      346.961       25.584      861.347
07/01/2013  00:29:00      -55.441      -50.602        7.046       52.366       37.921       24.138     2742.164     1438.009      582.626        0.522        0.238       75.062       20.412        0.074      346.855       25.403      861.359
07/01/2013  00:30:00      -54.630      -54.453        5.213       44.894       35.941       24.432     2015.505     1291.763      596.937        0.494        0.195       77.134       26.372        0.117      346.779       25.270      861.375
07/01/2013  00:31:00      -82.655      -31.239        6.917       52.070       33.681       19.689     2711.312     1134.378      387.642        0.604        0.212       88.361       19.761        0.050      346.583       24.935      861.389
07/01/2013  00:32:00     -105.299       -6.639       -5.468       41.048       32.833       23.534     1684.936     1077.975      553.845        0.724        0.166      105.508       21.280        0.041      346.287       24.427      861.410
07/01/2013  00:33:00     -112.459       -8.117       -8.884       38.858       24.049       18.802     1509.921      578.360      353.517        0.762        0.122      112.751       18.842        0.028      346.056       24.030      861.418
07/01/2013  00:34:00      -99.397      -17.386       -3.624       30.226       19.347       16.250      913.627      374.291      264.055        0.587        0.078      100.906       14.795        0.021      346.144       24.180      861.419
07/01/2013  00:35:00      -90.924      -38.160       -1.614       20.639       27.864       14.144      425.957      776.415      200.043        0.556        0.070       98.608       13.335        0.018      346.332       24.503      861.427
07/01/2013  00:36:00      -67.411      -24.344        5.325       25.892       21.687       14.534      670.416      470.347      211.235        0.326        0.068       71.671       14.317        0.040      346.337       24.513      861.421
07/01/2013  00:37:00      -82.989      -26.343        2.205       28.942       16.605       14.673      837.652      275.728      215.310        0.446        0.066       87.070       14.449        0.028      346.308       24.463      861.425
07/01/2013  00:38:00      -84.793      -34.059        0.500       38.062       28.112       17.364     1448.714      790.282      301.495        0.544        0.127       91.378        9.962        0.012      346.360       24.551      861.422
07/01/2013  00:39:00      -77.287      -38.460        2.157       48.399       28.595       19.662     2342.422      817.696      386.579        0.550        0.177       86.328       20.022        0.054      346.466       24.736      861.410
07/01/2013  00:40:00     -118.188      -47.335       -2.735       29.374       30.406       16.526      862.820      924.525      273.109        0.914        0.103      127.314       14.098        0.012      346.530       24.844      861.417
07/01/2013  00:41:00      -99.133      -58.228        0.295       48.656       29.976       18.580     2367.383      898.550      345.209        0.841        0.181      114.969       20.493        0.032      346.526       24.837      861.400
07/01/2013  00:42:00      -54.940      -42.112        3.974       43.115       31.578       19.153     1858.907      997.161      366.823        0.401        0.161       69.223       18.872        0.074      346.524       24.832      861.403
07/01/2013  00:43:00      -37.063      -33.740       11.172       44.033       25.882       14.596     1938.938      669.871      213.043        0.273        0.141       50.120       15.747        0.099      346.494       24.781      861.404
07/01/2013  00:44:00      -19.448      -87.497        1.893       19.824       39.189       15.887      392.984     1535.762      252.400        0.511        0.109       89.632        8.830        0.010      346.579       24.929      861.411
07/01/2013  00:45:00      -46.313      -79.853        4.113       31.726       37.345       18.384     1006.514     1394.683      337.974        0.564        0.137       92.311       15.854        0.029      346.647       25.044      861.427
07/01/2013  00:46:00      -45.071      -67.879        2.819       35.119       37.202       25.556     1233.369     1383.955      653.117        0.496        0.164       81.480       20.020        0.060      346.650       25.047      861.429
07/01/2013  00:47:00      -41.635      -62.629       12.791       60.598       29.301       30.394     3672.171      858.522      923.806        0.564        0.273       75.205       33.624        0.200      346.584       24.936      861.443
07/01/2013  00:48:00      -92.179      -41.430       -1.512       33.791       26.511       19.213     1141.853      702.816      369.155        0.621        0.111      101.061       13.901        0.019      346.451       24.709      861.450
07/01/2013  00:49:00      -61.279      -30.027       -0.288       32.002       19.081       14.178     1024.134      364.087      201.003        0.312        0.079       68.240       13.712        0.040      346.483       24.761      861.459
07/01/2013  00:50:00      -79.774      -10.545       -1.304       32.128       28.689       16.366     1032.183      823.082      267.851        0.430        0.106       80.468       14.682        0.033      346.321       24.485      861.486
07/01/2013  00:51:00      -53.937       -0.449        4.308       38.431       22.679       16.551     1476.960      514.335      273.924        0.260        0.113       53.939       16.998        0.099      346.170       24.224      861.493
07/01/2013  00:52:00      -67.423        9.237        0.423       26.880       25.634       14.375      722.555      657.098      206.626        0.311        0.079       68.053       11.350        0.028      346.005       23.942      861.503
07/01/2013  00:53:00     -104.164      -18.742       -5.914       29.115       32.631       15.296      847.656     1064.808      233.973        0.669        0.107      105.836       10.390        0.010      345.851       23.676      861.499
07/01/2013  00:54:00      -84.494       -2.428       -6.376       38.799       38.654       18.461     1505.352     1494.104      340.799        0.526        0.167       84.529       11.645        0.019      345.728       23.465      861.507
07/01/2013  00:55:00      -72.257       17.951       -1.865       37.707       24.294       21.147     1421.820      590.216      447.191        0.400        0.123       74.453       15.548        0.044      345.733       23.474      861.493
07/01/2013  00:56:00      -37.392       -7.654        2.549       33.964       28.349       14.825     1153.540      803.664      219.770        0.182        0.109       38.168       15.546        0.166      345.722       23.455      861.500
07/01/2013  00:57:00      -72.620      -29.298       -5.373       23.783       33.445       15.941      565.648     1118.578      254.118        0.405        0.097       78.307       12.271        0.025      345.732       23.473      861.492
07/01/2013  00:58:00      -87.534      -37.164      -11.888       19.397       17.513       14.202      376.226      306.701      201.701        0.503        0.044       95.097       10.072        0.011      345.727       23.466      861.490
07/01/2013  00:59:00      -67.690      -31.579       -5.838       45.591       26.937       18.899     2078.507      725.611      357.171        0.439        0.158       74.694       23.189        0.096      345.750       23.505      861.493
07/01/2013  01:00:00      -59.996      -61.047       -4.971       37.150       29.361       21.605     1380.103      862.085      466.783        0.503        0.135       85.593       23.095        0.073      345.732       23.471      861.486
07/01/2013  01:01:00      -53.312      -16.010        8.167       49.488       21.599       24.330     2449.084      466.526      591.953        0.334        0.175       55.664       31.962        0.330      345.626       23.290      861.489
07/01/2013  01:02:00     -105.302      -12.816      -13.265       33.689       22.945       17.175     1134.943      526.474      294.982        0.669        0.098      106.079       13.857        0.017      345.543       23.147      861.479
07/01/2013  01:03:00      -72.552      -23.192       -2.540       31.060       26.259       16.431      964.731      689.531      269.988        0.387        0.096       76.169       15.554        0.042      345.542       23.147      861.487
07/01/2013  01:04:00      -39.661      -37.107        7.774       20.162       23.443       17.613      406.496      549.566      310.209        0.214        0.063       54.313       17.069        0.099      345.553       23.165      861.497
07/01/2013  01:05:00      -37.323      -17.896        0.523       23.504       23.871       13.953      552.417      569.809      194.690        0.151        0.066       41.392        6.790        0.027      345.482       23.044      861.514
07/01/2013  01:06:00      -52.894       -4.669        2.323       32.567       13.560       10.324     1060.580      183.862      106.578        0.209        0.068       53.100       14.668        0.076      345.501       23.078      861.526
07/01/2013  01:07:00      -80.748       12.691       -5.462       14.748       15.226        9.640      217.498      231.841       92.926        0.363        0.027       81.739        6.285        0.006      345.540       23.141      861.535
07/01/2013  01:08:00      -62.257       18.608       -5.183       18.917       18.755       12.395      357.842      351.764      153.628        0.256        0.043       64.979        5.686        0.008      345.479       23.038      861.541
07/01/2013  01:09:00      -46.684       29.449       -5.382       11.942       13.746        9.611      142.622      188.951       92.375        0.175        0.021       55.196        4.211        0.006      345.487       23.054      861.532
07/01/2013  01:10:00      -63.477       37.745       -8.824       28.545       35.865       19.292      814.829     1286.306      372.183        0.400        0.124       73.852       16.295        0.049      345.524       23.115      861.541
07/01/2013  01:11:00      -77.373       46.962       -6.431       24.869       28.363       16.838      618.450      804.457      283.512        0.497        0.085       90.510       16.054        0.031      345.665       23.358      861.546
07/01/2013  01:12:00      -35.109       32.894       -9.372       29.395       14.995       12.504      864.056      224.841      156.348        0.182        0.062       48.111       13.418        0.078      345.621       23.282      861.563
07/01/2013  01:13:00        4.496       14.851        0.698       10.886       16.357        7.022      118.509      267.549       49.314        0.034        0.022       15.517        7.581        0.239      345.697       23.411      861.571
07/01/2013  01:14:00        3.107       25.563       -1.533       10.694       12.017        6.644      114.369      144.405       44.147        0.048        0.015       25.751        2.918        0.013      345.907       23.775      861.582
07/01/2013  01:15:00        9.136       15.528       -0.415        6.171       11.463        7.170       38.080      131.393       51.408        0.027        0.011       18.016        6.879        0.146      346.087       24.079      861.595
07/01/2013  01:16:00       -2.317      -39.274       -7.996       12.975       13.440       12.829      168.342      180.640      164.577        0.106        0.026       39.342        9.711        0.061      346.028       23.981      861.603
07/01/2013  01:17:00      -15.165      -35.224       -2.867        7.824        7.974        6.270       61.212       63.583       39.315        0.082        0.008       38.350        3.928        0.010      346.173       24.230      861.618
07/01/2013  01:18:00      -25.125      -24.649       -1.138       11.266        9.177        7.816      126.933       84.213       61.091        0.076        0.014       35.197        3.877        0.012      345.940       23.828      861.629
07/01/2013  01:19:00      -46.626      -18.457       -6.260        8.559        8.349        7.562       73.252       69.709       57.179        0.138        0.010       50.147        3.473        0.005      345.767       23.534      861.647
07/01/2013  01:20:00      -59.610       -8.593      -10.628       11.995        9.285        7.143      143.885       86.203       51.023        0.201        0.014       60.226        5.182        0.007      345.696       23.409      861.663
07/01/2013  01:21:00      -79.546       21.339      -15.163        8.316       12.084        6.793       69.152      146.022       46.140        0.364        0.013       82.358        4.827        0.003      345.659       23.346      861.686
07/01/2013  01:22:00      -75.800       33.035      -12.739       20.431       19.008       16.103      417.440      361.285      259.296        0.402        0.052       82.686       11.482        0.019      345.674       23.373      861.709
07/01/2013  01:23:00      -71.610        3.074       -8.306       15.006       24.576       10.823      225.181      603.985      117.131        0.308        0.047       71.676        7.101        0.010      345.631       23.301      861.719
07/01/2013  01:24:00      -70.946       -1.895       -6.648       15.620       16.985       11.170      243.970      288.487      124.771        0.287        0.033       70.971        8.891        0.016      345.436       22.964      861.719
07/01/2013  01:25:00      -77.679      -20.278       -7.533       15.524       14.477       10.213      240.997      209.588      104.314        0.353        0.028       80.282        7.578        0.009      345.421       22.938      861.719
07/01/2013  01:26:00      -63.973      -22.155      -11.446       16.148       14.859       12.232      260.743      220.789      149.610        0.267        0.032       67.701        7.164        0.011      345.456       22.998      861.727
07/01/2013  01:27:00      -13.924      -20.587      -14.069       25.862       20.945       15.597      668.867      438.687      243.254        0.108        0.068       24.854       11.390        0.210      345.494       23.065      861.720
07/01/2013  01:28:00      -91.167      -33.137      -10.653       35.196       19.228       10.289     1238.726      369.703      105.867        0.562        0.086       97.003        5.827        0.004      345.351       22.820      861.726
07/01/2013  01:29:00     -122.708      -35.345      -16.200       10.270       11.917       10.183      105.478      142.023      103.684        0.846        0.018      127.697        5.816        0.002      345.375       22.859      861.738
07/01/2013  01:30:00     -118.246      -42.172      -19.714       11.287        9.911        8.560      127.407       98.232       73.280        0.822        0.015      125.542        5.540        0.002      345.410       22.922      861.747
07/01/2013  01:31:00      -99.202      -40.219      -10.620       19.867       15.823       12.284      394.687      250.381      150.902        0.618        0.040      107.045        4.876        0.002      345.490       23.057      861.767
07/01/2013  01:32:00      -73.168      -42.752       -9.473       11.624       13.501       10.282      135.122      182.288      105.716        0.385        0.021       84.742        5.848        0.005      345.544       23.149      861.769
07/01/2013  01:33:00      -92.583      -59.712      -11.680       18.217       18.823       16.791      331.846      354.313      281.947        0.662        0.048      110.168       13.210        0.014      345.581       23.213      861.770
07/01/2013  01:34:00     -116.144      -55.208       -8.071       18.692       20.246        9.944      349.409      409.894       98.886        0.873        0.043      128.597        4.715        0.001      345.599       23.244      861.767
07/01/2013  01:35:00     -113.218      -32.173       -3.180       30.015       31.001       19.997      900.926      961.081      399.871        0.806        0.113      117.701       16.861        0.021      345.552       23.162      861.763
07/01/2013  01:36:00      -94.023      -27.920       -1.488       34.666       20.711       20.113     1201.728      428.933      404.532        0.583        0.102       98.081       21.687        0.049      345.379       22.866      861.761
07/01/2013  01:37:00     -116.899      -26.518       -7.540       22.911       19.696       13.190      524.892      387.916      173.985        0.776        0.054      119.869       11.524        0.009      345.430       22.953      861.740
07/01/2013  01:38:00     -120.594      -51.768       -1.731       39.046       27.134       17.897     1524.595      736.239      320.292        0.990        0.129      131.236       19.370        0.022      345.443       22.977      861.736
07/01/2013  01:39:00      -97.527      -36.933        2.658       29.584       27.335       16.364      875.194      747.197      267.794        0.639        0.095      104.286       14.485        0.019      345.382       22.870      861.745
07/01/2013  01:40:00      -98.320      -33.008       -1.928       24.286       25.139       12.746      589.807      631.951      162.460        0.607        0.069      103.713       11.445        0.012      345.498       23.072      861.749
07/01/2013  01:41:00      -73.288      -46.813       -3.142       33.777       17.474       16.805     1140.909      305.339      282.392        0.465        0.086       86.963       17.025        0.038      345.436       22.964      861.765
07/01/2013  01:42:00      -66.133      -42.363        1.131       37.823       28.683       17.573     1430.544      822.693      308.809        0.437        0.128       78.538       12.694        0.026      345.409       22.918      861.765
07/01/2013  01:43:00     -104.581      -59.513        2.870       44.054       32.554       18.762     1940.774     1059.793      352.001        0.892        0.168      120.329       14.940        0.015      345.428       22.952      861.760
07/01/2013  01:44:00     -120.727      -35.400       -3.746       25.018       23.030       14.353      625.900      530.384      205.996        0.860        0.068      125.810       10.727        0.007      345.452       22.991      861.776
07/01/2013  01:45:00     -117.191      -42.450        1.054       18.204       26.319       11.528      331.394      692.682      132.894        0.835        0.058      124.642        8.304        0.004      345.543       23.150      861.763
07/01/2013  01:46:00      -72.707      -28.075        3.033       41.580       21.965       17.084     1728.906      482.445      291.875        0.429        0.125       77.939       16.630        0.046      345.492       23.060      861.750
07/01/2013  01:47:00      -84.876      -13.884       -4.929       28.063       28.040       16.544      787.548      786.269      273.709        0.463        0.092       86.004       16.505        0.037      345.360       22.833      861.751
07/01/2013  01:48:00     -134.355      -18.825      -11.862       29.278       20.409       15.535      857.183      416.516      241.339        1.003        0.076      135.668       16.931        0.016      345.447       22.984      861.732
07/01/2013  01:49:00      -79.011      -14.773        0.861       46.391       32.000       22.258     2152.132     1024.000      495.423        0.507        0.184       80.380       25.051        0.097      345.406       22.912      861.725
07/01/2013  01:50:00      -48.535      -43.087        8.066       48.392       35.454       26.349     2341.740     1257.014      694.266        0.428        0.215       64.901       24.345        0.141      345.386       22.877      861.711
07/01/2013  01:51:00     -138.701      -40.143       -6.461       42.056       23.910       16.833     1768.722      571.707      283.344        1.176        0.131      144.393       19.529        0.018      345.467       23.017      861.692
07/01/2013  01:52:00     -113.861      -20.406       -3.891       50.394       31.797       22.105     2539.569     1011.072      488.622        0.872        0.202      115.675       26.636        0.053      345.338       22.797      861.678
07/01/2013  01:53:00     -123.108      -51.067      -12.070       25.137       20.765       18.172      631.869      431.181      330.235        0.965        0.070      133.279       10.288        0.006      345.246       22.639      861.666
07/01/2013  01:54:00     -116.934      -17.550      -11.668       33.904       17.734       19.294     1149.503      314.486      372.275        0.798        0.092      118.243       19.231        0.026      345.347       22.811      861.658
07/01/2013  01:55:00     -149.880      -37.968      -10.275       36.916       25.455       22.934     1362.785      647.942      525.958        1.327        0.127      154.614       22.362        0.021      345.287       22.707      861.632
07/01/2013  01:56:00     -149.128      -15.930       -9.741       40.714       32.622       22.566     1657.616     1064.215      509.246        1.291        0.162      149.977       24.431        0.027      345.290       22.714      861.614
07/01/2013  01:57:00     -149.200      -49.466      -17.149       29.017       26.772       17.271      841.972      716.728      298.301        1.343        0.093      157.186       12.171        0.006      345.324       22.773      861.598
07/01/2013  01:58:00     -122.264      -60.614        0.413       29.382       47.659       20.786      863.319     2271.393      432.046        1.109        0.178      136.464        8.347        0.004      345.275       22.689      861.573
07/01/2013  01:59:00     -137.647      -27.931       -6.163       47.846       42.368       24.305     2289.249     1795.074      590.734        1.222        0.234      140.452       23.768        0.029      345.258       22.659      861.569
07/01/2013  02:00:00     -148.731      -53.647       -8.912       37.241       40.671       24.208     1386.927     1654.153      586.026        1.435        0.181      158.110       17.492        0.012      345.119       22.424      861.564
07/01/2013  02:01:00     -118.024      -42.037       -4.085       49.159       45.679       24.265     2416.656     2086.571      588.806        1.040        0.255      125.287       18.716        0.022      345.124       22.431      861.554
07/01/2013  02:02:00     -148.303      -13.633      -12.393       48.128       41.117       25.898     2316.302     1690.594      670.700        1.350        0.234      148.929       25.942        0.030      345.068       22.334      861.561
07/01/2013  02:03:00     -104.867      -27.561       -0.696       41.994       33.832       24.831     1763.500     1144.571      616.571        0.764        0.176      108.428       24.841        0.052      345.147       22.470      861.570
07/01/2013  02:04:00     -118.257      -45.288       -4.729       39.871       33.862       22.912     1589.714     1146.629      524.966        0.966        0.163      126.633       16.470        0.017      345.131       22.444      861.588
07/01/2013  02:05:00      -73.126      -43.034        7.547       38.239       25.826       19.445     1462.227      666.982      378.104        0.488        0.125       84.849       18.579        0.048      345.151       22.475      861.636
07/01/2013  02:06:00      -55.862      -60.854        0.024       39.871       29.158       17.050     1589.713      850.176      290.697        0.478        0.137       82.606       15.094        0.033      345.518       23.106      861.686
07/01/2013  02:07:00      -56.559      -71.498        2.185       43.123       30.297       21.342     1859.562      917.923      455.494        0.577        0.162       91.164       20.842        0.052      345.700       23.417      861.716
07/01/2013  02:08:00      -38.818      -76.970        2.892       26.260       33.847       16.697      689.599     1145.639      278.781        0.478        0.106       86.204        8.248        0.009      345.766       23.530      861.760
07/01/2013  02:09:00      -48.614      -50.515        8.170       28.689       30.372       20.152      823.074      922.469      406.103        0.357        0.108       70.108       14.070        0.040      345.689       23.398      861.798
07/01/2013  02:10:00      -33.817      -64.895        8.443       34.274       26.705       24.373     1174.696      713.142      594.055        0.395        0.124       73.178       22.607        0.095      345.812       23.611      861.828
07/01/2013  02:11:00      -33.360      -21.936        4.059       42.130       24.499       15.250     1774.911      600.186      232.559        0.211        0.130       39.926       15.648        0.154      345.770       23.539      861.859
07/01/2013  02:12:00      -53.413      -35.395        7.763       39.693       29.237       19.658     1575.531      854.804      386.422        0.349        0.141       64.076       15.507        0.059      345.758       23.517      861.877
07/01/2013  02:13:00      -54.425      -40.517        9.944       29.098       26.857       15.384      846.677      721.317      236.675        0.325        0.090       67.851       11.851        0.031      345.721       23.454      861.896
07/01/2013  02:14:00      -48.234      -59.480        6.366       30.543       28.755       15.637      932.872      826.856      244.508        0.395        0.100       76.580       16.178        0.045      345.789       23.571      861.910
07/01/2013  02:15:00      -37.525      -33.858       -2.981       31.629       26.697       16.763     1000.385      712.718      280.992        0.228        0.100       50.542       16.877        0.111      345.703       23.424      861.914
07/01/2013  02:16:00      -27.386       -1.733        0.010       21.778       19.492       14.674      474.302      379.920      215.316        0.091        0.053       27.441       15.418        0.316      345.712       23.438      861.913
07/01/2013  02:17:00      -51.648       -1.567       -3.505       13.832       17.053        9.687      191.318      290.801       93.834        0.163        0.029       51.672        8.585        0.028      345.663       23.355      861.927
07/01/2013  02:18:00      -41.112       27.591       -6.002       11.992       18.986       10.793      143.820      360.484      116.491        0.155        0.031       49.512        9.903        0.040      345.691       23.403      861.919
07/01/2013  02:19:00      -25.829       52.646       -5.770       16.292       28.606       13.754      265.415      818.310      189.170        0.237        0.064       58.641       10.296        0.031      345.706       23.428      861.905
07/01/2013  02:20:00      -37.400       74.650       -5.868       14.578       15.458       12.866      212.530      238.961      165.525        0.381        0.031       83.495       10.254        0.015      345.751       23.506      861.903
07/01/2013  02:21:00      -26.859       74.118       -6.754       13.044       20.345        9.204      170.147      413.925       84.707        0.346        0.033       78.835        5.794        0.005      345.873       23.716      861.901
07/01/2013  02:22:00      -13.247      120.548      -11.014       17.335       15.492       11.248      300.494      240.017      126.508        0.775        0.033      121.274        7.186        0.004      345.928       23.809      861.885
07/01/2013  02:23:00      -14.561      109.809      -14.640       13.882       14.291        8.951      192.711      204.236       80.120        0.648        0.024      110.770        5.796        0.003      345.906       23.772      861.866
07/01/2013  02:24:00      -18.570       78.135       -8.242       22.559       24.227       14.081      508.921      586.968      198.288        0.391        0.065       80.312       10.869        0.018      345.767       23.532      861.845
07/01/2013  02:25:00      -39.824       12.094       -4.826       28.566       23.938       10.754      816.008      573.018      115.641        0.163        0.075       41.620        9.607        0.053      345.767       23.534      861.831
07/01/2013  02:26:00      -44.102        0.190       -2.374       16.489       23.500       11.810      271.875      552.263      139.473        0.146        0.048       44.103        9.641        0.048      345.861       23.694      861.801
07/01/2013  02:27:00      -58.690       15.214       -8.371       17.203       28.237       12.093      295.933      797.351      146.248        0.249        0.062       60.630       12.092        0.040      346.028       23.980      861.766
07/01/2013  02:28:00      -40.827       53.423      -11.474       15.524       22.411       11.505      240.999      502.256      132.361        0.276        0.044       67.237        9.921        0.022      346.206       24.286      861.725
07/01/2013  02:29:00        8.154       43.712       -2.205       15.223       23.083       11.203      231.727      532.819      125.504        0.144        0.045       44.466        6.910        0.024      346.027       23.980      861.683
07/01/2013  02:30:00       30.341       21.171       -2.374       14.331       16.114       11.859      205.378      259.658      140.644        0.099        0.030       36.997       11.198        0.092      345.840       23.658      861.642
07/01/2013  02:31:00       30.689       23.580        8.219       25.004       18.179       18.364      625.210      330.474      337.251        0.143        0.065       38.702       11.060        0.082      345.823       23.628      861.603
07/01/2013  02:32:00       17.173       18.761       -1.729       27.595       18.803       18.177      761.465      353.561      330.412        0.105        0.072       25.434       11.209        0.194      345.809       23.606      861.584
07/01/2013  02:33:00        6.157       11.518       -0.966       15.715       13.676        9.205      246.959      187.039       84.724        0.035        0.026       13.060        7.396        0.321      345.801       23.589      861.558
07/01/2013  02:34:00       -9.220       40.979       -5.376       14.434       28.428       10.473      208.331      808.162      109.686        0.146        0.056       42.004       12.328        0.086      346.050       24.020      861.533
07/01/2013  02:35:00      -52.790      -21.652       -8.022       13.753       20.009        9.838      189.140      400.347       96.787        0.200        0.034       57.058       11.482        0.040      345.937       23.826      861.511
07/01/2013  02:36:00      -44.349      -41.585       -9.326       17.767       12.538       11.005      315.673      157.191      121.115        0.219        0.030       60.795        6.547        0.012      345.942       23.835      861.495
07/01/2013  02:37:00      -77.809      -12.627       -8.210       12.307       12.808        8.648      151.471      164.044       74.792        0.334        0.020       78.827        3.788        0.002      345.705       23.429      861.482
07/01/2013  02:38:00      -79.712       -8.743       -7.933       18.281       17.881       14.359      334.180      319.740      206.176        0.368        0.043       80.191        9.162        0.013      345.700       23.417      861.466
07/01/2013  02:39:00      -38.881      -25.760       -3.374       20.438       16.102       11.891      417.729      259.272      141.403        0.150        0.041       46.641        8.012        0.030      345.722       23.456      861.453
07/01/2013  02:40:00       -3.309      -24.022       -8.869        8.997       15.402        7.918       80.955      237.226       62.694        0.052        0.019       24.249        4.464        0.034      345.822       23.626      861.454
07/01/2013  02:41:00        1.921        9.680       26.248       11.043       14.093       18.545      121.957      198.620      343.900        0.073        0.033        9.869       13.069        1.754      345.871       23.711      861.453
07/01/2013  02:42:00       -1.016       52.030       63.492       22.466       28.966       15.914      504.717      839.003      253.257        0.417        0.080       52.040       17.520        0.113      345.943       23.836      861.452
07/01/2013  02:43:00        3.810       69.729       83.498       25.992       33.526       24.883      675.604     1123.989      619.141        0.713        0.121       69.833       24.249        0.121      345.910       23.779      861.450
07/01/2013  02:44:00       10.389       73.895       82.969       27.072       38.239       22.353      732.883     1462.202      499.642        0.757        0.135       74.622       25.354        0.115      345.888       23.741      861.448
07/01/2013  02:45:00       15.535       21.906       44.299       24.480       22.959       14.162      599.260      527.118      200.551        0.201        0.066       26.855       10.138        0.143      345.814       23.614      861.461
07/01/2013  02:46:00        5.755       32.810       58.828       28.538       34.394       32.313      814.423     1182.919     1044.140        0.381        0.152       33.311       27.984        0.706      345.789       23.571      861.483
07/01/2013  02:47:00       61.955      -49.076       27.926       57.005       66.024       41.044     3249.590     4359.184     1684.625        0.816        0.465       79.037       48.874        0.382      345.715       23.443      861.531
07/01/2013  02:48:00       85.142      -92.149       -2.172       46.602       55.650       33.111     2171.791     3096.909     1096.313        1.105        0.318      125.461       39.300        0.098      345.723       23.458      861.602
07/01/2013  02:49:00       72.261      -86.665        8.298       53.043       42.775       29.086     2813.520     1829.734      846.013        0.914        0.274      112.838       27.927        0.061      345.781       23.557      861.669
07/01/2013  02:50:00       47.689      -76.822        2.565       65.438       62.319       37.164     4282.072     3883.679     1381.176        0.886        0.477       90.420       23.030        0.065      345.807       23.600      861.737
07/01/2013  02:51:00     -132.710      -78.311       -4.740       76.559       74.143       37.121     5861.321     5497.190     1377.975        1.825        0.637      154.093       45.985        0.089      345.750       23.502      861.799
07/01/2013  02:52:00     -210.635     -165.514       -7.906       97.838       75.433       49.205     9572.278     5690.165     2421.087        4.475        0.884      267.885       46.679        0.030      345.706       23.424      861.891
07/01/2013  02:53:00     -221.673     -147.043        5.911      136.886      103.688       59.051    18737.663    10751.222     3486.973        5.188        1.649      266.009       65.074        0.060      345.726       23.460      861.920
07/01/2013  02:54:00     -319.727     -184.790       -6.025      168.377      125.540       74.911    28350.685    15760.407     5611.725        9.306        2.486      369.287       95.548        0.067      345.688       23.394      861.913
07/01/2013  02:55:00     -227.541      -82.384        1.699      134.222       78.356       50.759    18015.493     6139.591     2576.486        4.264        1.337      241.996       47.998        0.039      345.676       23.374      861.914
07/01/2013  02:56:00     -213.746      -27.442        2.767      139.374       90.450       53.886    19425.033     8181.117     2903.722        3.847        1.525      215.500       58.069        0.073      345.789       23.570      861.915
07/01/2013  02:57:00     -218.326      -39.637       -1.651       83.298       74.946       42.400     6938.607     5616.922     1797.731        3.179        0.718      221.895       41.849        0.036      345.821       23.623      861.925
07/01/2013  02:58:00     -188.102        0.613       -4.084      102.759       68.475       38.657    10559.422     4688.888     1494.352        2.607        0.837      188.103       47.747        0.064      346.021       23.966      861.914
07/01/2013  02:59:00     -214.759        9.762      -16.372       52.205       53.038       26.779     2725.318     2812.996      717.120        2.637        0.313      214.980       22.929        0.011      346.190       24.256      861.925
07/01/2013  03:00:00     -141.177      -12.196      -11.602       48.130       31.422       21.634     2316.506      987.371      468.025        1.199        0.189      141.703       15.576        0.012      346.258       24.375      861.937
07/01/2013  03:01:00      -26.718       33.071        0.347       26.671       18.442       16.608      711.324      340.102      275.812        0.157        0.066       42.515       12.521        0.087      346.203       24.283      861.944
07/01/2013  03:02:00       19.664       16.733       -1.630       11.074        7.943        8.025      122.630       63.091       64.404        0.046        0.013       25.820        4.903        0.036      346.101       24.106      861.941
07/01/2013  03:03:00       36.988       14.237        2.229       16.599        6.011        6.927      275.537       36.129       47.988        0.097        0.018       39.634        4.646        0.014      346.031       23.984      861.939
07/01/2013  03:04:00       72.919       29.090        2.598       18.235       16.414       11.641      332.527      269.404      135.518        0.345        0.037       78.508        5.955        0.006      346.028       23.981      861.901
07/01/2013  03:05:00       87.986       52.971       -7.699       29.814       33.372       20.659      888.886     1113.685      426.782        0.652        0.121      102.701       18.360        0.032      345.925       23.806      861.845
07/01/2013  03:06:00       72.481       46.845        2.335       32.454       23.370       26.406     1053.260      546.178      697.300        0.487        0.115       86.302       21.213        0.060      345.701       23.421      861.805
07/01/2013  03:07:00       35.004       55.910       -4.979       28.350       29.606       22.426      803.707      876.542      502.926        0.328        0.109       65.964       19.258        0.085      345.671       23.368      861.773
07/01/2013  03:08:00       34.496       72.395       -4.047       31.654       38.462       25.722     1001.974     1479.333      661.630        0.479        0.157       80.194       23.910        0.089      345.721       23.455      861.731
07/01/2013  03:09:00       51.040       57.708        0.336       43.113       27.881       33.885     1858.727      777.373     1148.178        0.486        0.189       77.041       22.911        0.088      345.734       23.474      861.694
07/01/2013  03:10:00       31.341       80.880       -1.394       34.692       59.372       35.259     1203.532     3525.034     1243.203        0.675        0.299       86.740       35.329        0.166      345.747       23.499      861.677
07/01/2013  03:11:00       16.384      142.335      -20.720       23.034       31.004       20.199      530.586      961.244      408.014        1.143        0.095      143.275       17.911        0.016      345.885       23.736      861.708
07/01/2013  03:12:00      -10.132      112.007      -11.153       33.271       38.987       21.059     1106.940     1519.959      443.498        0.792        0.154      112.465       22.849        0.041      345.922       23.799      861.744
07/01/2013  03:13:00      -49.242       -1.650       -9.435       15.291       23.278       10.443      233.800      541.857      109.060        0.170        0.044       49.270        7.943        0.026      345.832       23.644      861.790
07/01/2013  03:14:00      -50.156      -37.015        0.572       25.612       13.605       15.903      655.966      185.097      252.893        0.249        0.055       62.336       16.075        0.067      345.917       23.790      861.832
07/01/2013  03:15:00       -1.232      -20.246        6.041       23.920       14.387        9.857      572.166      206.979       97.154        0.066        0.044       20.284        6.567        0.105      346.039       23.999      861.861
07/01/2013  03:16:00       35.134       40.359       25.639       20.919       20.571       21.636      437.621      423.159      468.137        0.242        0.066       53.509       17.393        0.106      346.007       23.946      861.863
07/01/2013  03:17:00      100.928       36.281       25.358       35.468       25.763       26.905     1257.974      663.740      723.863        0.740        0.132      107.251       21.002        0.038      346.020       23.968      861.854
07/01/2013  03:18:00      168.340       70.667       20.933       32.720       38.589       27.053     1070.566     1489.112      731.889        1.853        0.165      182.571       11.686        0.004      346.045       24.009      861.806
07/01/2013  03:19:00      134.673       86.641        8.245       53.294       35.749       29.815     2840.233     1278.009      888.938        1.536        0.250      160.136       20.847        0.017      346.032       23.987      861.746
07/01/2013  03:20:00       91.125       63.215       19.038       45.319       33.109       33.562     2053.776     1096.237     1126.420        0.847        0.214      110.905       19.923        0.032      345.956       23.858      861.677
07/01/2013  03:21:00       30.842       65.127       -7.000       40.890       45.614       32.959     1671.967     2080.648     1086.293        0.504        0.242       72.061       28.299        0.154      346.071       24.055      861.626
07/01/2013  03:22:00       27.483       88.330        6.906       39.688       62.248       40.671     1575.117     3874.803     1654.152        0.785        0.355       92.507       36.902        0.159      346.255       24.370      861.616
07/01/2013  03:23:00       30.309       85.817       -0.378       31.121       48.933       30.646      968.495     2394.395      939.178        0.629        0.215       91.012       31.833        0.122      346.293       24.437      861.637
07/01/2013  03:24:00       15.837       23.568        6.231       27.614       19.385       21.214      762.531      375.774      450.046        0.122        0.079       28.395       14.036        0.244      346.299       24.447      861.681
07/01/2013  03:25:00      -11.917        5.985       -4.543       12.336       13.992        7.145      152.176      195.779       51.055        0.030        0.020       13.335        4.206        0.099      346.307       24.459      861.744
07/01/2013  03:26:00      -96.535      -56.078        0.021       39.316       25.371       14.843     1545.729      643.679      220.319        0.744        0.120      111.641        5.499        0.002      346.184       24.249      861.788
07/01/2013  03:27:00      -69.489      -68.316        4.883       44.538       29.965       23.409     1983.641      897.878      547.994        0.647        0.171       97.446       23.005        0.056      346.225       24.320      861.813
07/01/2013  03:28:00      -43.257      -61.954        0.761       39.468       25.824       21.628     1557.700      666.892      467.767        0.420        0.135       75.562       19.439        0.066      346.311       24.467      861.826
07/01/2013  03:29:00     -105.537      -67.639        6.751       40.462       35.791       21.300     1637.202     1280.998      453.694        0.956        0.169      125.352       18.733        0.022      346.314       24.473      861.819
07/01/2013  03:30:00     -140.852      -75.450      -10.440       38.259       33.789       21.622     1463.764     1141.671      467.521        1.436        0.154      159.787       20.698        0.017      346.307       24.460      861.794
07/01/2013  03:31:00     -135.149      -67.200      -10.933       33.045       25.908       21.539     1091.960      671.209      463.912        1.256        0.111      150.934       12.224        0.007      346.248       24.360      861.760
07/01/2013  03:32:00     -140.450      -40.998       -6.183       29.566       31.931       16.182      874.171     1019.597      261.845        1.180        0.108      146.311        8.632        0.003      346.225       24.320      861.719
07/01/2013  03:33:00     -162.170      -42.573       -8.474       36.078       35.414       21.823     1301.611     1254.118      476.233        1.561        0.152      167.665       18.093        0.012      346.196       24.270      861.674
07/01/2013  03:34:00     -138.082      -52.905        4.157       44.850       32.090       21.773     2011.564     1029.742      474.069        1.270        0.176      147.870       22.638        0.023      346.200       24.277      861.657
07/01/2013  03:35:00      -83.358      -30.199        9.724       52.210       41.086       24.711     2725.852     1688.031      610.613        0.649        0.251       88.660       25.149        0.080      346.234       24.335      861.670
07/01/2013  03:36:00      -71.298      -82.399        6.586       45.273       51.088       35.013     2049.645     2610.006     1225.912        0.890        0.294      108.964       28.277        0.067      346.283       24.418      861.727
07/01/2013  03:37:00     -137.029     -111.424       12.357       87.043       60.456       43.959     7576.435     3654.913     1932.411        2.225        0.658      176.614       46.958        0.071      346.436       24.681      861.811
07/01/2013  03:38:00     -187.876     -157.767       -5.520      106.301       96.590       53.973    11299.889     9329.604     2913.102        4.188        1.177      245.332       48.589        0.039      346.203       24.278      861.912
07/01/2013  03:39:00      -83.779     -119.675        4.397       63.562       58.477       39.999     4040.179     3419.597     1599.938        1.521        0.453      146.086       32.847        0.051      346.147       24.183      861.959
07/01/2013  03:40:00      -65.799      -49.642        8.885       63.260       54.536       38.874     4001.852     2974.227     1511.156        0.768        0.424       82.425       35.693        0.188      346.167       24.219      861.948
07/01/2013  03:41:00        4.318      -36.461       14.258       40.676       29.920       28.478     1654.525      895.178      810.982        0.246        0.168       36.716       22.864        0.388      346.141       24.176      861.892
07/01/2013  03:42:00      -65.210      -39.365       -1.459       57.151       35.324       25.394     3266.243     1247.787      644.835        0.548        0.258       76.170       23.021        0.091      346.174       24.232      861.831
07/01/2013  03:43:00     -149.105      -33.892       -0.502       54.129       42.715       28.483     2929.903     1824.574      811.309        1.447        0.278      152.909       25.503        0.028      346.094       24.095      861.766
07/01/2013  03:44:00     -140.772      -48.816       -1.034       51.932       44.768       24.956     2696.961     2004.139      622.797        1.376        0.266      148.996       24.312        0.027      346.121       24.140      861.697
07/01/2013  03:45:00     -168.483      -60.284       -3.365       68.548       36.393       24.200     4698.760     1324.473      585.625        1.932        0.330      178.944       27.150        0.023      346.298       24.444      861.646
07/01/2013  03:46:00     -122.637      -65.384      -11.410       46.845       33.121       22.828     2194.477     1097.000      521.109        1.163        0.191      138.979       25.135        0.033      346.283       24.420      861.631
07/01/2013  03:47:00      -44.532      -48.143        8.834       49.094       35.873       25.534     2410.249     1286.871      651.989        0.436        0.217       65.580       27.991        0.182      346.247       24.356      861.649
07/01/2013  03:48:00      -66.157     -114.130       -0.161       32.259       46.419       23.484     1040.650     2154.693      551.498        1.057        0.187      131.918       20.942        0.025      346.268       24.393      861.671
07/01/2013  03:49:00      -85.189     -107.326       -1.247       33.826       44.295       26.105     1144.170     1962.079      681.474        1.128        0.189      137.026       22.953        0.028      346.316       24.475      861.678
07/01/2013  03:50:00      -95.800      -57.097        9.338       63.273       36.381       29.124     4003.443     1323.542      848.195        0.935        0.309      111.524       32.511        0.085      346.299       24.450      861.670
07/01/2013  03:51:00     -107.532      -66.782       -2.856       35.454       28.584       21.543     1256.971      817.019      464.098        0.928        0.127      126.582       18.665        0.022      346.349       24.534      861.639
07/01/2013  03:52:00      -44.557      -10.333        5.761       26.361       22.807       14.716      694.914      520.157      216.555        0.178        0.072       45.739       13.700        0.090      346.296       24.441      861.598
07/01/2013  03:53:00      -43.878      -31.026        2.747       30.277       28.477       14.893      916.681      810.937      221.814        0.242        0.097       53.739       16.810        0.098      346.248       24.359      861.575
07/01/2013  03:54:00       -2.543      -15.857        7.462       25.756       15.631        9.227      663.359      244.328       85.145        0.065        0.050       16.060       10.747        0.448      346.290       24.428      861.562
07/01/2013  03:55:00       58.363       38.811       10.433       18.650       21.005       17.414      347.814      441.223      303.238        0.306        0.055       70.090       14.191        0.041      346.111       24.122      861.559
07/01/2013  03:56:00      103.413       65.036       -4.573       26.697       25.186       25.713      712.724      634.344      661.158        0.848        0.100      122.163       10.533        0.007      346.047       24.013      861.560
07/01/2013  03:57:00       49.382       91.065       69.408       52.549       36.300       43.838     2761.388     1317.678     1921.734        1.077        0.300      103.593       34.182        0.109      345.918       23.793      861.566
07/01/2013  03:58:00      159.750      108.434       63.625       47.082       39.728       39.845     2216.697     1578.293     1587.658        2.335        0.269      193.076       30.245        0.025      345.907       23.773      861.576
07/01/2013  03:59:00      155.376       85.383       32.024       58.351       47.915       35.899     3404.849     2295.841     1288.716        1.972        0.349      177.290       26.558        0.022      345.816       23.615      861.580
07/01/2013  04:00:00      124.046       82.368       35.387       71.021       50.856       39.120     5043.935     2586.348     1530.413        1.629        0.458      148.902       40.335        0.073      345.807       23.601      861.574
07/01/2013  04:01:00      149.657       95.325       33.001       45.291       33.336       30.904     2051.257     1111.292      955.081        1.834        0.206      177.437       16.436        0.009      345.887       23.737      861.559
07/01/2013  04:02:00      131.272       92.095       22.202       28.496       30.244       23.098      811.999      914.717      533.514        1.423        0.113      160.355        5.713        0.001      345.908       23.774      861.553
07/01/2013  04:03:00       57.532       42.724       14.238       31.388       26.176       29.002      985.232      685.158      841.094        0.392        0.126       71.661       19.030        0.071      345.884       23.734      861.546
07/01/2013  04:04:00       65.218       51.444       11.284       30.096       28.712       23.449      905.794      824.401      549.859        0.465        0.114       83.065       20.952        0.064      345.934       23.819      861.556
07/01/2013  04:05:00       43.695       18.660        8.953       24.793       18.529       16.175      614.717      343.329      261.635        0.178        0.061       47.512        9.053        0.036      345.884       23.733      861.598
07/01/2013  04:06:00       29.998       33.332       29.706       36.606       23.459       19.364     1340.011      550.329      374.949        0.258        0.113       44.843       19.544        0.190      345.939       23.829      861.641
07/01/2013  04:07:00       10.643       28.068       41.866       26.413       19.431       15.293      697.628      377.563      233.877        0.198        0.065       30.018        7.993        0.071      345.893       23.750      861.690
07/01/2013  04:08:00       23.126      -46.025       16.058       25.058       50.800       27.397      627.885     2580.669      750.616        0.343        0.198       51.509       31.492        0.374      345.955       23.857      861.717
07/01/2013  04:09:00        3.379      -69.051       -5.470       15.040       20.092       15.375      226.188      403.707      236.402        0.284        0.043       69.133       10.291        0.022      346.099       24.102      861.729
07/01/2013  04:10:00      -43.101      -36.657       -9.524       22.007       18.240       16.624      484.304      332.707      276.362        0.219        0.055       56.581       14.591        0.066      346.083       24.074      861.728
07/01/2013  04:11:00      -29.734      -32.299        2.026       32.394       36.518       17.602     1049.348     1333.579      309.844        0.231        0.135       43.902       16.529        0.142      346.043       24.007      861.722
07/01/2013  04:12:00      -54.935      -69.570        9.490       57.840       45.118       29.276     3345.423     2035.608      857.087        0.709        0.312       88.645       36.478        0.169      346.066       24.045      861.729
07/01/2013  04:13:00     -135.089     -133.104       -5.695       56.366       40.563       31.771     3177.091     1645.335     1009.388        2.091        0.292      189.646       24.117        0.016      346.134       24.161      861.736
07/01/2013  04:14:00     -211.626     -179.373        6.901      115.467       84.560       52.444    13332.556     7150.349     2750.353        5.012        1.162      277.417       59.205        0.046      346.074       24.055      861.719
07/01/2013  04:15:00     -246.953     -159.520       -4.441       98.045       79.206       54.919     9612.754     6273.578     3016.119        5.267        0.945      293.994       54.346        0.034      346.082       24.068      861.708
07/01/2013  04:16:00     -208.038     -112.116       -1.071       74.311       63.557       38.780     5522.109     4039.523     1503.918        3.346        0.553      236.326       38.131        0.026      346.109       24.116      861.706
07/01/2013  04:17:00     -158.246      -70.828       -8.262       92.098       75.051       40.957     8482.126     5632.618     1677.514        2.296        0.790      173.374       39.111        0.051      346.035       23.991      861.712
07/01/2013  04:18:00     -218.741      -91.759       -7.635       98.122       52.147       38.283     9627.856     2719.280     1465.609        3.507        0.691      237.207       27.473        0.013      345.968       23.874      861.742
07/01/2013  04:19:00     -185.471      -82.365       -4.573       80.399       64.501       38.929     6464.075     4160.322     1515.448        2.667        0.607      202.937       41.961        0.043      346.057       24.027      861.771
07/01/2013  04:20:00     -176.581     -107.494        4.243       67.845       59.486       32.243     4602.882     3538.612     1039.598        2.597        0.459      206.726       31.283        0.023      346.122       24.138      861.790
07/01/2013  04:21:00     -163.209      -92.221       -0.057       80.584       73.251       44.779     6493.828     5365.691     2005.139        2.450        0.693      187.462       46.286        0.061      346.229       24.323      861.774
07/01/2013  04:22:00     -124.696      -25.821        4.488       69.269       79.445       34.830     4798.205     6311.574     1213.162        1.428        0.616      127.341       34.907        0.075      346.218       24.306      861.737
07/01/2013  04:23:00     -182.303      -32.439       -4.986       68.797       52.382       33.507     4733.021     2743.893     1122.712        2.145        0.430      185.167       35.232        0.036      346.250       24.360      861.688
07/01/2013  04:24:00     -207.769      -51.391      -14.903       59.858       54.396       33.012     3582.957     2958.885     1089.795        2.683        0.382      214.031       19.840        0.009      346.143       24.175      861.643
07/01/2013  04:25:00     -125.013      -28.168       -5.138       59.612       55.105       25.907     3553.613     3036.555      671.151        1.185        0.363      128.147       19.579        0.023      346.126       24.148      861.606
07/01/2013  04:26:00     -187.723      -25.283       -5.573       57.900       49.726       37.425     3352.460     2472.643     1400.661        2.157        0.361      189.418       34.058        0.032      346.144       24.176      861.590
07/01/2013  04:27:00     -168.312       -7.122      -14.738       63.983       27.688       20.025     4093.835      766.652      400.985        1.693        0.263      168.463       21.778        0.017      346.144       24.175      861.583
07/01/2013  04:28:00     -139.428      -51.568      -11.407       52.429       46.333       28.992     2748.834     2146.759      840.544        1.398        0.287      148.659       28.943        0.038      346.119       24.134      861.582
07/01/2013  04:29:00     -184.748      -30.064       -9.398       75.581       48.045       33.968     5712.540     2308.321     1153.849        2.215        0.459      187.178       30.776        0.027      346.096       24.094      861.583
07/01/2013  04:30:00     -201.435      -63.331      -15.289       47.231       63.190       33.413     2230.802     3992.958     1116.453        2.608        0.367      211.156       28.778        0.019      346.079       24.063      861.593
07/01/2013  04:31:00     -153.728      -68.431      -14.162       64.172       44.062       34.453     4118.098     1941.442     1187.029        1.788        0.362      168.271       22.345        0.018      346.060       24.034      861.598
07/01/2013  04:32:00     -123.935      -16.917      -18.267       34.354       35.355       25.402     1180.181     1249.950      645.269        0.953        0.154      125.084        5.501        0.002      346.058       24.032      861.597
07/01/2013  04:33:00     -109.411      -52.282      -24.181       39.329       30.373       24.783     1546.790      922.495      614.196        0.919        0.154      121.261       17.544        0.021      346.079       24.067      861.600
07/01/2013  04:34:00     -109.212      -61.074      -23.979       43.537       37.144       25.856     1895.434     1379.668      668.509        1.009        0.197      125.129       16.281        0.017      345.998       23.930      861.581
07/01/2013  04:35:00     -115.753      -67.012      -10.922       45.795       34.930       30.892     2097.202     1220.077      954.320        1.114        0.214      133.751       23.394        0.031      346.008       23.947      861.576
07/01/2013  04:36:00     -115.809      -44.377       -7.213       45.010       50.758       27.125     2025.944     2576.407      735.778        1.038        0.267      124.021       24.313        0.038      346.107       24.116      861.569
07/01/2013  04:37:00      -90.028      -50.873      -15.305       45.346       37.158       29.086     2056.295     1380.686      845.968        0.760        0.214      103.407       14.829        0.021      346.026       23.976      861.555
07/01/2013  04:38:00      -75.902      -53.539        6.508       70.954       36.383       27.709     5034.533     1323.698      767.762        0.790        0.356       92.884       36.392        0.154      345.931       23.814      861.547
07/01/2013  04:39:00      -85.590      -55.791        1.900       34.734       42.885       23.825     1206.438     1839.118      567.631        0.703        0.181      102.168       20.133        0.039      345.850       23.676      861.537
07/01/2013  04:40:00      -97.586      -77.887        3.929       43.465       40.738       28.196     1889.226     1659.549      795.015        0.997        0.217      124.857       24.538        0.039      345.969       23.880      861.528
07/01/2013  04:41:00     -110.944      -81.840        3.365       63.259       29.769       30.067     4001.746      886.182      904.022        1.240        0.290      137.863       35.909        0.068      346.054       24.027      861.515
07/01/2013  04:42:00      -85.205      -78.505        0.053       54.794       31.397       25.662     3002.412      985.758      658.516        0.903        0.232      115.857       15.796        0.019      346.181       24.245      861.502
07/01/2013  04:43:00      -59.813      -84.486        3.824       50.894       51.783       24.940     2590.226     2681.442      621.985        0.831        0.295      103.516       31.812        0.094      346.239       24.344      861.496
07/01/2013  04:44:00      -41.485     -103.087        5.969       40.304       28.535       17.878     1624.428      814.228      319.640        0.757        0.138      111.121       18.528        0.028      346.436       24.682      861.484
07/01/2013  04:45:00        5.944     -112.578        5.429       25.436       21.113       19.909      646.981      445.763      396.355        0.711        0.074      112.735       12.301        0.012      346.431       24.674      861.491
07/01/2013  04:46:00       -5.223     -113.397       -8.399       25.888       33.118       30.134      670.172     1096.806      908.081        0.782        0.134      113.517       17.669        0.024      346.472       24.744      861.520
07/01/2013  04:47:00      -18.387     -115.827        1.168       46.138       39.698       45.495     2128.702     1575.905     2069.765        0.976        0.289      117.278       32.942        0.079      346.381       24.589      861.550
07/01/2013  04:48:00       -0.114      -91.006      -10.231       35.571       51.903       35.577     1265.295     2693.873     1265.702        0.680        0.261       91.006       24.733        0.074      346.034       23.992      861.583
07/01/2013  04:49:00        1.151      -28.060        0.347       24.815       41.411       28.809      615.802     1714.911      829.982        0.197        0.158       28.083       21.780        0.601      345.965       23.874      861.597
07/01/2013  04:50:00       14.686        1.879       17.603       18.731       22.640       19.044      350.835      512.548      362.660        0.088        0.061       14.806       15.257        1.062      345.865       23.700      861.601
07/01/2013  04:51:00       -6.417       21.564       36.599       18.191       18.406       25.470      330.899      338.793      648.737        0.158        0.066       22.498       19.361        0.741      345.818       23.620      861.607
07/01/2013  04:52:00       -5.497       33.616       54.094       19.189       21.642       15.478      368.202      468.388      239.570        0.258        0.054       34.063       16.527        0.235      345.936       23.824      861.609
07/01/2013  04:53:00       55.752       45.517        9.377       39.276       23.884       33.669     1542.625      570.444     1133.575        0.426        0.162       71.972       28.444        0.156      345.771       23.538      861.614
07/01/2013  04:54:00       77.230       33.925       12.320       42.196       29.945       21.527     1780.502      896.687      463.409        0.520        0.157       84.353       14.934        0.031      345.608       23.260      861.609
07/01/2013  04:55:00       83.416       43.354        5.495       30.799       27.790       25.837      948.554      772.311      667.566        0.563        0.119       94.010       16.328        0.030      345.536       23.136      861.607
07/01/2013  04:56:00       49.470       11.068       -7.603       25.858       21.350       13.638      668.621      455.818      186.008        0.197        0.066       50.693       12.940        0.065      345.517       23.105      861.625
07/01/2013  04:57:00        2.173        9.720        0.170       23.232       21.268       11.670      539.721      452.335      136.196        0.061        0.056        9.960       11.948        1.439      345.524       23.117      861.616
07/01/2013  04:58:00       26.274       39.331        5.447       27.002       16.062       17.118      729.109      257.979      293.029        0.177        0.064       47.299       14.622        0.096      345.428       22.948      861.595
07/01/2013  04:59:00      -24.867       21.030       -0.267       20.101       12.814        7.818      404.065      164.209       61.127        0.084        0.031       32.567        8.287        0.065      345.485       23.048      861.584
07/01/2013  05:00:00       -3.695       -5.300       -0.370       13.856        6.551        5.073      191.996       42.911       25.735        0.015        0.013        6.461        2.423        0.141      345.493       23.061      861.577
07/01/2013  05:01:00      -15.943        7.647        6.340       16.743       10.833       11.671      280.328      117.358      136.215        0.044        0.027       17.682       11.359        0.413      345.509       23.089      861.572
07/01/2013  05:02:00       15.375       33.496       38.536       22.348       19.749       19.144      499.412      390.033      366.476        0.205        0.063       36.856        8.116        0.048      345.662       23.353      861.578
07/01/2013  05:03:00        9.119       21.512       39.995       15.500       17.244        9.310      240.254      297.370       86.677        0.138        0.031       23.365        8.933        0.146      345.754       23.512      861.596
07/01/2013  05:04:00       43.466       24.705       10.101       22.055       15.269       16.697      486.432      233.155      278.795        0.180        0.050       49.997       11.056        0.049      345.735       23.477      861.616
07/01/2013  05:05:00       88.000       36.031        7.952       27.677       26.517       20.962      766.007      703.160      439.419        0.551        0.095       95.091       19.200        0.041      345.570       23.195      861.634
07/01/2013  05:06:00      109.296       53.012        6.581       20.450       24.443       23.436      418.210      597.438      549.268        0.818        0.078      121.474       16.144        0.018      345.541       23.146      861.663
07/01/2013  05:07:00       79.549       44.580        5.431       24.553       22.143       17.874      602.867      490.318      319.489        0.488        0.071       91.189       14.211        0.024      345.410       22.919      861.704
07/01/2013  05:08:00       82.160       40.843        6.123       28.243       23.899       17.616      797.658      571.157      310.328        0.507        0.084       91.752       14.858        0.026      345.303       22.736      861.749
07/01/2013  05:09:00       84.789       49.181        8.256       36.804       27.239       15.770     1354.515      741.945      248.697        0.601        0.117       98.020       13.391        0.019      345.332       22.786      861.769
07/01/2013  05:10:00       62.172       42.367        9.913       35.123       22.356       14.211     1233.600      499.787      201.944        0.385        0.097       75.235        5.742        0.006      345.323       22.770      861.794
07/01/2013  05:11:00        5.990        8.418        9.715       10.016       10.275        9.205      100.326      105.581       84.735        0.025        0.015       10.332        3.195        0.096      345.304       22.738      861.809
07/01/2013  05:12:00      -20.778       33.685       -5.981       14.679       15.766       10.856      215.479      248.568      117.843        0.109        0.029       39.578        6.354        0.026      345.392       22.889      861.826
07/01/2013  05:13:00      -49.817       29.980       -9.600       16.335       14.041        8.368      266.817      197.164       70.020        0.200        0.027       58.142        6.110        0.011      345.268       22.677      861.833
07/01/2013  05:14:00      -21.593       24.689       -2.871       11.007        8.614        6.744      121.149       74.195       45.479        0.066        0.012       32.799        0.873        0.001      345.462       23.009      861.828
07/01/2013  05:15:00      -29.899       42.097       -7.617       10.586       14.370        8.588      112.069      206.498       73.760        0.156        0.020       51.634        6.256        0.015      345.444       22.978      861.819
07/01/2013  05:16:00      -20.742       35.058       -3.948       11.323       13.139        6.870      128.209      172.625       47.203        0.101        0.017       40.735        5.572        0.019      345.454       22.994      861.814
07/01/2013  05:17:00      -28.901       13.083       -1.768       14.820       10.631        5.590      219.619      113.023       31.250        0.069        0.018       31.724        4.907        0.024      345.395       22.894      861.807
07/01/2013  05:18:00      -40.764       18.475       -9.308       12.778       13.819       10.927      163.281      190.956      119.400        0.128        0.024       44.755        9.080        0.041      345.319       22.762      861.794
07/01/2013  05:19:00      -50.417        5.437       -1.933       18.673       11.353        5.644      348.668      128.881       31.850        0.154        0.025       50.710        6.696        0.017      345.297       22.726      861.771
07/01/2013  05:20:00      -69.106        4.939       -3.977       18.337       14.401        9.332      336.248      207.378       87.077        0.272        0.032       69.282        7.877        0.013      345.385       22.876      861.759
07/01/2013  05:21:00      -64.744      -14.367      -11.449       17.159       16.734       10.027      294.421      280.028      100.540        0.260        0.034       66.319        8.776        0.018      345.343       22.803      861.745
07/01/2013  05:22:00      -52.740      -31.460       -7.337       30.309       15.272       10.351      918.650      233.221      107.134        0.254        0.063       61.411        8.324        0.018      345.309       22.748      861.737
07/01/2013  05:23:00      -52.445      -18.645       -5.470       14.021       10.885        9.181      196.598      118.476       84.283        0.176        0.020       55.661        4.232        0.006      345.279       22.697      861.739
07/01/2013  05:24:00      -14.551      -28.744       -0.703       22.780       15.880        7.611      518.906      252.177       57.921        0.093        0.041       32.218        6.670        0.043      345.323       22.773      861.746
07/01/2013  05:25:00       -1.174      -21.923        2.105        7.818       12.965       11.025       61.117      168.092      121.552        0.042        0.018       21.954        6.966        0.101      345.365       22.844      861.759
07/01/2013  05:26:00       -1.846       13.371       22.604        6.681       10.214        5.892       44.630      104.320       34.711        0.044        0.009       13.498        5.242        0.151      345.223       22.597      861.762
07/01/2013  05:27:00        1.611       -1.845        6.437        6.901       10.761        6.414       47.617      115.802       41.144        0.013        0.010        2.450        6.108        6.217      345.232       22.615      861.763
07/01/2013  05:28:00        9.595        5.913        5.711       12.003       19.004       12.685      144.070      361.152      160.919        0.041        0.033       11.271       13.113        1.354      345.361       22.835      861.760
07/01/2013  05:29:00       39.327       47.264        5.875       17.707       16.434       13.444      313.537      270.076      180.730        0.229        0.038       61.486       11.528        0.035      345.186       22.537      861.752
07/01/2013  05:30:00       51.563       52.232      -11.243       15.236       20.093       11.878      232.140      403.729      141.082        0.314        0.039       73.396        7.978        0.012      345.069       22.336      861.759
07/01/2013  05:31:00       95.982       49.936       -1.861       39.501       27.242       20.180     1560.351      742.130      407.225        0.721        0.135      108.195       10.456        0.009      344.869       21.995      861.788
07/01/2013  05:32:00       99.654       75.260       13.373       24.642       18.971       22.860      607.206      359.882      522.558        0.863        0.074      124.880       14.093        0.013      344.851       21.962      861.806
07/01/2013  05:33:00       96.531       73.593       18.894       19.648       16.965       21.611      386.038      287.824      467.014        0.812        0.057      121.384       16.872        0.019      344.845       21.952      861.824
07/01/2013  05:34:00       73.027       22.381        3.405       27.369       26.200       14.455      749.035      686.426      208.950        0.374        0.082       76.379       10.918        0.020      344.880       22.013      861.836
07/01/2013  05:35:00       32.645       21.580       20.371       23.020       19.037       13.330      529.932      362.400      177.689        0.151        0.054       39.133        9.016        0.053      344.926       22.092      861.848
07/01/2013  05:36:00       14.347       12.244       13.128       13.862       16.210       14.273      192.155      262.751      203.720        0.059        0.033       18.862        9.810        0.270      345.029       22.270      861.855
07/01/2013  05:37:00       16.298       13.701       15.635       14.701       12.697        9.263      216.111      161.219       85.811        0.058        0.023       21.292        4.015        0.036      345.034       22.276      861.864
07/01/2013  05:38:00      -11.570      -17.649        9.999       17.958       14.817       11.279      322.481      219.549      127.220        0.061        0.033       21.103       13.030        0.381      345.008       22.231      861.878
07/01/2013  05:39:00      -41.577        0.522       -0.894        7.860       12.342        8.424       61.775      152.335       70.969        0.101        0.014       41.580        4.272        0.011      344.980       22.185      861.883
07/01/2013  05:40:00      -49.299        1.318       -6.246        7.572        7.212        6.641       57.341       52.011       44.103        0.131        0.008       49.316        2.663        0.003      345.058       22.319      861.888
07/01/2013  05:41:00      -58.191       -0.319       -5.458        8.985        7.555        8.824       80.735       57.082       77.858        0.182        0.011       58.192        3.275        0.003      345.070       22.340      861.876
07/01/2013  05:42:00      -51.565        6.022       -5.870       10.459       10.431        8.397      109.394      108.804       70.516        0.151        0.014       51.916        6.922        0.018      345.080       22.355      861.854
07/01/2013  05:43:00      -19.412       15.524       -4.718        9.344        8.263        5.051       87.317       68.280       25.514        0.041        0.009       24.857        3.505        0.020      345.079       22.353      861.827
07/01/2013  05:44:00        1.493       28.246       -3.022        9.188        7.578        5.863       84.423       57.428       34.380        0.049        0.009       28.285        2.265        0.006      345.222       22.599      861.813
07/01/2013  05:45:00       -0.881       44.642       -2.227       12.736       12.364        9.344      162.217      152.857       87.319        0.120        0.020       44.650        8.477        0.036      345.114       22.413      861.811
07/01/2013  05:46:00      -22.294       67.828       -7.239       14.826       24.280       11.672      219.811      589.520      136.237        0.305        0.047       71.397        9.756        0.019      345.107       22.402      861.804
07/01/2013  05:47:00      -15.215       80.662       -4.775       15.601       16.578       11.333      243.406      274.822      128.439        0.370        0.032       82.084       10.248        0.016      345.215       22.586      861.790
07/01/2013  05:48:00      -10.138       86.368      -11.948        9.122       12.351        5.754       83.208      152.559       33.113        0.399        0.013       86.961        4.427        0.003      345.190       22.544      861.776
07/01/2013  05:49:00      -23.549       82.091      -14.341       13.480       14.918       10.058      181.697      222.542      101.171        0.400        0.025       85.402        5.734        0.005      345.198       22.555      861.763
07/01/2013  05:50:00      -54.177       47.980      -12.942       17.002       19.879        9.555      289.075      395.178       91.301        0.309        0.039       72.368        8.620        0.014      345.003       22.222      861.740
07/01/2013  05:51:00      -45.448       13.912       -5.574       13.970       20.260        8.284      195.171      410.459       68.629        0.148        0.034       47.529        5.872        0.015      344.915       22.074      861.711
07/01/2013  05:52:00      -54.861        2.150       -2.951       22.500       18.661       10.725      506.229      348.222      115.017        0.200        0.048       54.903        9.191        0.028      344.757       21.802      861.683
07/01/2013  05:53:00      -81.267       -0.014      -20.217       17.296       16.794       13.121      299.161      282.030      172.169        0.388        0.038       81.267       11.817        0.021      344.761       21.808      861.676
07/01/2013  05:54:00      -57.862       31.694       -3.937       25.876       29.463       24.421      669.559      868.056      596.377        0.325        0.107       65.974       17.311        0.069      344.896       22.041      861.671
07/01/2013  05:55:00      -53.319       45.832       -7.572       29.173       31.110       15.803      851.037      967.825      249.745        0.353        0.103       70.310       14.054        0.040      344.943       22.121      861.664
07/01/2013  05:56:00       13.723       39.690        0.444       21.407       21.357       17.250      458.262      456.101      297.568        0.149        0.061       41.995       14.414        0.118      345.025       22.261      861.655
07/01/2013  05:57:00       12.372       94.770      -10.574       22.974       31.221       18.973      527.791      974.732      359.958        0.555        0.093       95.574       20.699        0.047      345.011       22.237      861.656
07/01/2013  05:58:00       22.812       54.516       -0.136       17.239       36.243       17.581      297.190     1313.542      309.078        0.271        0.096       59.096       15.014        0.065      344.971       22.169      861.669
07/01/2013  05:59:00       69.524       24.191       -3.236       22.582       13.223       14.755      509.953      174.857      217.714        0.317        0.045       73.613        9.296        0.016      345.030       22.270      861.695
07/01/2013  06:00:00       73.366       43.251       -8.721       22.812       21.992       14.007      520.390      483.657      196.206        0.426        0.060       85.166        4.681        0.003      345.006       22.229      861.736
07/01/2013  06:01:00       47.701       64.409       28.926       39.414       28.263       32.943     1553.436      798.809     1085.256        0.535        0.172       80.149       28.284        0.125      345.116       22.416      861.798
07/01/2013  06:02:00       29.319       58.714       77.376       39.244       38.750       17.424     1540.130     1501.568      303.594        0.682        0.167       65.627       21.218        0.105      345.091       22.373      861.854
07/01/2013  06:03:00       11.948       25.720       36.860       38.456       45.282       28.687     1478.844     2050.461      822.936        0.326        0.218       28.360       19.152        0.456      344.928       22.097      861.904
07/01/2013  06:04:00       -0.851      -18.645       40.027       26.230       49.827       30.722      688.024     2482.706      943.858        0.303        0.206       18.664       13.938        0.558      344.811       21.895      861.938
07/01/2013  06:05:00       -3.643      -48.478       13.303       28.847       31.525       25.657      832.163      993.812      658.276        0.251        0.124       48.615       14.174        0.085      344.754       21.796      861.944
07/01/2013  06:06:00      -15.408      -23.684       10.098       16.612       18.775       13.710      275.945      352.503      187.966        0.086        0.041       28.255        8.177        0.084      344.864       21.985      861.932
07/01/2013  06:07:00        8.259       16.713        5.799       22.457       28.651       21.772      504.296      820.888      474.030        0.109        0.090       18.642       16.081        0.744      344.941       22.117      861.918
07/01/2013  06:08:00       -8.125       42.091       -6.216       16.654       12.845        8.205      277.372      164.996       67.321        0.119        0.025       42.868        7.476        0.030      345.000       22.217      861.917
07/01/2013  06:09:00       -6.327       44.604       -2.051       12.472       16.074       11.066      155.540      258.383      122.460        0.128        0.027       45.050        8.002        0.032      345.045       22.297      861.938
07/01/2013  06:10:00       12.119       68.643       -3.406       20.691       17.869        9.226      428.108      319.302       85.117        0.285        0.042       69.705        7.748        0.012      345.086       22.364      861.981
07/01/2013  06:11:00       38.190       36.646        9.108       21.290       17.555       17.324      453.282      308.184      300.135        0.197        0.053       52.928       12.500        0.056      345.085       22.364      862.048
07/01/2013  06:12:00       71.436       27.213       10.162       24.755       21.096       18.990      612.796      445.046      360.605        0.368        0.071       76.444        9.770        0.016      345.055       22.313      862.112
07/01/2013  06:13:00       59.392       56.385       28.443       22.141       17.413       28.476      490.230      303.199      810.869        0.456        0.080       81.894       15.299        0.035      344.975       22.176      862.160
07/01/2013  06:14:00       66.361       54.137       48.707       21.451       15.545       18.141      460.137      241.640      329.094        0.537        0.052       85.642       10.459        0.015      345.069       22.336      862.185
07/01/2013  06:15:00       56.207       58.940       45.797       39.137       28.609       18.502     1531.733      818.468      342.326        0.571        0.135       81.444       18.285        0.050      345.053       22.310      862.189
07/01/2013  06:16:00       29.034       36.528       38.204       25.595       25.687       20.090      655.120      659.803      403.591        0.268        0.086       46.661       18.120        0.151      345.094       22.380      862.187
07/01/2013  06:17:00       35.574       37.923       16.931       14.291       16.575       12.790      204.233      274.729      163.596        0.182        0.032       51.997        9.461        0.033      345.027       22.267      862.176
07/01/2013  06:18:00       16.143       34.994        7.406       18.193       16.088       12.399      330.983      258.836      153.743        0.114        0.037       38.538       10.652        0.076      344.983       22.189      862.174
07/01/2013  06:19:00       14.079       87.111       -8.997       18.908       18.520       10.605      357.516      343.008      112.465        0.434        0.041       88.241        8.402        0.009      345.000       22.219      862.176
07/01/2013  06:20:00       -8.342      113.982      -12.258       13.464       19.082       10.177      181.282      364.123      103.571        0.693        0.032      114.286        9.554        0.007      345.064       22.328      862.188
07/01/2013  06:21:00      -13.346      117.021      -17.928       15.303       13.326        8.862      234.195      177.572       78.530        0.734        0.025      117.779        4.630        0.002      345.110       22.406      862.215
07/01/2013  06:22:00      -28.704      116.142      -14.859       17.523       35.320       17.268      307.070     1247.470      298.185        0.819        0.093      119.636       17.785        0.022      345.133       22.446      862.228
07/01/2013  06:23:00      -20.230       71.561       -2.056       27.433       26.035       11.911      752.578      677.812      141.868        0.355        0.079       74.365       11.324        0.023      345.123       22.427      862.229
07/01/2013  06:24:00      -32.630       23.377       -0.205       23.709       38.809       20.628      562.109     1506.117      425.531        0.205        0.125       40.139       13.906        0.120      345.069       22.338      862.238
07/01/2013  06:25:00      -86.816      -20.423      -14.532       15.985       16.958       11.071      255.534      287.574      122.576        0.442        0.033       89.186        5.149        0.003      345.081       22.358      862.240
07/01/2013  06:26:00     -119.133        5.872      -21.256       20.993       23.705       15.549      440.697      561.915      241.784        0.796        0.062      119.277       10.861        0.008      345.134       22.447      862.236
07/01/2013  06:27:00     -140.347       19.509      -14.372       36.665       32.282       18.552     1344.292     1042.121      344.178        1.151        0.137      141.696       16.206        0.013      344.975       22.177      862.219
07/01/2013  06:28:00     -135.277      -13.177      -13.325       32.843       35.658       25.142     1078.631     1271.506      632.141        1.082        0.149      135.917       19.264        0.020      344.929       22.096      862.206
07/01/2013  06:29:00     -112.864      -26.403      -10.177       25.398       25.174       19.426      645.078      633.706      377.354        0.760        0.083      115.912       16.401        0.020      344.900       22.047      862.186
07/01/2013  06:30:00     -112.402      -25.546      -15.730       24.617       25.540       17.106      606.007      652.286      292.629        0.754        0.078      115.269       12.150        0.011      344.949       22.129      862.178
07/01/2013  06:31:00     -105.232      -30.006      -14.731       18.939       20.025       16.677      358.672      400.985      278.133        0.661        0.052      109.426        8.938        0.007      344.932       22.104      862.184
07/01/2013  06:32:00     -120.868      -50.010      -18.576       28.694       31.560       22.782      823.349      996.063      519.029        0.990        0.117      130.805        7.306        0.003      344.877       22.007      862.190
07/01/2013  06:33:00     -133.649      -12.345      -15.969       50.614       35.306       18.972     2561.731     1246.491      359.951        1.122        0.208      134.217       23.437        0.030      344.804       21.882      862.211
07/01/2013  06:34:00      -98.612        0.075       -5.831       33.695       27.152       20.483     1135.374      737.243      419.534        0.602        0.115       98.612       18.032        0.033      344.814       21.900      862.209
07/01/2013  06:35:00      -98.426        2.633       -5.873       43.016       36.237       25.309     1850.347     1313.084      640.534        0.677        0.190       98.462       26.427        0.072      344.757       21.800      862.206
07/01/2013  06:36:00      -98.040      -11.134        0.400       42.995       23.265       22.866     1848.599      541.246      522.840        0.632        0.146       98.670       25.513        0.067      344.811       21.894      862.208
07/01/2013  06:37:00     -108.738      -26.074       -9.444       29.540       22.190       16.157      872.624      492.392      261.060        0.711        0.081      111.821       16.001        0.020      344.898       22.045      862.206
07/01/2013  06:38:00     -116.774      -27.004       -9.472       27.425       20.567       13.997      752.133      422.994      195.912        0.791        0.069      119.856       13.471        0.013      344.932       22.101      862.199
07/01/2013  06:39:00     -121.333      -49.967       -7.381       19.357       19.017       12.459      374.684      361.636      155.215        0.908        0.045      131.219       10.564        0.006      344.941       22.117      862.192
07/01/2013  06:40:00     -105.137      -42.400       -2.632       22.199       25.398       12.795      492.789      645.055      163.724        0.708        0.065      113.365       12.300        0.012      344.960       22.150      862.190
07/01/2013  06:41:00     -125.474      -40.927        0.525       26.015       24.257       18.461      676.798      588.386      340.816        0.951        0.080      131.980       12.330        0.009      344.963       22.154      862.196
07/01/2013  06:42:00     -173.285      -57.060       -8.770       51.800       49.833       22.264     2683.279     2483.377      495.683        1.951        0.283      182.438       23.990        0.017      344.956       22.140      862.209
07/01/2013  06:43:00     -124.802      -37.543       -5.956       40.928       35.039       26.373     1675.096     1227.735      695.534        1.031        0.180      130.326       24.262        0.035      344.895       22.040      862.213
07/01/2013  06:44:00     -161.333      -13.779      -22.460       17.406       21.090       17.221      302.953      444.767      296.547        1.388        0.052      161.921        9.776        0.004      344.889       22.028      862.218
07/01/2013  06:45:00     -146.174      -25.453      -15.702       37.405       34.981       23.978     1399.157     1223.683      574.956        1.273        0.160      148.373       10.060        0.005      344.879       22.010      862.223
07/01/2013  06:46:00     -110.782       -8.613      -10.555       43.095       40.681       25.653     1857.178     1654.953      658.087        0.831        0.209      111.117       23.493        0.045      344.907       22.057      862.243
07/01/2013  06:47:00      -72.053        2.634       -5.649       38.410       35.983       25.110     1475.329     1294.772      630.505        0.431        0.170       72.101       24.990        0.120      344.938       22.113      862.263
07/01/2013  06:48:00     -124.874       26.140      -15.591       41.120       40.331       22.776     1690.858     1626.598      518.740        1.018        0.192      127.581       22.537        0.031      344.972       22.171      862.269
07/01/2013  06:49:00     -128.213      -10.331      -18.764       60.595       27.990       16.568     3671.796      783.433      274.504        1.081        0.236      128.628       16.574        0.017      344.958       22.145      862.276
07/01/2013  06:50:00     -108.597       20.448      -16.046       38.781       23.573       13.242     1503.997      555.690      175.340        0.735        0.112      110.506        9.811        0.008      344.959       22.149      862.285
07/01/2013  06:51:00      -65.887       19.284      -10.858       18.509       23.258       16.351      342.593      540.929      267.347        0.299        0.058       68.651        8.715        0.016      345.031       22.272      862.277
07/01/2013  06:52:00     -114.784       48.066      -12.895       39.804       30.741       19.324     1584.350      945.008      373.415        0.928        0.145      124.441       16.639        0.018      345.156       22.486      862.279
07/01/2013  06:53:00     -113.756       56.465      -11.948       38.712       29.042       22.300     1498.596      843.461      497.295        0.955        0.142      126.999       15.723        0.015      345.143       22.464      862.284
07/01/2013  06:54:00     -102.011        1.337      -11.435       29.062       35.163       19.076      844.587     1236.445      363.889        0.649        0.122      102.020       14.550        0.020      345.215       22.585      862.275
07/01/2013  06:55:00      -83.175       22.669      -11.963       25.892       38.809       25.953      670.371     1506.107      673.568        0.521        0.143       86.209       16.206        0.035      345.292       22.718      862.267
07/01/2013  06:56:00      -79.386      -13.747      -12.825       31.253       38.737       21.663      976.771     1500.582      469.274        0.480        0.147       80.568       24.666        0.094      345.298       22.728      862.249
07/01/2013  06:57:00      -57.357        5.062       -6.840       24.958       26.207       15.448      622.914      686.808      238.628        0.245        0.077       57.580        9.155        0.025      345.238       22.625      862.242
07/01/2013  06:58:00      -45.965       -1.752      -10.120       13.540       17.927       12.299      183.343      321.378      151.266        0.144        0.033       45.998        5.660        0.015      345.233       22.615      862.246
07/01/2013  06:59:00      -57.360       72.589       -5.405       37.231       51.983       21.816     1386.170     2702.257      475.937        0.658        0.228       92.517       25.905        0.078      345.546       23.153      862.249
07/01/2013  07:00:00      -14.064       66.190       -4.851       30.083       23.256       16.296      904.961      540.825      265.554        0.316        0.086       67.668       12.143        0.032      345.606       23.256      862.254
07/01/2013  07:01:00        3.822       72.197        2.615       26.142       33.912       20.682      683.425     1150.017      427.743        0.375        0.113       72.298       21.428        0.088      345.585       23.221      862.260
07/01/2013  07:02:00        4.758       75.090       -7.812       16.405       37.105       15.001      269.135     1376.759      225.029        0.380        0.094       75.240       18.030        0.057      345.619       23.278      862.271
07/01/2013  07:03:00        2.034       83.761       -7.337       14.061       16.940        9.949      197.700      286.949       98.990        0.383        0.029       83.786        6.562        0.006      345.687       23.394      862.292
07/01/2013  07:04:00        7.474       44.935       -1.063       17.002       27.810       11.471      289.080      773.412      131.578        0.163        0.060       45.552       12.767        0.079      345.716       23.445      862.306
07/01/2013  07:05:00        4.131       49.626       -4.543       16.669       25.366       10.608      277.860      643.417      112.525        0.177        0.052       49.798        9.141        0.034      345.714       23.442      862.322
07/01/2013  07:06:00        8.469      102.869       -2.925       21.578       29.668       17.090      465.594      880.213      292.067        0.615        0.082      103.217       16.850        0.027      345.964       23.871      862.332
07/01/2013  07:07:00       -5.884       89.009       -8.814       16.056       35.499       15.871      257.807     1260.144      251.885        0.490        0.088       89.203       19.115        0.046      346.030       23.986      862.348
07/01/2013  07:08:00      -12.211       59.211       -6.233       14.004       15.259       12.471      196.101      232.832      155.524        0.214        0.029       60.457        6.243        0.011      346.002       23.935      862.371
07/01/2013  07:09:00      -11.509       26.494        3.540       27.352       33.318       15.348      748.141     1110.082      235.554        0.147        0.105       28.886       15.765        0.298      345.873       23.716      862.402
07/01/2013  07:10:00      -28.330      -17.622       -3.835       19.253       13.138       10.735      370.689      172.594      115.249        0.089        0.033       33.363        5.930        0.032      345.602       23.251      862.422
07/01/2013  07:11:00      -53.620       -9.684       -6.000       11.847       11.185        6.642      140.362      125.100       44.118        0.166        0.015       54.488        6.505        0.014      345.551       23.161      862.429
07/01/2013  07:12:00      -61.481      -13.886       -5.469       10.893       10.938        7.205      118.658      119.631       51.916        0.215        0.015       63.030        3.150        0.002      345.538       23.142      862.438
07/01/2013  07:13:00      -59.179       -5.257       -3.176       19.083       14.217        9.424      364.151      202.122       88.821        0.210        0.033       59.412        9.709        0.027      345.549       23.160      862.445
07/01/2013  07:14:00      -29.767        0.321       -0.673       15.228        9.460        6.132      231.882       89.494       37.603        0.062        0.018       29.769        7.019        0.056      345.625       23.287      862.452
07/01/2013  07:15:00      -19.397        0.983       -4.172       12.857        3.614        4.402      165.311       13.059       19.375        0.030        0.010       19.422        6.756        0.121      345.715       23.443      862.448
07/01/2013  07:16:00        4.861        7.512        8.392       17.066        6.875        8.128      291.256       47.270       66.072        0.028        0.020        8.948        2.539        0.081      345.956       23.858      862.456
07/01/2013  07:17:00       63.853       47.193        9.698       21.604       25.658       25.888      466.747      658.348      670.193        0.410        0.090       79.401       18.366        0.054      345.776       23.548      862.465
07/01/2013  07:18:00       38.836       29.669       16.637       20.479       19.157       21.632      419.398      366.982      467.941        0.196        0.063       48.872        6.347        0.017      345.882       23.730      862.462
07/01/2013  07:19:00       16.880        0.463       19.588       23.752       38.513       13.855      564.178     1483.247      191.959        0.145        0.112       16.887        6.552        0.151      345.830       23.641      862.483
07/01/2013  07:20:00        1.563      -78.318       -7.869       18.642       19.738       18.015      347.518      389.574      324.526        0.363        0.053       78.334       10.752        0.019      345.689       23.398      862.498
07/01/2013  07:21:00      -49.438      -50.690      -10.136       26.615       26.909       14.968      708.368      724.120      224.033        0.339        0.083       70.807       11.539        0.027      345.796       23.583      862.512
07/01/2013  07:22:00      -34.279      -37.165        1.889       46.294       33.486       22.468     2143.117     1121.290      504.827        0.316        0.188       50.560       20.620        0.166      345.699       23.415      862.541
07/01/2013  07:23:00      -28.581      -24.154        0.162       29.893       29.014       21.270      893.583      841.793      452.416        0.179        0.109       37.420       18.566        0.246      345.672       23.371      862.547
07/01/2013  07:24:00       -0.145      -25.821        9.937       22.983       31.917       20.799      528.226     1018.704      432.589        0.137        0.099       25.822       12.601        0.238      345.967       23.876      862.565
07/01/2013  07:25:00      -27.414      -25.221        4.213       12.179       17.733       11.483      148.317      314.446      131.854        0.100        0.030       37.251        4.549        0.015      345.829       23.640      862.578
07/01/2013  07:26:00      -28.214       -6.065       -5.531       16.786       12.156       10.833      281.756      147.757      117.358        0.071        0.027       28.859        8.740        0.092      345.785       23.564      862.590
07/01/2013  07:27:00      -33.495       -1.862        0.584       22.420       11.018       12.744      502.668      121.390      162.398        0.096        0.039       33.547        8.540        0.065      345.764       23.531      862.604
07/01/2013  07:28:00      -35.931        9.756        1.113       16.718       13.041       12.056      279.500      170.077      145.346        0.099        0.030       37.232        8.886        0.057      345.809       23.605      862.616
07/01/2013  07:29:00      -29.181        8.820        1.298       17.556       12.752       14.817      308.212      162.626      219.552        0.081        0.035       30.485       10.413        0.117      345.892       23.748      862.626
07/01/2013  07:30:00       -7.566       -4.592       -3.150        8.607        7.171        9.015       74.074       51.417       81.268        0.015        0.010        8.850        6.096        0.474      346.140       24.173      862.640
07/01/2013  07:31:00      -22.742       -2.992       21.351       15.048       35.546       27.521      226.429     1263.532      757.395        0.161        0.112       22.938       26.503        1.335      345.945       23.839      862.650
07/01/2013  07:32:00       -8.005       26.960       44.964       23.170       32.710       19.820      536.857     1069.950      392.843        0.241        0.100       28.123       17.882        0.404      346.277       24.409      862.657
07/01/2013  07:33:00      -11.777       25.145       48.974       19.767       25.879       16.915      390.744      669.708      286.125        0.226        0.067       27.766       15.273        0.303      346.328       24.497      862.658
07/01/2013  07:34:00      -39.961        1.546       18.883       33.069       22.001       19.180     1093.541      484.050      367.882        0.195        0.097       39.990       21.581        0.291      346.308       24.462      862.673
07/01/2013  07:35:00      -32.697      -20.578        7.244       35.563       29.383       21.612     1264.716      863.360      467.075        0.207        0.130       38.634       20.037        0.269      346.283       24.418      862.682
07/01/2013  07:36:00     -103.850      -82.857       -0.400       41.702       43.224       26.046     1739.019     1868.279      678.394        1.097        0.214      132.854       25.465        0.037      346.046       24.011      862.693
07/01/2013  07:37:00      -82.259      -53.413        6.873       34.107       37.758       20.012     1163.265     1425.659      400.482        0.633        0.149       98.078       19.362        0.039      346.077       24.064      862.703
07/01/2013  07:38:00      -56.153      -72.659        0.298       35.638       34.754       15.347     1270.064     1207.848      235.519        0.557        0.136       91.828        9.374        0.010      346.084       24.078      862.710
07/01/2013  07:39:00      -20.036      -59.757        8.256       29.136       37.002       20.452      848.924     1369.117      418.285        0.334        0.132       63.026       19.654        0.097      346.219       24.307      862.724
07/01/2013  07:40:00      -67.602      -45.138        0.918       29.183       36.499       16.184      851.642     1332.158      261.938        0.453        0.122       81.287       16.097        0.039      346.236       24.339      862.728
07/01/2013  07:41:00      -49.925      -56.664        0.235       28.973       42.024       17.631      839.429     1766.051      310.838        0.431        0.146       75.520       18.678        0.061      346.306       24.458      862.744
07/01/2013  07:42:00      -86.922      -99.915       -2.164       22.620       24.250       17.353      511.657      588.082      301.144        0.947        0.070      132.433       12.232        0.009      346.205       24.284      862.757
07/01/2013  07:43:00      -84.619      -73.266       -8.040       27.468       20.789       18.202      754.494      432.201      331.329        0.706        0.076      111.930       11.442        0.010      346.225       24.320      862.757
07/01/2013  07:44:00      -57.468      -39.649        3.361       24.752       21.937       16.138      612.658      481.212      260.439        0.312        0.068       69.818       14.133        0.041      346.339       24.514      862.765
07/01/2013  07:45:00      -57.781      -66.185       -2.357       36.241       43.588       16.598     1313.414     1899.881      275.494        0.561        0.174       87.859       19.169        0.048      346.355       24.544      862.774
07/01/2013  07:46:00      -49.914      -40.228        3.201       29.587       31.570       22.142      875.368      996.675      490.274        0.324        0.118       64.107       18.324        0.082      346.374       24.576      862.775
07/01/2013  07:47:00      -45.480      -49.434       -4.171       24.716       21.691       17.137      610.887      470.519      293.663        0.295        0.069       67.172        6.839        0.010      346.375       24.576      862.788
07/01/2013  07:48:00      -30.812      -39.033        1.468       26.925       17.791       15.242      724.930      316.508      232.310        0.187        0.064       49.729        8.598        0.030      346.504       24.801      862.792
07/01/2013  07:49:00       -3.688      -39.740        5.675       14.974       10.614       11.907      224.228      112.663      141.769        0.105        0.024       39.911        6.736        0.028      346.508       24.808      862.801
07/01/2013  07:50:00        4.588      -28.469       -0.182        7.122       24.514       10.580       50.718      600.943      111.931        0.080        0.038       28.836        7.476        0.067      346.687       25.114      862.809
07/01/2013  07:51:00       -0.741       12.668       33.793       14.880       16.326       13.471      221.402      266.533      181.480        0.099        0.033       12.689        9.840        0.601      346.925       25.523      862.812
07/01/2013  07:52:00       16.758       23.023       24.536       20.333       19.805       18.058      413.451      392.230      326.105        0.127        0.057       28.476       12.774        0.201      346.656       25.060      862.825
07/01/2013  07:53:00        3.145       15.319       22.880       22.502       17.918       20.684      506.319      321.046      427.814        0.101        0.063       15.638       12.833        0.673      346.919       25.513      862.832
07/01/2013  07:54:00       13.506      -15.448        6.421       25.491       25.704       20.883      649.799      660.687      436.114        0.110        0.087       20.520        8.923        0.189      346.518       24.824      862.848
07/01/2013  07:55:00       32.517       -8.341       -9.428       43.390       44.513       26.864     1882.657     1981.406      721.685        0.290        0.229       33.570       24.451        0.531      346.516       24.821      862.859
07/01/2013  07:56:00       15.582      -48.110       -1.060       17.657       32.189       21.618      311.772     1036.149      467.350        0.219        0.091       50.570       10.879        0.046      346.796       25.301      862.866
07/01/2013  07:57:00       -5.520       -4.212       29.315       12.564       17.794       11.182      157.851      316.622      125.034        0.075        0.030        6.944        8.804        1.607      347.497       26.510      862.865
07/01/2013  07:58:00      -20.398       -1.771       11.196       17.754       13.455       13.451      315.205      181.034      180.924        0.061        0.034       20.474       13.172        0.414      347.143       25.899      862.864
07/01/2013  07:59:00      -51.143        8.618       -1.923        8.785        7.231        6.099       77.178       52.288       37.201        0.143        0.008       51.864        1.805        0.001      346.646       25.041      862.857
07/01/2013  08:00:00      -44.393        9.116        1.045       12.623       11.125       12.149      159.341      123.765      147.600        0.124        0.022       45.319        9.331        0.042      346.734       25.194      862.841
07/01/2013  08:01:00      -26.053        7.283        0.715       11.684       10.145        7.275      136.517      102.920       52.925        0.051        0.015       27.052        2.671        0.010      346.829       25.358      862.827
07/01/2013  08:02:00      -34.062       18.627        1.794        8.967        9.390       10.131       80.399       88.180      102.642        0.089        0.014       38.823        3.783        0.009      346.834       25.367      862.826
07/01/2013  08:03:00      -34.408       -7.384       -5.448       15.758       15.555        7.696      248.313      241.954       59.221        0.091        0.027       35.191        6.082        0.030      346.814       25.332      862.828
07/01/2013  08:04:00      -27.805      -51.411       -2.553       17.879       17.131       11.362      319.655      293.463      129.102        0.208        0.037       58.448        7.078        0.015      346.858       25.407      862.834
07/01/2013  08:05:00      -29.214      -33.544        2.354       28.443       25.127       11.910      809.015      631.368      141.858        0.178        0.079       44.482       13.303        0.089      346.941       25.551      862.846
07/01/2013  08:06:00      -28.935      -18.807        3.293       11.998       13.105        8.315      143.950      171.729       69.144        0.079        0.019       34.510        5.524        0.026      346.997       25.647      862.859
07/01/2013  08:07:00      -21.160      -41.247        5.279       23.325       22.184       17.354      544.057      492.144      301.165        0.176        0.067       46.357       16.227        0.123      347.006       25.662      862.867
07/01/2013  08:08:00      -43.935      -34.176       -4.012       20.504       22.500       10.241      420.432      506.267      104.877        0.207        0.052       55.662        9.819        0.031      346.974       25.607      862.880
07/01/2013  08:09:00      -47.433      -43.437       -0.890       14.446       22.182       12.128      208.698      492.035      147.089        0.249        0.042       64.317       10.484        0.027      347.012       25.673      862.889
07/01/2013  08:10:00      -50.298      -56.688       -7.493       23.733       14.966       14.201      563.235      223.975      201.670        0.339        0.049       75.785        7.108        0.009      346.979       25.616      862.888
07/01/2013  08:11:00      -47.364      -21.310       -1.148       21.834       15.858        8.430      476.707      251.469       71.059        0.175        0.040       51.937        6.930        0.018      347.055       25.747      862.888
07/01/2013  08:12:00      -48.145      -64.986       -3.363       16.409       16.702       10.107      269.263      278.943      102.143        0.360        0.033       80.877        9.998        0.015      346.997       25.646      862.885
07/01/2013  08:13:00      -64.291      -39.368       -4.334       16.851       15.060        9.846      283.968      226.810       96.946        0.315        0.030       75.387        7.231        0.009      347.063       25.760      862.873
07/01/2013  08:14:00      -62.800      -38.712        2.278       44.514       30.967       21.346     1981.533      958.974      455.648        0.442        0.170       73.773       22.477        0.093      347.280       26.134      862.860
07/01/2013  08:15:00      -40.023     -101.988       -2.615       31.503       32.774       24.595      992.427     1074.129      604.923        0.734        0.134      109.560       16.514        0.023      347.102       25.829      862.847
07/01/2013  08:16:00      -97.430      -74.375      -13.222       42.309       43.912       20.308     1790.027     1928.299      412.421        0.966        0.207      122.573       13.460        0.012      347.069       25.772      862.835
07/01/2013  08:17:00      -74.374      -81.681      -13.514       54.499       30.184       26.056     2970.146      911.072      678.908        0.847        0.228      110.468       29.325        0.070      347.142       25.899      862.832
07/01/2013  08:18:00      -48.050      -83.499      -11.494       30.016       35.796       19.002      900.938     1281.319      361.063        0.598        0.127       96.338       16.208        0.028      347.212       26.019      862.836
07/01/2013  08:19:00      -27.616      -74.049        7.354       26.324       39.627       23.265      692.969     1570.274      541.261        0.455        0.140       79.031       21.685        0.075      347.385       26.316      862.834
07/01/2013  08:20:00      -41.901       -8.187        5.913       23.867       22.012       18.948      569.657      484.512      359.015        0.164        0.071       42.693       16.819        0.155      347.485       26.489      862.835
07/01/2013  08:21:00      -51.148      -13.181       -6.007       31.692       18.633       18.084     1004.391      347.202      327.023        0.225        0.084       52.819       14.202        0.072      347.400       26.343      862.836
07/01/2013  08:22:00      -41.948       -4.433       -2.895       22.010       32.357       16.156      484.451     1046.966      261.027        0.179        0.090       42.181        5.978        0.020      347.427       26.388      862.841
07/01/2013  08:23:00      -30.339       18.864       20.714       17.462       30.401       25.274      304.929      924.232      638.776        0.179        0.093       35.726       22.793        0.407      347.728       26.907      862.842
07/01/2013  08:24:00      -14.695       12.277       32.757       21.295       26.179       19.218      453.466      685.340      369.315        0.147        0.075       19.148       16.107        0.708      348.135       27.610      862.838
07/01/2013  08:25:00      -41.778        8.877       -2.868       30.858       16.753       17.071      952.238      280.674      291.413        0.168        0.076       42.710       10.463        0.060      347.542       26.587      862.853
07/01/2013  08:26:00      -31.180       21.316       20.842       15.537       16.726       17.038      241.394      279.745      290.281        0.134        0.041       37.770       10.701        0.080      347.760       26.963      862.857
07/01/2013  08:27:00      -16.183        6.745       45.522       18.869       28.836       21.224      356.038      831.522      450.461        0.201        0.082       17.532       14.145        0.651      348.203       27.728      862.865
07/01/2013  08:28:00        5.576       13.348       41.592       40.320       39.025       26.646     1625.676     1522.936      710.026        0.290        0.193       14.466       20.362        1.981      347.955       27.299      862.864
07/01/2013  08:29:00       26.340       -4.166       37.434       38.592       46.555       32.432     1489.379     2167.334     1051.837        0.341        0.235       26.668       27.881        1.093      347.930       27.256      862.865
07/01/2013  08:30:00       28.688        8.063       25.015       32.191       29.223       24.334     1036.272      853.998      592.127        0.200        0.124       29.799       18.364        0.380      347.853       27.123      862.869
07/01/2013  08:31:00       -7.203      -11.585       33.386       28.863       32.790       20.203      833.083     1075.177      408.161        0.181        0.116       13.642       15.101        1.225      348.064       27.489      862.867
07/01/2013  08:32:00      -36.123        9.334        2.027       30.578       17.366       15.812      935.018      301.580      250.035        0.144        0.074       37.309       14.948        0.161      347.790       27.014      862.864
07/01/2013  08:33:00      -53.066      -11.706        8.309       35.089       22.888       17.538     1231.217      523.871      307.587        0.254        0.103       54.342       15.786        0.084      347.729       26.910      862.861
07/01/2013  08:34:00      -52.060      -12.268        0.507       15.058       30.024       22.216      226.739      901.434      493.531        0.224        0.081       53.486       22.937        0.184      347.630       26.739      862.865
07/01/2013  08:35:00      -23.851        1.271        9.341       21.066       20.738       20.205      443.796      430.076      408.254        0.097        0.064       23.885       19.703        0.680      348.146       27.631      862.877
07/01/2013  08:36:00      -34.370       -5.706        9.843       30.066       19.951       19.081      903.940      398.049      364.068        0.149        0.083       34.840       23.347        0.449      348.129       27.600      862.888
07/01/2013  08:37:00      -15.164      -18.745       18.071       21.690       29.015       14.415      470.446      841.894      207.798        0.121        0.076       24.111        7.583        0.099      348.073       27.503      862.900
07/01/2013  08:38:00       27.062      -46.009       28.277       36.070       47.927       35.586     1301.034     2297.022     1266.368        0.426        0.243       53.378       27.205        0.260      348.152       27.640      862.915
07/01/2013  08:39:00        9.938       18.727       50.181       42.353       44.672       29.136     1793.749     1995.575      848.933        0.380        0.232       21.201       28.522        1.810      348.320       27.930      862.928
07/01/2013  08:40:00       -1.168       27.064       51.900       30.290       42.962       26.332      917.476     1845.708      693.359        0.344        0.173       27.089       23.428        0.748      348.238       27.788      862.936
07/01/2013  08:41:00       33.041      -81.883      -14.246       34.898       61.723       40.232     1217.882     3809.683     1618.625        0.732        0.332       88.298       26.941        0.093      348.209       27.738      862.930
07/01/2013  08:42:00       40.320      -70.258       -8.866       42.120       54.280       32.918     1774.126     2946.269     1083.608        0.622        0.290       81.006       26.191        0.105      348.092       27.535      862.924
07/01/2013  08:43:00       18.285       18.674       47.367       29.356       32.288       24.320      861.766     1042.488      591.477        0.271        0.125       26.135       11.616        0.198      348.132       27.606      862.925
07/01/2013  08:44:00       41.291       -5.482       10.230       29.243       22.558       26.047      855.168      508.862      678.434        0.194        0.102       41.653       17.469        0.176      347.510       26.533      862.917
07/01/2013  08:45:00       48.976      -67.276       -0.716       36.040       36.017       27.323     1298.881     1297.215      746.530        0.513        0.167       83.215       23.371        0.079      347.349       26.254      862.912
07/01/2013  08:46:00       15.569      -10.134       27.902       34.995       40.274       32.263     1224.642     1621.960     1040.890        0.250        0.194       18.576       27.180        2.141      347.699       26.859      862.903
07/01/2013  08:47:00       28.344       39.776       17.042       44.032       25.697       27.296     1938.850      660.341      745.073        0.301        0.167       48.841       15.677        0.103      347.691       26.845      862.908
07/01/2013  08:48:00       74.925      -54.589        6.041       59.288       62.835       51.487     3515.067     3948.213     2650.889        0.937        0.506       92.702       48.417        0.273      347.491       26.499      862.914
07/01/2013  08:49:00       73.808      -25.269       28.889       56.893       68.987       45.790     3236.865     4759.267     2096.690        0.850        0.505       78.014       47.290        0.367      347.523       26.554      862.926
07/01/2013  08:50:00       76.159      -37.649       22.016       67.143       58.711       45.609     4508.242     3446.948     2080.146        0.887        0.502       84.956       38.386        0.204      347.470       26.462      862.935
07/01/2013  08:51:00       17.586      -36.905       24.267       30.280       45.506       28.550      916.856     2070.841      815.111        0.303        0.190       40.881       18.009        0.194      347.724       26.901      862.949
07/01/2013  08:52:00       33.606      -71.089       -4.230       42.625       54.434       39.311     1816.910     2963.069     1545.379        0.626        0.316       78.632       33.151        0.178      347.811       27.050      862.956
07/01/2013  08:53:00       -9.460      -44.452        6.542       24.254       26.433       22.513      588.249      698.729      506.838        0.195        0.090       45.447        8.633        0.036      347.682       26.828      862.969
07/01/2013  08:54:00       11.156      -11.048       35.903       27.127       43.944       27.024      735.860     1931.070      730.301        0.247        0.170       15.701       26.175        2.779      347.930       27.257      862.975
07/01/2013  08:55:00      -10.484      -41.171       14.381       19.087       40.299       29.958      364.311     1623.971      897.505        0.245        0.144       42.484       20.615        0.235      347.802       27.035      862.984
07/01/2013  08:56:00       17.899      -43.589       15.684       26.415       35.151       22.394      697.752     1235.626      501.480        0.245        0.122       47.120       21.165        0.202      347.759       26.961      862.999
07/01/2013  08:57:00        2.182      -33.137       11.278       16.876       19.127       16.445      284.798      365.858      270.431        0.108        0.046       33.209       11.884        0.128      347.844       27.108      863.007
07/01/2013  08:58:00      -19.584      -14.574        9.345       18.696       16.438       14.485      349.548      270.222      209.815        0.076        0.041       24.411        8.804        0.130      347.950       27.290      863.022
07/01/2013  08:59:00       10.901      -29.522        2.144       27.411       28.812       21.976      751.388      830.155      482.946        0.153        0.103       31.470       16.557        0.277      347.866       27.146      863.024
07/01/2013  09:00:00        3.034       -6.056       16.261       21.618       29.068       18.681      467.318      844.951      348.970        0.099        0.083        6.773        9.354        1.907      348.201       27.724      863.014
07/01/2013  09:01:00      -17.054       14.425       23.245       18.344       24.957       34.764      336.498      622.857     1208.564        0.160        0.108       22.336       18.151        0.660      348.141       27.622      862.999
07/01/2013  09:02:00        0.771       29.717       48.364       34.885       35.556       30.130     1216.965     1264.241      907.847        0.331        0.169       29.727       27.941        0.883      347.964       27.313      862.984
07/01/2013  09:03:00       11.177       12.156       35.829       38.000       30.927       24.119     1443.987      956.477      581.749        0.227        0.149       16.513       25.604        2.404      347.853       27.124      862.955
07/01/2013  09:04:00       17.021      -10.632        9.193       32.730       20.341       30.105     1071.245      413.746      906.318        0.144        0.120       20.069        7.398        0.136      347.577       26.648      862.918
07/01/2013  09:05:00        9.869      -12.739       10.129       29.521       16.480       25.324      871.503      271.603      641.315        0.107        0.089       16.115       19.209        1.421      347.806       27.043      862.893
07/01/2013  09:06:00        5.202      -16.703      -15.896       23.111       18.122       14.686      534.097      328.405      215.671        0.082        0.054       17.494        2.152        0.015      347.758       26.959      862.881
07/01/2013  09:07:00       18.161      -16.410      -10.150       32.334       36.888       20.954     1045.462     1360.720      439.079        0.177        0.142       24.477       11.622        0.225      347.453       26.433      862.880
07/01/2013  09:08:00       24.738      -12.996       11.737       40.113       21.381       24.827     1609.032      457.157      616.369        0.180        0.134       27.944       16.192        0.336      347.753       26.952      862.891
07/01/2013  09:09:00       41.266      -13.187       19.273       34.656       28.544       34.238     1201.024      814.737     1172.231        0.272        0.159       43.322       16.654        0.148      347.636       26.749      862.907
07/01/2013  09:10:00       26.591      -19.368       13.677       38.997       33.299       37.491     1520.764     1108.796     1405.594        0.265        0.202       32.897       34.092        1.074      347.787       27.009      862.932
07/01/2013  09:11:00        0.115      -27.380       30.161       30.614       31.697       24.369      937.205     1004.711      593.869        0.210        0.127       27.380        8.509        0.097      348.173       27.676      862.947
07/01/2013  09:12:00       -5.938      -44.588       19.375       25.706       40.213       23.295      660.785     1617.109      542.655        0.261        0.141       44.982       22.122        0.242      348.258       27.823      862.973
07/01/2013  09:13:00       -2.365      -75.439      -16.616       26.744       40.283       26.460      715.253     1622.740      700.148        0.450        0.152       75.476       19.245        0.065      348.046       27.456      862.991
07/01/2013  09:14:00       -2.360      -45.694        3.579       33.984       31.003       24.952     1154.892      961.177      622.599        0.242        0.137       45.755       16.165        0.125      348.021       27.413      863.010
07/01/2013  09:15:00        4.817       -7.261       35.760       28.840       65.343       39.123      831.739     4269.765     1530.581        0.399        0.332        8.714       46.378       28.329      348.205       27.731      863.016
07/01/2013  09:16:00       10.048      -89.895       -8.314       44.468       35.831       26.788     1977.364     1283.863      717.573        0.611        0.199       90.455       26.043        0.083      348.020       27.412      863.013
07/01/2013  09:17:00       49.607      -74.931      -12.302       38.152       54.577       32.668     1455.545     2978.676     1067.203        0.686        0.275       89.864       36.321        0.163      348.214       27.747      863.000
07/01/2013  09:18:00       28.507      -63.209        3.671       24.722       33.019       26.467      611.170     1090.242      700.477        0.361        0.120       69.340       21.200        0.093      347.899       27.203      862.998
07/01/2013  09:19:00       41.194      -47.183        7.271       30.254       43.812       33.592      915.299     1919.462     1128.421        0.397        0.198       62.635       22.869        0.133      347.644       26.762      862.989
07/01/2013  09:20:00       34.813      -58.113       18.394       33.413       47.827       26.363     1116.446     2287.452      695.014        0.451        0.205       67.743       20.536        0.092      347.600       26.687      862.979
07/01/2013  09:21:00       -4.886      -47.588       21.230       34.703       48.901       32.384     1204.322     2391.290     1048.752        0.369        0.232       47.839       20.378        0.181      347.847       27.113      862.974
07/01/2013  09:22:00       -4.410      -41.630        6.605       27.220       24.970       24.407      740.920      623.511      595.698        0.188        0.098       41.863       16.807        0.161      347.528       26.562      862.972
07/01/2013  09:23:00       -1.928        6.696        3.040       19.287       15.269       21.760      371.973      233.129      473.511        0.057        0.054        6.968       10.196        2.141      347.946       27.284      862.985
07/01/2013  09:24:00       12.647        2.128       18.516       16.342       11.214       19.598      267.050      125.758      384.072        0.064        0.039       12.824        4.797        0.140      348.453       28.159      862.992
07/01/2013  09:25:00      -23.507       -7.453        4.498       22.395       20.446       12.695      501.550      418.040      161.168        0.085        0.054       24.660        8.369        0.115      348.177       27.684      862.987
07/01/2013  09:26:00      -36.157      -26.245        8.140       33.666       23.767       16.653     1133.386      564.893      277.327        0.202        0.099       44.678       19.894        0.198      348.266       27.838      862.978
07/01/2013  09:27:00      -53.306      -29.211       16.904       42.898       31.839       19.544     1840.213     1013.736      381.949        0.361        0.162       60.784       16.965        0.078      348.139       27.617      862.968
07/01/2013  09:28:00      -39.961      -31.649       13.630       44.763       32.828       23.246     2003.695     1077.692      540.374        0.320        0.181       50.976       22.959        0.203      348.118       27.580      862.964
07/01/2013  09:29:00      -84.524      -63.056        2.567       55.936       40.155       26.736     3128.868     1612.444      714.802        0.829        0.273      105.453       22.551        0.046      348.047       27.459      862.947
07/01/2013  09:30:00      -41.500      -34.453       19.744       44.595       30.350       22.924     1988.710      921.141      525.531        0.337        0.172       53.938       23.311        0.187      348.293       27.884      862.933
07/01/2013  09:31:00      -63.590      -41.011        3.166       28.907       25.684       18.835      835.631      659.683      354.773        0.379        0.093       75.668       14.966        0.039      348.041       27.448      862.927
07/01/2013  09:32:00      -92.765      -46.762       -9.481       21.127       28.994       14.884      446.339      840.633      221.538        0.619        0.075      103.885       12.898        0.015      347.902       27.207      862.914
07/01/2013  09:33:00      -84.215      -42.464       -1.872       17.586       25.413       14.236      309.260      645.816      202.673        0.503        0.058       94.315        9.006        0.009      347.934       27.263      862.896
07/01/2013  09:34:00      -41.087       -5.023       -3.524       13.718        9.398        7.567      188.197       88.313       57.266        0.103        0.017       41.393        5.100        0.015      347.958       27.305      862.876
07/01/2013  09:35:00      -48.666      -13.204       -1.984       16.364       10.571        9.496      267.785      111.747       90.172        0.151        0.023       50.426        6.832        0.018      348.105       27.559      862.855
07/01/2013  09:36:00      -34.092      -11.076        2.755       15.996       20.057       12.937      255.871      402.275      167.373        0.106        0.041       35.846       10.441        0.085      348.356       27.993      862.849
07/01/2013  09:37:00      -22.938      -17.411       -2.203       16.425       18.593       16.661      269.766      345.710      277.573        0.086        0.045       28.797        8.173        0.081      348.355       27.991      862.853
07/01/2013  09:38:00      -10.614      -23.608       -6.879       16.627       15.279       12.816      276.456      233.436      164.249        0.070        0.034       25.885       10.616        0.168      348.177       27.682      862.859
07/01/2013  09:39:00       -2.420      -28.552        3.265       12.759       16.202       13.389      162.796      262.507      179.278        0.072        0.030       28.655        5.546        0.037      348.352       27.987      862.865
07/01/2013  09:40:00       -9.481       -8.330       -4.358       11.132       12.272       11.281      123.919      150.604      127.254        0.029        0.020       12.621        6.926        0.301      348.548       28.324      862.867
07/01/2013  09:41:00      -44.569      -16.380        3.722       18.307       25.638       12.674      335.155      657.331      160.635        0.171        0.058       47.484       10.675        0.051      348.251       27.812      862.886
07/01/2013  09:42:00      -30.734      -38.089       -1.550       15.610       26.531       18.170      243.663      703.905      330.148        0.184        0.064       48.942       14.482        0.088      348.290       27.877      862.903
07/01/2013  09:43:00      -20.973      -12.248       10.923       20.763       17.912       20.961      431.086      320.844      439.359        0.095        0.060       24.287       16.427        0.457      349.025       29.153      862.912
07/01/2013  09:44:00      -29.254       19.250       27.608       15.667       29.504       18.955      245.461      870.472      359.274        0.173        0.074       35.020       16.063        0.210      348.756       28.686      862.919
07/01/2013  09:45:00       24.447      -20.533       37.218       41.246       41.922       31.222     1701.227     1757.481      974.787        0.342        0.222       31.926       28.601        0.803      348.889       28.916      862.925
07/01/2013  09:46:00       43.123      -62.920        3.597       36.507       39.448       27.463     1332.793     1556.116      754.216        0.474        0.182       76.279       20.397        0.072      348.653       28.506      862.939
07/01/2013  09:47:00      -13.165      -25.436       -1.306       37.414       33.644       23.819     1399.782     1131.942      567.343        0.196        0.155       28.641       23.439        0.670      348.843       28.837      862.942
07/01/2013  09:48:00      -40.775      -53.550       10.997       47.935       40.389       23.883     2297.745     1631.311      570.421        0.457        0.225       67.307       25.062        0.139      348.753       28.679      862.953
07/01/2013  09:49:00      -70.502      -30.518       -3.810       21.069       26.643       10.956      443.922      709.855      120.039        0.359        0.064       76.824       12.533        0.027      348.314       27.919      862.969
07/01/2013  09:50:00      -46.148        4.188       -0.041       22.604       30.502       24.587      510.920      930.342      604.530        0.210        0.102       46.338       22.741        0.241      348.604       28.422      862.959
07/01/2013  09:51:00      -32.593       11.539        0.574       31.428       15.226       17.293      987.745      231.831      299.034        0.136        0.076       34.576       12.430        0.129      348.748       28.672      862.964
07/01/2013  09:52:00      -34.195       15.599        4.091       22.074       20.943       26.127      487.257      438.598      682.644        0.152        0.080       37.585       15.219        0.164      348.731       28.642      862.953
07/01/2013  09:53:00      -17.559        2.064       21.412       15.198       11.902       17.498      230.980      141.655      306.191        0.072        0.034       17.680       14.005        0.627      349.320       29.663      862.957
07/01/2013  09:54:00       -9.670        6.411       33.853       22.379       31.100       18.428      500.799      967.201      339.602        0.154        0.090       11.602       18.666        2.588      349.380       29.767      862.959
07/01/2013  09:55:00      -15.405       11.951       30.249       27.820       25.299       14.858      773.953      640.026      220.765        0.146        0.082       19.497       13.636        0.489      349.683       30.292      862.958
07/01/2013  09:56:00      -39.418      -51.621        7.383       26.262       36.409       18.131      689.677     1325.624      328.733        0.331        0.117       64.950       13.791        0.045      348.703       28.591      862.965
07/01/2013  09:57:00      -31.911      -32.976        6.204       37.182       30.657       18.274     1382.478      939.831      333.932        0.240        0.133       45.889       12.264        0.071      348.871       28.885      862.967
07/01/2013  09:58:00      -30.678      -27.890       -0.456       18.571       21.867       18.200      344.872      478.173      331.227        0.144        0.058       41.461       12.891        0.097      348.783       28.730      862.974
07/01/2013  09:59:00      -18.761      -23.804        5.179       19.909       14.379       20.179      396.371      206.755      407.173        0.098        0.051       30.308       13.395        0.195      348.993       29.096      862.971
07/01/2013  10:00:00      -64.140        2.524        8.000       30.511       20.086       17.839      930.950      403.445      318.242        0.292        0.083       64.190       15.549        0.059      348.903       28.940      862.967
07/01/2013  10:01:00      -39.202       -8.681       -5.059       41.044       31.706       17.602     1684.615     1005.245      309.816        0.232        0.150       40.152       18.170        0.205      349.021       29.145      862.965
07/01/2013  10:02:00       -8.021        7.164       14.826       16.502       16.378       17.412      272.317      268.230      303.173        0.059        0.042       10.755       13.650        1.611      349.773       30.449      862.960
07/01/2013  10:03:00       23.391       10.474       28.302       24.519       13.398       15.678      601.180      179.518      245.788        0.124        0.051       25.629        6.776        0.070      349.772       30.446      862.953
07/01/2013  10:04:00       35.857       39.474       24.708       31.457       22.500       26.562      989.520      506.236      705.519        0.283        0.110       53.329       21.739        0.166      349.414       29.824      862.951
07/01/2013  10:05:00       36.076      -30.817        6.290       49.301       50.326       35.895     2430.571     2532.712     1288.464        0.427        0.313       47.446       29.545        0.388      349.136       29.342      862.944
07/01/2013  10:06:00       35.288      -12.324       37.256       50.997       47.247       49.792     2600.716     2232.315     2479.283        0.505        0.366       37.378       22.270        0.355      349.701       30.323      862.940
07/01/2013  10:07:00       88.207     -104.231        8.236       51.689       43.848       30.372     2671.777     1922.676      922.470        1.211        0.276      136.545       28.775        0.044      348.780       28.727      862.936
07/01/2013  10:08:00      -13.928       -7.239       27.732       24.759       35.489       21.975      613.005     1259.493      482.888        0.168        0.118       15.697       14.251        0.824      349.310       29.646      862.928
07/01/2013  10:09:00      109.286       78.385       39.283       49.650       28.557       33.538     2465.097      815.515     1124.788        1.202        0.220      134.491       27.951        0.043      348.954       29.026      862.924
07/01/2013  10:10:00       84.260       60.570       12.324       26.866       22.191       22.771      721.757      492.456      518.525        0.633        0.087      103.772       14.199        0.019      348.961       29.040      862.915
07/01/2013  10:11:00       31.249       22.240       -8.273       44.837       23.381       14.124     2010.384      546.682      199.489        0.215        0.138       38.356       13.812        0.130      349.025       29.151      862.902
07/01/2013  10:12:00        0.908        1.502       14.769       16.085       11.325       21.275      258.741      128.256      452.615        0.053        0.042        1.755       12.006       46.797      349.910       30.688      862.891
07/01/2013  10:13:00        6.220       10.156       23.215       14.847       15.715       13.702      220.434      246.968      187.733        0.067        0.033       11.909        7.124        0.358      350.242       31.262      862.893
07/01/2013  10:14:00       20.079       10.054       33.074       24.622       17.527       17.439      606.250      307.191      304.103        0.141        0.061       22.456        8.639        0.148      350.269       31.310      862.881
07/01/2013  10:15:00        6.989       15.821       46.014       26.958       27.870       22.917      726.755      776.726      525.177        0.222        0.101       17.296       16.796        0.943      350.446       31.617      862.884
07/01/2013  10:16:00       11.863       11.182       24.281       24.512       28.887       20.936      600.854      834.481      438.322        0.136        0.094       16.303       16.262        0.995      349.905       30.678      862.885
07/01/2013  10:17:00      -15.521       -1.663       -4.688       23.638       26.349       24.497      558.736      694.269      600.121        0.106        0.093       15.610       15.366        0.969      349.671       30.272      862.884
07/01/2013  10:18:00      -18.533       11.502       14.999       21.122       18.100       20.868      446.127      327.624      435.491        0.095        0.060       21.812       11.774        0.291      349.957       30.767      862.884
07/01/2013  10:19:00       18.630       46.294       68.802       35.152       39.558       19.484     1235.633     1564.850      379.638        0.520        0.159       49.902       14.776        0.088      349.922       30.706      862.886
07/01/2013  10:20:00       41.566       56.222       20.911       39.036       50.226       34.252     1523.799     2522.656     1173.174        0.527        0.261       69.918       25.108        0.129      349.661       30.254      862.885
07/01/2013  10:21:00        4.437       17.090       38.479       27.698       27.096       20.192      767.153      734.207      407.712        0.185        0.095       17.656       10.907        0.382      350.379       31.501      862.885
07/01/2013  10:22:00        8.306       67.275       24.432       29.386       46.735       27.422      863.520     2184.180      751.982        0.450        0.190       67.786       29.573        0.190      349.918       30.700      862.888
07/01/2013  10:23:00       -1.417       43.302       29.678       23.286       45.453       25.526      542.250     2065.971      651.574        0.301        0.163       43.326       19.172        0.196      350.406       31.547      862.892
07/01/2013  10:24:00      -21.331       20.139       12.940       40.132       31.960       28.103     1610.611     1021.413      789.775        0.222        0.171       29.336       19.313        0.433      350.157       31.114      862.898
07/01/2013  10:25:00      -17.605       -5.010       13.034       18.314       20.083       16.100      335.418      403.307      259.223        0.075        0.050       18.304        8.743        0.228      350.004       30.847      862.894
07/01/2013  10:26:00      -12.416      -44.847        2.077       23.399       25.026       21.140      547.509      626.320      446.910        0.189        0.081       46.534       13.537        0.085      349.534       30.033      862.896
07/01/2013  10:27:00        1.946      -14.504       10.841       18.870       14.085       16.574      356.075      198.391      274.696        0.058        0.041       14.634        5.156        0.124      349.930       30.721      862.893
07/01/2013  10:28:00      -22.905      -24.365      -15.122       22.120       17.221        7.888      489.293      296.580       62.214        0.110        0.042       33.441        6.629        0.039      349.593       30.135      862.883
07/01/2013  10:29:00      -34.121        2.330        0.544       25.068       17.238       18.958      628.419      297.148      359.415        0.123        0.064       34.201       15.522        0.206      349.821       30.533      862.875
07/01/2013  10:30:00      -50.211      -14.510        3.074       20.993       20.451       20.354      440.722      418.231      414.294        0.201        0.064       52.266       11.482        0.048      349.673       30.274      862.857
07/01/2013  10:31:00      -33.884       -9.595       -5.230       14.390       16.136       10.528      207.075      260.373      110.843        0.092        0.029       35.216        7.776        0.049      349.651       30.235      862.847
07/01/2013  10:32:00      -18.371      -12.737        9.238       21.028       23.225       17.061      442.196      539.385      291.090        0.093        0.064       22.354       15.860        0.503      350.268       31.308      862.834
07/01/2013  10:33:00      -73.294      -26.336        5.815       25.561       26.685       16.458      653.345      712.115      270.862        0.387        0.082       77.882       12.962        0.028      349.741       30.393      862.816
07/01/2013  10:34:00      -56.951      -32.226       -3.861       44.955       32.277       22.180     2020.914     1041.814      491.960        0.393        0.178       65.437       13.239        0.041      349.751       30.408      862.805
07/01/2013  10:35:00      -63.092      -49.165       19.400       73.288       48.074       33.402     5371.157     2311.155     1115.702        0.778        0.440       79.986       41.393        0.268      350.228       31.238      862.784
07/01/2013  10:36:00      -79.198      -50.790       -2.188       23.713       37.096       19.801      562.296     1376.078      392.078        0.559        0.117       94.085       15.352        0.027      349.487       29.951      862.776
07/01/2013  10:37:00      -76.981        6.757       -3.175       29.506       29.071       18.236      870.627      845.147      332.556        0.401        0.102       77.277       13.011        0.028      349.733       30.377      862.769
07/01/2013  10:38:00     -103.945        9.735       -9.974       21.580       26.359       14.792      465.684      694.793      218.794        0.619        0.069      104.400        7.528        0.005      349.594       30.136      862.754
07/01/2013  10:39:00      -79.046        0.364      -19.765       17.273       18.079        9.402      298.353      326.848       88.405        0.368        0.036       79.047        4.247        0.003      349.586       30.122      862.746
07/01/2013  10:40:00       19.361       -4.187        7.544       34.354       18.183       27.826     1180.232      330.625      774.259        0.137        0.114       19.809       25.423        1.647      350.000       30.840      862.743
07/01/2013  10:41:00      -60.569       19.776        5.454       45.966       27.739       25.338     2112.901      769.477      642.021        0.381        0.176       63.715       28.385        0.198      350.134       31.074      862.728
07/01/2013  10:42:00     -103.476       16.726      -13.915       31.027       27.766       14.458      962.666      770.928      209.030        0.656        0.097      104.819       12.732        0.015      349.675       30.282      862.731
07/01/2013  10:43:00      -38.519       -1.577        3.656       26.214       17.480       20.951      687.192      305.536      438.934        0.147        0.072       38.551       17.993        0.218      350.129       31.067      862.728
07/01/2013  10:44:00      -16.981       -9.751        1.653       13.563       13.350       15.201      183.944      178.213      231.060        0.049        0.030       19.581        9.997        0.261      350.072       30.966      862.722
07/01/2013  10:45:00       27.358        3.687       35.429       31.701       22.964       16.939     1004.951      527.352      286.940        0.192        0.091       27.605       11.542        0.175      350.464       31.650      862.723
07/01/2013  10:46:00       16.156       13.085       26.364       24.364       26.588       24.763      593.613      706.916      613.185        0.152        0.096       20.790       16.121        0.601      350.405       31.547      862.708
07/01/2013  10:47:00       18.681      -13.256        0.404       21.382       32.074       20.284      457.189     1028.762      411.422        0.121        0.095       22.907       19.245        0.706      349.949       30.755      862.697
07/01/2013  10:48:00      -18.197       -1.481       14.805       18.487        9.883       14.955      341.768       97.669      223.643        0.061        0.033       18.257       13.604        0.555      350.751       32.149      862.690
07/01/2013  10:49:00      -34.066       20.468       29.988       32.262       25.321       26.038     1040.831      641.174      677.968        0.242        0.118       39.742       22.153        0.311      350.945       32.486      862.685
07/01/2013  10:50:00      -42.815      -31.939       25.000       31.035       46.703       28.906      963.198     2181.196      835.571        0.373        0.199       53.416       31.080        0.339      350.279       31.326      862.681
07/01/2013  10:51:00       -4.902      -47.839        4.797       12.919       25.343        9.890      166.890      642.289       97.802        0.162        0.045       48.089        8.447        0.031      350.056       30.939      862.659
07/01/2013  10:52:00      -20.133       82.219        4.992       36.101       49.604       29.140     1303.284     2460.529      849.114        0.590        0.231       84.648       32.201        0.145      350.379       31.500      862.660
07/01/2013  10:53:00       30.469       34.027       13.510       23.949       24.382       28.950      573.541      594.506      838.096        0.214        0.100       45.675       14.118        0.096      350.481       31.679      862.662
07/01/2013  10:54:00       31.850      -48.986       -6.823       33.463       31.763       22.669     1119.754     1008.883      513.884        0.305        0.132       58.430       14.753        0.064      349.861       30.600      862.657
07/01/2013  10:55:00      -20.320      -26.773       13.143       45.254       24.207       28.029     2047.902      586.002      785.608        0.236        0.171       33.611       19.790        0.347      350.372       31.488      862.670
07/01/2013  10:56:00      -53.897       -8.210       14.088       38.704       32.134       17.627     1498.030     1032.623      310.723        0.301        0.142       54.518       17.234        0.100      350.685       32.033      862.666
07/01/2013  10:57:00      -28.668       35.633        8.627       40.393       41.837       23.402     1631.581     1750.368      547.655        0.305        0.196       45.734       19.967        0.191      350.906       32.417      862.669
07/01/2013  10:58:00       23.236       27.978       12.816       21.529       17.984       22.577      463.482      323.414      509.735        0.139        0.065       36.368       17.368        0.228      350.977       32.543      862.671
07/01/2013  10:59:00      -28.144      -26.692        4.731       63.879       50.201       26.287     4080.508     2520.095      691.018        0.441        0.365       38.789       26.984        0.484      350.542       31.784      862.662
07/01/2013  11:00:00      -46.824       -1.915       20.486       51.232       35.243       28.033     2624.671     1242.067      785.868        0.363        0.233       46.863       32.579        0.483      351.088       32.735      862.664
07/01/2013  11:01:00      -83.272      -24.984        1.454       26.973       27.390       15.487      727.543      750.238      239.832        0.464        0.086       86.940       10.950        0.016      350.578       31.848      862.655
07/01/2013  11:02:00      -41.258      -18.628       -0.074       32.380       44.811       14.309     1048.436     2007.999      204.752        0.265        0.163       45.268        8.711        0.037      350.408       31.550      862.661
07/01/2013  11:03:00      -48.707       56.576        2.770       39.565       32.196       28.212     1565.423     1036.604      795.895        0.449        0.170       74.654       27.704        0.138      350.825       32.277      862.657
07/01/2013  11:04:00      -56.884        2.981      -12.214       20.971       29.625       18.875      439.784      877.663      356.252        0.253        0.084       56.962        8.243        0.021      350.621       31.921      862.654
07/01/2013  11:05:00       17.013       -6.127        2.760       29.852       17.621       24.621      891.156      310.493      606.170        0.107        0.090       18.082       19.650        1.181      350.751       32.148      862.659
07/01/2013  11:06:00       43.582      -34.756       13.844       43.611       48.771       29.290     1901.901     2378.581      857.877        0.422        0.257       55.743       35.493        0.405      350.760       32.166      862.648
07/01/2013  11:07:00       30.529      -43.838       -6.421       25.236       30.267       26.330      636.863      916.104      693.247        0.257        0.112       53.421       25.149        0.222      350.577       31.843      862.644
07/01/2013  11:08:00       15.252      -51.208       -0.030       32.690       38.478       31.718     1068.636     1480.546     1006.041        0.320        0.178       53.432       20.736        0.151      350.769       32.178      862.626
07/01/2013  11:09:00      -28.213      -14.033        3.541       22.003       29.834       17.967      484.118      890.060      322.807        0.135        0.085       31.510       13.378        0.180      350.758       32.160      862.616
07/01/2013  11:10:00      -87.193        7.658       -9.107       27.881       28.045       16.939      777.330      786.533      286.920        0.480        0.093       87.528       11.197        0.016      350.525       31.755      862.609
07/01/2013  11:11:00      -79.904        5.719        2.891       28.610       31.835       18.765      818.551     1013.476      352.121        0.430        0.109       80.108        7.065        0.008      350.562       31.818      862.589
07/01/2013  11:12:00      -18.509      -51.378       -6.819       19.888       18.349       14.628      395.515      336.694      213.981        0.199        0.047       54.611        8.653        0.025      350.658       31.986      862.580
07/01/2013  11:13:00       14.573      -29.784       27.314       18.074       31.402       19.040      326.677      986.058      362.530        0.176        0.084       33.158       16.490        0.247      351.254       33.024      862.565
07/01/2013  11:14:00        3.048       12.747       16.084       32.116       23.027       26.940     1031.425      530.235      725.788        0.136        0.114       13.106       25.008        3.641      351.333       33.162      862.559
07/01/2013  11:15:00       25.160      -18.654       19.947       18.332       22.349       21.578      336.062      499.495      465.603        0.134        0.065       31.321       15.865        0.257      351.096       32.749      862.554
07/01/2013  11:16:00       15.443       38.246       15.088       16.569       28.422       24.218      274.542      807.787      586.499        0.180        0.083       41.246       18.895        0.210      351.040       32.650      862.550
07/01/2013  11:17:00       13.652       21.227       26.464       15.063       18.241       11.744      226.901      332.731      137.916        0.102        0.035       25.238        7.547        0.089      351.470       33.401      862.532
07/01/2013  11:18:00       34.013       19.622       26.136       38.205       26.740       22.690     1459.648      715.039      514.818        0.246        0.134       39.267       19.072        0.236      350.942       32.481      862.520
07/01/2013  11:19:00       30.423        2.938        6.012       43.820       20.381       27.537     1920.200      415.371      758.307        0.203        0.155       30.564       17.189        0.316      350.554       31.807      862.505
07/01/2013  11:20:00       -7.193       15.408       24.980       18.644       24.462       27.063      347.587      598.403      732.395        0.130        0.084       17.004        9.587        0.318      351.416       33.307      862.485
07/01/2013  11:21:00       -1.636       27.041       63.434       17.546       33.426       22.481      307.863     1117.266      505.382        0.334        0.097       27.090       23.495        0.752      351.265       33.043      862.474
07/01/2013  11:22:00      -20.710      -43.984        0.540       21.029       27.534       20.305      442.229      758.124      412.296        0.199        0.081       48.616        7.223        0.022      351.069       32.701      862.456
07/01/2013  11:23:00        6.767      -33.787       13.205       46.348       56.159       19.175     2148.098     3153.852      367.679        0.351        0.283       34.458       26.425        0.588      351.046       32.661      862.456
07/01/2013  11:24:00        8.107      -45.809       38.733       27.615       50.740       25.411      762.609     2574.518      645.718        0.382        0.199       46.521       20.802        0.200      351.573       33.581      862.437
07/01/2013  11:25:00       57.786        6.378       30.236       46.575       25.855       32.318     2169.198      668.497     1044.485        0.409        0.194       58.136       28.742        0.244      350.890       32.391      862.440
07/01/2013  11:26:00       26.547      -21.903       16.941       20.100       20.487       23.642      404.011      419.726      558.927        0.143        0.069       34.416       13.550        0.155      350.641       31.957      862.425
07/01/2013  11:27:00       24.932        7.004       18.732       32.914       25.941       34.105     1083.303      672.915     1163.183        0.197        0.146       25.897       25.497        0.969      350.666       32.001      862.423
07/01/2013  11:28:00      -10.423      -24.374       -2.700       20.027       27.533       12.727      401.083      758.061      161.989        0.102        0.066       26.509       12.066        0.207      350.737       32.123      862.410
07/01/2013  11:29:00        4.445      -19.058       11.201       14.089       21.105       27.609      198.499      445.420      762.240        0.096        0.070       19.570       21.101        1.163      351.606       33.637      862.411
07/01/2013  11:30:00        2.505        7.065       26.935       31.889       32.886       31.737     1016.916     1081.470     1007.260        0.194        0.155        7.496       19.531        6.788      351.777       33.937      862.394
07/01/2013  11:31:00        8.983       11.321       48.423       37.442       43.752       29.356     1401.936     1914.205      861.792        0.336        0.209       14.452       31.135        4.641      351.901       34.154      862.387
07/01/2013  11:32:00       31.008      -46.383        8.649       42.675       46.572       31.194     1821.152     2168.934      973.081        0.407        0.248       55.793       34.180        0.375      351.554       33.549      862.390
07/01/2013  11:33:00       12.348       23.126       41.896       28.719       25.032       22.884      824.775      626.576      523.657        0.221        0.099       26.216       22.133        0.713      351.710       33.821      862.388
07/01/2013  11:34:00       11.575        6.277       35.522       20.147       15.074       10.919      405.901      227.233      119.226        0.109        0.038       13.167        6.149        0.218      351.614       33.653      862.391
07/01/2013  11:35:00        0.479      -37.652       -1.645       35.725       47.734       38.919     1276.292     2278.566     1514.706        0.324        0.253       37.655       24.100        0.410      351.273       33.056      862.378
07/01/2013  11:36:00       -0.843      -29.179       15.184       31.672       38.887       33.285     1003.107     1512.189     1107.915        0.235        0.181       29.192       24.497        0.704      351.952       34.241      862.377
07/01/2013  11:37:00      -43.750      -14.095       23.478       32.946       47.404       26.575     1085.459     2247.165      706.240        0.335        0.202       45.964       27.891        0.368      351.631       33.683      862.369
07/01/2013  11:38:00       11.227        4.027       28.525       44.770       36.534       30.092     2004.354     1334.734      905.527        0.260        0.212       11.928       21.978        3.395      351.402       33.283      862.366
07/01/2013  11:39:00      -21.085      -66.330       51.376       38.038       57.885       35.362     1446.881     3350.633     1250.454        0.676        0.302       69.601       22.409        0.104      351.641       33.698      862.350
07/01/2013  11:40:00      -13.392      -29.307       42.473       42.119       61.663       30.281     1774.040     3802.293      916.931        0.467        0.325       32.222       15.312        0.226      351.960       34.255      862.346
07/01/2013  11:41:00       -2.241       -2.189       32.859       34.388       39.714       30.393     1182.541     1577.241      923.712        0.239        0.184        3.133       18.519       34.948      351.845       34.054      862.347
07/01/2013  11:42:00       11.112       23.818       43.964       31.590       42.854       31.868      997.943     1836.490     1015.560        0.324        0.192       26.283       18.786        0.511      351.561       33.560      862.334
07/01/2013  11:43:00       58.501      -52.309       18.136       47.222       72.459       44.802     2229.893     5250.351     2007.253        0.799        0.474       78.477       45.662        0.339      351.496       33.446      862.314
07/01/2013  11:44:00        1.846      -16.699       35.285       28.384       52.255       30.426      805.675     2730.582      925.734        0.299        0.223       16.801       26.902        2.564      352.023       34.365      862.306
07/01/2013  11:45:00      -31.249      -44.982       12.039       32.904       40.811       41.593     1082.696     1665.502     1729.979        0.381        0.224       54.772       21.976        0.161      351.924       34.193      862.302
07/01/2013  11:46:00       37.233      -85.115        7.702       51.376       50.051       37.501     2639.466     2505.063     1406.331        0.762        0.328       92.902       31.124        0.112      351.560       33.557      862.298
07/01/2013  11:47:00       11.929       -0.331       31.132       24.155       27.582       26.646      583.480      760.742      710.027        0.158        0.103       11.934       17.121        2.058      352.013       34.349      862.300
07/01/2013  11:48:00       -6.742      -12.580       12.130       27.973       23.899       18.812      782.503      571.140      353.885        0.103        0.085       14.273       18.608        1.700      351.811       33.995      862.301
07/01/2013  11:49:00        8.072       -8.611       -1.891       24.755       40.690       27.324      612.824     1655.670      746.578        0.158        0.151       11.803       24.534        4.321      351.464       33.392      862.302
07/01/2013  11:50:00       -6.633        0.303       30.122       25.172       40.129       29.622      633.650     1610.364      877.466        0.204        0.156        6.640       32.316       23.684      351.338       33.171      862.296
07/01/2013  11:51:00       20.786        9.750       25.661       23.893       23.072       27.048      570.869      532.302      731.611        0.151        0.092       22.959       11.809        0.265      351.228       32.979      862.306
07/01/2013  11:52:00        4.098       26.156      -15.198       30.634       18.299       21.038      938.457      334.837      442.600        0.132        0.086       26.476       10.320        0.152      351.308       33.118      862.303
07/01/2013  11:53:00       35.425       24.081        4.349       21.126       14.868       20.116      446.292      221.062      404.662        0.146        0.054       42.835       11.258        0.069      351.429       33.329      862.281
07/01/2013  11:54:00       -8.789       17.846       24.986       17.909       17.574       25.230      320.736      308.830      636.573        0.114        0.063       19.893       13.843        0.484      351.595       33.620      862.283
07/01/2013  11:55:00      -35.289       78.604        0.263       34.279       53.914       28.712     1175.060     2906.669      824.360        0.616        0.245       86.162       18.752        0.047      351.724       33.843      862.272
07/01/2013  11:56:00      -20.929       40.242       17.086       16.509       31.217       26.798      272.557      974.492      718.138        0.216        0.098       45.359       21.766        0.230      352.523       35.241      862.276
07/01/2013  11:57:00       -9.582       15.273       20.114       26.047       18.085       19.570      678.455      327.061      382.968        0.106        0.069       18.030       16.483        0.836      352.543       35.275      862.271
07/01/2013  11:58:00      -97.298       43.510       -9.768       33.637       43.152       22.617     1131.476     1862.072      511.549        0.748        0.175      106.583       22.916        0.046      351.599       33.626      862.275
07/01/2013  11:59:00      -77.293       46.060      -15.639       31.026       22.833       20.871      962.590      521.353      435.602        0.513        0.096       89.977       16.862        0.035      351.576       33.584      862.272
07/01/2013  12:00:00       -2.920       56.422       19.509       20.300       34.658       26.753      412.091     1201.207      715.707        0.295        0.116       56.498       17.268        0.093      352.589       35.356      862.265
07/01/2013  12:01:00      -29.289       24.970       18.289       27.398       22.394       28.318      750.667      501.509      801.937        0.193        0.103       38.488       22.461        0.341      352.535       35.261      862.269
07/01/2013  12:02:00      -13.307        1.404       13.569       25.374       25.106       24.739      643.837      630.288      612.030        0.112        0.094       13.381       17.170        1.647      352.304       34.856      862.264
07/01/2013  12:03:00      -60.238       92.170       -0.484       39.514       54.450       34.638     1561.393     2964.792     1199.775        0.892        0.286      110.108       21.577        0.038      351.996       34.318      862.273
07/01/2013  12:04:00       -2.215       87.489        7.405       27.986       56.587       32.917      783.220     3202.069     1083.558        0.639        0.253       87.517       36.715        0.176      352.398       35.022      862.263
07/01/2013  12:05:00       19.989      109.987       -5.008       49.107       52.244       40.091     2411.478     2729.432     1607.275        0.963        0.337      111.788       34.147        0.093      352.206       34.686      862.258
07/01/2013  12:06:00       20.795       69.376       12.847       34.192       44.966       35.764     1169.071     2021.953     1279.054        0.494        0.224       72.425       28.879        0.159      352.216       34.703      862.264
07/01/2013  12:07:00       18.435       31.484       14.506       31.909       31.744       30.473     1018.174     1007.661      928.587        0.225        0.148       36.484        9.186        0.063      352.299       34.849      862.255
07/01/2013  12:08:00       25.974       72.143        9.003       42.820       48.539       29.869     1833.517     2356.004      892.153        0.552        0.254       76.676       26.215        0.117      352.132       34.556      862.262
07/01/2013  12:09:00       -0.162       31.175       18.903       21.033       42.916       29.889      442.391     1841.792      893.342        0.225        0.159       31.175       26.727        0.735      352.705       35.559      862.258
07/01/2013  12:10:00        1.359       18.596       40.422       16.762       22.732       13.821      280.971      516.736      191.006        0.148        0.049       18.645        8.340        0.200      352.694       35.540      862.262
07/01/2013  12:11:00        0.587       12.709       37.798       17.237       36.469       17.985      297.105     1329.975      323.461        0.177        0.098       12.723       19.083        2.250      352.409       35.043      862.251
07/01/2013  12:12:00       23.350       -8.072       23.672       29.141       40.015       29.741      849.180     1601.199      884.514        0.225        0.167       24.706       28.336        1.315      352.188       34.655      862.262
07/01/2013  12:13:00       70.752       -6.067       31.286       39.122       43.989       42.556     1530.513     1935.002     1811.033        0.565        0.264       71.012       38.956        0.301      351.589       33.610      862.260
07/01/2013  12:14:00        5.442        1.994       31.520       41.406       34.438       35.940     1714.495     1185.973     1291.699        0.261        0.210        5.796       21.780       14.122      352.148       34.584      862.261
07/01/2013  12:15:00        9.254      -53.959        0.101       36.025       58.121       36.367     1297.772     3378.017     1322.586        0.450        0.300       54.747       16.699        0.093      352.054       34.420      862.253
07/01/2013  12:16:00       11.107      -42.873        8.653       38.883       52.152       45.368     1511.880     2719.801     2058.277        0.416        0.314       44.289       31.611        0.509      352.197       34.671      862.251
07/01/2013  12:17:00       39.580        7.070       45.573       55.118       44.640       29.366     3038.032     1992.732      862.341        0.479        0.295       40.206       33.413        0.691      352.113       34.523      862.230
07/01/2013  12:18:00       34.121      -28.617       33.782       35.650       52.767       37.793     1270.947     2784.344     1428.324        0.430        0.274       44.533       25.942        0.339      352.054       34.421      862.219
07/01/2013  12:19:00       76.319      -50.958       27.505       54.961       49.351       36.666     3020.679     2435.544     1344.426        0.799        0.340       91.768       37.110        0.164      352.024       34.367      862.210
07/01/2013  12:20:00       25.119        9.376       37.117       54.823       52.260       29.984     3005.544     2731.159      899.061        0.436        0.332       26.812       38.325        2.043      351.987       34.304      862.211
07/01/2013  12:21:00      -29.000        8.347        1.962       40.907       27.097       34.032     1673.380      734.237     1158.192        0.224        0.178       30.177       30.648        1.031      352.074       34.456      862.193
07/01/2013  12:22:00      -17.905      -42.021       18.389       28.820       31.966       27.889      830.621     1021.845      777.816        0.253        0.132       45.677       17.118        0.140      352.406       35.035      862.191
07/01/2013  12:23:00      -21.499     -108.909        2.039       41.255       29.971       31.985     1701.953      898.280     1023.034        0.797        0.181      111.011       20.877        0.035      351.974       34.281      862.180
07/01/2013  12:24:00        3.057      -66.234       10.581       32.468       68.680       41.263     1054.150     4716.958     1702.660        0.599        0.374       66.305       42.162        0.404      352.210       34.693      862.172
07/01/2013  12:25:00       -8.892       -2.084       31.998       18.482       25.571       28.144      341.593      653.862      792.087        0.145        0.089        9.133       17.549        3.692      352.746       35.631      862.161
07/01/2013  12:26:00      -19.853        5.398       19.047       17.641       21.239       23.536      311.222      451.097      553.932        0.105        0.066       20.574       12.939        0.396      352.960       36.004      862.171
07/01/2013  12:27:00      -15.057       -5.644       -0.532       34.760       41.202       20.015     1208.268     1697.644      400.603        0.178        0.165       16.080       19.454        1.464      352.530       35.252      862.162
07/01/2013  12:28:00       49.070     -117.655       -6.548       51.906       42.579       29.976     2694.226     1812.995      898.569        1.085        0.270      127.478       21.407        0.028      352.098       34.497      862.160
07/01/2013  12:29:00       29.883     -125.450        7.439       52.696       61.452       61.220     2776.861     3776.360     3747.833        1.349        0.515      128.960       39.858        0.096      352.256       34.773      862.144
07/01/2013  12:30:00       26.902       28.740       60.768       50.581       52.112       41.201     2558.439     2715.698     1697.529        0.611        0.349       39.366       33.907        0.742      352.406       35.035      862.160
07/01/2013  12:31:00       61.640      -37.033       24.721       32.474       41.619       35.247     1054.554     1732.182     1242.357        0.490        0.201       71.910       28.522        0.157      352.116       34.528      862.158
07/01/2013  12:32:00       79.010      -14.586       23.715       68.574       35.405       45.203     4702.447     1253.536     2043.314        0.751        0.400       80.345       34.177        0.181      351.638       33.695      862.158
07/01/2013  12:33:00       58.790       41.194       20.591       29.178       37.209       45.615      851.365     1384.527     2080.764        0.495        0.216       71.786       35.223        0.241      351.440       33.349      862.154
07/01/2013  12:34:00       16.143       30.212       -2.768       24.867       31.481       21.539      618.388      991.051      463.915        0.163        0.104       34.254       18.477        0.291      352.318       34.881      862.154
07/01/2013  12:35:00      121.872       41.966       26.882       70.706       50.579       47.116     4999.381     2558.278     2219.921        1.356        0.489      128.895       37.142        0.083      352.322       34.888      862.145
07/01/2013  12:36:00      132.676       69.510       37.834       42.124       39.858       46.410     1774.428     1588.662     2153.864        1.469        0.276      149.782       26.588        0.032      352.001       34.327      862.142
07/01/2013  12:37:00      113.087       78.505        9.180       41.822       30.924       34.660     1749.060      956.278     1201.342        1.147        0.195      137.665       17.465        0.016      352.119       34.534      862.146
07/01/2013  12:38:00       94.639       61.558       16.496       29.796       31.188       24.715      887.807      972.664      610.823        0.774        0.124      112.897       11.639        0.011      351.956       34.249      862.144
07/01/2013  12:39:00       60.095       39.456       20.994       45.401       31.240       23.792     2061.252      975.923      566.073        0.461        0.180       71.890       18.069        0.063      352.180       34.642      862.150
07/01/2013  12:40:00       16.191       16.518        3.172       35.638       41.349       28.865     1270.049     1709.735      833.191        0.218        0.191       23.130       19.039        0.678      352.621       35.412      862.133
07/01/2013  12:41:00        7.288      -27.913       -5.526       25.396       27.493       22.603      644.975      755.874      510.880        0.139        0.096       28.849        7.054        0.060      351.734       33.861      862.134
07/01/2013  12:42:00        4.775        4.194       15.946       52.921       67.734       51.920     2800.665     4587.845     2695.695        0.519        0.504        6.356       44.971       50.063      352.058       34.429      862.126
07/01/2013  12:43:00      -72.179      -24.610       20.700       58.191       83.721       52.585     3386.170     7009.256     2765.186        0.970        0.658       76.259       53.744        0.497      352.449       35.111      862.123
07/01/2013  12:44:00       -6.966        5.640       27.665       40.595       29.440       25.547     1647.948      866.709      652.656        0.201        0.158        8.963       19.316        4.644      352.448       35.110      862.127
07/01/2013  12:45:00      -30.331        4.228       25.664       39.257       41.400       38.370     1541.077     1713.963     1472.284        0.316        0.236       30.624       29.061        0.901      352.916       35.928      862.107
07/01/2013  12:46:00       31.387       20.919       80.437       80.581       79.015       59.109     6493.267     6243.423     3493.865        1.206        0.812       37.719       58.780        2.428      352.810       35.742      862.101
07/01/2013  12:47:00       38.741      -73.477        2.906       40.448       48.100       46.605     1636.067     2313.599     2172.008        0.651        0.306       83.064       36.646        0.195      352.629       35.426      862.098
07/01/2013  12:48:00       43.687      -99.046       -2.143       46.628       51.257       40.214     2174.125     2627.325     1617.141        0.907        0.321      108.253       25.427        0.055      352.292       34.838      862.078
07/01/2013  12:49:00       78.716      -32.635       16.252       50.972       43.476       37.574     2598.141     1890.153     1411.808        0.671        0.295       85.213       32.111        0.142      351.924       34.194      862.069
07/01/2013  12:50:00       28.964      -40.221       21.603       47.714       50.422       25.429     2276.647     2542.335      646.645        0.419        0.273       49.564       24.507        0.244      352.440       35.096      862.051
07/01/2013  12:51:00      -51.840      -37.698       19.608       94.077       70.832       43.411     8850.491     5017.197     1884.504        1.012        0.788       64.098       45.655        0.507      352.920       35.937      862.044
07/01/2013  12:52:00     -203.938     -138.766       -3.934       80.586       53.024       50.038     6494.129     2811.511     2503.842        3.633        0.590      246.671       40.879        0.027      352.388       35.000      862.040
07/01/2013  12:53:00     -170.843      -50.743       10.615       76.924       66.922       32.771     5917.251     4478.503     1073.913        2.167        0.573      178.220       39.559        0.049      352.496       35.191      862.032
07/01/2013  12:54:00     -127.780      -13.002        7.256       73.271       67.340       37.845     5368.643     4534.630     1432.263        1.394        0.567      128.440       37.371        0.085      352.561       35.307      862.019
07/01/2013  12:55:00      -51.383      -38.499       13.867       49.401       50.333       25.402     2440.453     2533.380      645.281        0.497        0.281       64.206       25.670        0.160      352.662       35.484      862.016
07/01/2013  12:56:00      -39.482      -14.520       18.611       37.060       41.560       24.454     1373.452     1727.260      597.984        0.291        0.185       42.067       20.974        0.249      352.763       35.660      862.015
07/01/2013  12:57:00        1.326       59.663       12.033       43.986       35.567       30.099     1934.729     1265.010      905.974        0.391        0.205       59.678        6.722        0.013      352.141       34.574      862.019
07/01/2013  12:58:00       -4.429       65.922       24.380       48.007       41.917       41.480     2304.714     1756.997     1720.608        0.537        0.289       66.070       15.546        0.055      352.131       34.556      862.019
07/01/2013  12:59:00        3.667       72.293        4.568       36.851       49.557       21.107     1357.971     2455.891      445.485        0.476        0.213       72.386       15.854        0.048      352.494       35.190      862.006
07/01/2013  13:00:00        5.252       62.554       16.225       31.242       41.665       28.476      976.060     1735.939      810.891        0.386        0.176       62.774       23.594        0.141      352.902       35.903      861.999
07/01/2013  13:01:00        9.693       39.114        8.460       26.703       34.548       26.310      713.061     1193.563      692.225        0.215        0.130       40.297       21.457        0.284      353.043       36.151      861.993
07/01/2013  13:02:00       15.861       13.077       41.017       31.007       23.015       20.938      961.424      529.684      438.396        0.202        0.096       20.557       14.060        0.468      353.568       37.072      861.992
07/01/2013  13:03:00       61.109        6.884       28.364       47.721       30.208       31.684     2277.263      912.503     1003.849        0.439        0.210       61.496       27.677        0.203      352.165       34.616      861.970
07/01/2013  13:04:00      119.779       56.235       12.421       62.751       60.326       37.885     3937.642     3639.171     1435.270        1.334        0.451      132.323       26.034        0.039      352.017       34.357      861.957
07/01/2013  13:05:00      105.066       75.709        7.132       44.761       52.449       42.634     2003.509     2750.918     1817.650        1.170        0.329      129.502       20.864        0.026      352.896       35.892      861.956
07/01/2013  13:06:00       59.221       51.488       38.408       66.161       73.428       45.492     4377.290     5391.664     2069.518        0.973        0.592       78.474       27.796        0.125      353.200       36.425      861.932
07/01/2013  13:07:00      117.036       93.328       53.171       63.494       73.430       56.086     4031.493     5391.951     3145.684        1.890        0.628      149.691       41.168        0.076      352.953       35.992      861.937
07/01/2013  13:08:00      175.826      114.377       60.645       68.657       52.336       62.987     4713.847     2739.011     3967.390        2.955        0.571      209.754       41.985        0.040      352.423       35.060      861.955
07/01/2013  13:09:00      189.506      118.079       30.992       71.268       40.318       46.978     5079.176     1625.514     2206.939        2.986        0.446      223.283       16.434        0.005      352.720       35.581      861.951
07/01/2013  13:10:00       56.876       82.125       58.175       72.481       70.183       65.569     5253.552     4925.616     4299.307        1.392        0.724       99.897       30.863        0.095      352.915       35.926      861.969
07/01/2013  13:11:00       38.986      -24.186        5.043       45.502       51.991       36.902     2070.422     2703.097     1361.776        0.413        0.307       45.878       33.095        0.520      352.117       34.532      861.970
07/01/2013  13:12:00      -20.004      -73.248       -2.267       25.589       28.187       21.684      654.785      794.492      470.201        0.384        0.096       75.930       15.394        0.041      352.400       35.025      861.954
07/01/2013  13:13:00        9.348       15.112       39.642       28.702       38.283       31.278      823.786     1465.555      978.305        0.258        0.163       17.770       31.185        3.080      352.573       35.327      861.945
07/01/2013  13:14:00       41.792       -8.427       22.364       45.927       38.847       27.062     2109.251     1509.090      732.363        0.333        0.218       42.634       28.634        0.451      351.992       34.313      861.942
07/01/2013  13:15:00       83.297      -34.926       18.371       67.162       70.923       50.206     4510.784     5030.006     2520.597        1.028        0.603       90.323       58.463        0.419      351.663       33.738      861.921
07/01/2013  13:16:00       28.493      -15.809       57.524       42.701       57.363       45.123     1823.402     3290.528     2036.098        0.576        0.358       32.585       27.684        0.722      352.553       35.293      861.908
07/01/2013  13:17:00       47.788       64.497       48.669       55.692       34.949       31.710     3101.560     1221.464     1005.509        0.707        0.266       80.272       33.895        0.178      352.414       35.049      861.916
07/01/2013  13:18:00      148.645       91.401       19.875      105.332       48.204       42.519    11094.856     2323.653     1807.871        2.303        0.761      174.498       32.014        0.034      352.851       35.812      861.910
07/01/2013  13:19:00      197.682      135.996       11.205       56.085       55.829       51.468     3145.515     3116.870     2648.906        3.330        0.446      239.944        9.864        0.002      352.881       35.861      861.910
07/01/2013  13:20:00      152.812      110.867       19.554       53.490       47.875       41.413     2861.139     2292.041     1715.048        2.145        0.343      188.793       19.805        0.011      352.669       35.493      861.916
07/01/2013  13:21:00       14.050      142.768      -10.673       46.982       64.535       43.624     2207.343     4164.807     1903.045        1.448        0.414      143.458       40.080        0.078      352.837       35.788      861.904
07/01/2013  13:22:00       41.923      152.731        5.473       72.983       91.597       56.401     5326.542     8390.055     3181.091        2.100        0.845      158.380       61.216        0.149      352.994       36.063      861.895
07/01/2013  13:23:00      158.925       88.242       35.279       61.969       66.370       51.921     3840.153     4404.966     2695.821        2.261        0.547      181.780       24.366        0.018      352.902       35.901      861.890
07/01/2013  13:24:00      123.058       97.624       18.119       60.730       58.889       32.625     3688.150     3467.956     1064.400        1.661        0.411      157.078       28.246        0.032      352.788       35.701      861.874
07/01/2013  13:25:00      100.340       52.454       35.486       65.649       60.580       43.950     4309.781     3669.879     1931.640        1.199        0.496      113.224       33.854        0.089      353.243       36.500      861.852
07/01/2013  13:26:00       87.420       73.819       74.600       85.521       80.496       76.601     7313.866     6479.581     5867.700        1.915        0.983      114.418       70.264        0.377      352.414       35.048      861.832
07/01/2013  13:27:00       84.112       77.094      105.501       92.570      113.726       79.813     8569.294    12933.666     6370.057        2.601        1.394      114.098       76.638        0.451      352.710       35.563      861.817
07/01/2013  13:28:00       75.134      111.539      140.587      105.270       87.442       67.278    11081.726     7646.053     4526.316        3.055        1.163      134.485       50.153        0.139      352.553       35.289      861.791
07/01/2013  13:29:00       97.987      101.262      106.158      107.477       75.566       64.601    11551.294     5710.159     4173.316        2.628        1.072      140.909       49.232        0.122      352.447       35.104      861.762
07/01/2013  13:30:00      188.368       79.691       10.728       93.749       80.887       61.807     8788.920     6542.755     3820.109        3.055        0.958      204.531       40.416        0.039      353.038       36.138      861.757
07/01/2013  13:31:00      214.270      144.239       20.214       69.728       53.117       47.622     4862.060     2821.434     2267.818        3.854        0.498      258.295       19.095        0.005      352.863       35.829      861.744
07/01/2013  13:32:00      174.069      102.146       47.751       99.670       76.400       64.691     9934.141     5836.945     4184.945        3.148        0.998      201.826       49.480        0.060      353.043       36.146      861.727
07/01/2013  13:33:00       77.116       61.178       36.988       68.451       47.225       60.307     4685.493     2230.242     3636.974        1.080        0.528       98.436       28.171        0.082      353.044       36.152      861.712
07/01/2013  13:34:00      114.141       94.907       84.200      110.004       93.603       77.256    12100.879     8761.457     5968.457        2.797        1.342      148.444       61.145        0.170      353.302       36.603      861.707
07/01/2013  13:35:00      158.032      149.521      106.663      105.727       85.626       81.464    11178.151     7331.847     6636.461        4.192        1.257      217.556       66.132        0.092      352.723       35.585      861.688
07/01/2013  13:36:00      165.197      117.269       60.702      110.451       65.762       63.404    12199.412     4324.693     4020.063        3.263        1.027      202.588       61.259        0.091      352.943       35.971      861.688
07/01/2013  13:37:00       96.999       39.393       34.619       56.815       66.814       45.937     3227.951     4464.079     2110.214        1.098        0.490      104.693       36.513        0.122      352.884       35.873      861.683
07/01/2013  13:38:00      138.335       44.438       46.501      122.848       89.012       54.684    15091.616     7923.080     2990.335        2.463        1.300      145.297       57.998        0.159      352.734       35.607      861.667
07/01/2013  13:39:00       84.078       46.996      110.407       85.750      128.728       84.944     7353.105    16570.895     7215.458        2.630        1.557       96.321       93.708        0.946      352.958       36.001      861.664
07/01/2013  13:40:00       88.052      -59.188       26.281       99.282      116.997       50.658     9856.878    13688.267     2566.219        1.902        1.306      106.096       67.229        0.402      352.986       36.050      861.684
07/01/2013  13:41:00       67.780      -38.266       22.131       67.778       71.690       42.189     4593.791     5139.499     1779.913        0.903        0.576       77.836       40.223        0.267      352.639       35.444      861.672
07/01/2013  13:42:00       28.424       65.921      102.806       63.408       92.917       59.282     4020.624     8633.490     3514.320        1.594        0.808       71.788       48.232        0.451      352.804       35.732      861.661
07/01/2013  13:43:00      123.519       70.961       42.542       54.121       34.432       44.211     2929.047     1185.596     1954.616        1.408        0.303      142.451       34.201        0.058      352.484       35.172      861.687
07/01/2013  13:44:00      127.194       49.832       33.536       70.964       54.004       45.214     5035.948     2916.441     2044.343        1.489        0.500      136.607       39.784        0.085      352.329       34.901      861.664
07/01/2013  13:45:00       75.607      -47.680       12.796       31.519       35.079       25.308      993.456     1230.526      640.476        0.551        0.143       89.385       15.098        0.029      352.298       34.848      861.643
07/01/2013  13:46:00       17.312      -30.362       10.510       33.028       40.875       27.251     1090.834     1670.775      742.637        0.242        0.175       34.951       28.063        0.645      352.077       34.460      861.606
07/01/2013  13:47:00        5.633       63.823      -10.938       44.752       83.248       28.363     2002.764     6930.204      804.459        0.698        0.487       64.071       23.025        0.129      352.476       35.158      861.593
07/01/2013  13:48:00      101.455       84.662       17.981       96.965       55.044       51.290     9402.199     3029.882     2630.652        1.642        0.753      132.139       31.629        0.057      353.188       36.403      861.579
07/01/2013  13:49:00      206.639      159.304       19.705       78.621       61.748       56.848     6181.184     3812.772     3231.647        4.084        0.661      260.916       31.234        0.014      353.181       36.386      861.561
07/01/2013  13:50:00      254.178      160.340       41.400      124.556       83.212       76.790    15514.319     6924.270     5896.754        6.018        1.417      300.525       37.085        0.015      353.091       36.230      861.534
07/01/2013  13:51:00      266.899      189.597       17.149       93.943       68.918       75.355     8825.271     4749.696     5678.386        6.336        0.963      327.387       48.080        0.022      352.899       35.892      861.522
07/01/2013  13:52:00       87.383       56.095        6.112      110.503       65.162       46.674    12210.900     4246.151     2178.447        1.472        0.932      103.838       30.617        0.087      353.080       36.213      861.523
07/01/2013  13:53:00      172.702      126.025       19.053       58.833       58.258       50.079     3461.299     3394.025     2507.953        2.772        0.468      213.795       24.636        0.013      352.861       35.828      861.526
07/01/2013  13:54:00      142.104      113.401       22.456       44.223       43.266       39.057     1955.658     1871.941     1525.482        1.945        0.268      181.806       25.372        0.019      352.992       36.059      861.518
07/01/2013  13:55:00       74.472       47.808       31.898       91.651       52.339       41.167     8399.900     2739.326     1694.751        1.084        0.642       88.497       33.554        0.144      353.107       36.263      861.518
07/01/2013  13:56:00        2.008      -27.207       24.153       25.906       29.844       23.621      671.138      890.679      557.936        0.172        0.106       27.281       17.338        0.404      353.330       36.654      861.517
07/01/2013  13:57:00        4.785       -3.317        1.552       41.452       26.454       31.577     1718.234      699.820      997.115        0.173        0.171        5.823       13.742        5.570      353.445       36.855      861.502
07/01/2013  13:58:00       69.665       38.965        9.447       40.548       36.022       35.118     1644.156     1297.579     1233.290        0.532        0.209       79.821       22.326        0.078      352.965       36.013      861.493
07/01/2013  13:59:00       22.701       -3.582       16.851       47.302       63.026       35.170     2237.482     3972.338     1236.895        0.413        0.372       22.982       37.509        2.664      352.578       35.337      861.482
07/01/2013  14:00:00       10.261      -21.418       11.105       36.855       71.476       38.809     1358.324     5108.820     1506.135        0.433        0.399       23.749       43.406        3.341      353.017       36.105      861.469
07/01/2013  14:01:00       16.345       25.888       17.122       36.341       35.089       35.728     1320.691     1231.264     1276.459        0.253        0.191       30.616       22.499        0.540      352.653       35.468      861.454
07/01/2013  14:02:00       22.032       13.217       17.716       29.844       33.817       22.811      890.656     1143.577      520.322        0.176        0.128       25.692       15.816        0.379      352.668       35.495      861.448
07/01/2013  14:03:00       18.607       27.393       12.093       11.364       19.615       14.948      129.144      384.765      223.438        0.099        0.037       33.115       10.322        0.097      352.331       34.905      861.442
07/01/2013  14:04:00       93.652       76.220       16.731       53.742       40.375       28.552     2888.212     1630.158      815.192        1.010        0.267      120.748       24.786        0.042      352.844       35.803      861.425
07/01/2013  14:05:00      167.667      119.319        8.160       99.586       67.795       56.945     9917.296     4596.206     3242.677        3.008        0.888      205.789       43.157        0.044      353.377       36.734      861.406
07/01/2013  14:06:00       49.901       38.905       16.741       57.792       42.992       46.802     3339.868     1848.332     2190.395        0.583        0.369       63.275       28.800        0.207      353.383       36.747      861.425
07/01/2013  14:07:00       97.777       38.479        9.870       44.424       63.161       40.449     1973.461     3989.275     1636.118        0.937        0.380      105.077       21.922        0.044      353.398       36.772      861.433
07/01/2013  14:08:00       97.398       39.036       33.177       60.165       55.082       41.495     3619.854     3034.031     1721.797        1.024        0.419      104.929       27.742        0.070      353.162       36.359      861.415
07/01/2013  14:09:00       66.436       59.062        9.110       85.373       64.061       33.100     7288.628     4103.760     1095.625        1.023        0.624       88.894       20.970        0.056      353.227       36.471      861.412
07/01/2013  14:10:00       -9.073      129.579       -8.479       42.094       45.620       33.149     1771.879     2081.222     1098.854        1.095        0.248      129.896       21.381        0.027      353.378       36.738      861.405
07/01/2013  14:11:00       34.270       -4.578       29.154       35.711       38.192       23.100     1275.299     1458.632      533.631        0.266        0.163       34.574       15.117        0.191      353.006       36.087      861.381
07/01/2013  14:12:00       38.934      -24.661        8.458       50.446       46.115       35.144     2544.841     2126.563     1235.106        0.405        0.295       46.087       27.294        0.351      352.600       35.376      861.369
07/01/2013  14:13:00      105.354       57.499       21.615       45.316       51.850       36.823     2053.578     2688.433     1355.932        1.048        0.305      120.023       21.957        0.033      352.482       35.169      861.344
07/01/2013  14:14:00      111.553       89.005       23.463       28.593       21.153       32.179      817.538      447.464     1035.513        1.161        0.115      142.709       16.725        0.014      353.084       36.221      861.334
07/01/2013  14:15:00       -2.182       37.048       28.398       31.075       34.708       25.497      965.662     1204.660      650.122        0.250        0.141       37.112       21.342        0.331      353.337       36.665      861.331
07/01/2013  14:16:00      -42.907       32.359       13.331       21.766       19.779       21.560      473.775      391.189      464.820        0.220        0.066       53.741       18.484        0.118      353.456       36.875      861.305
07/01/2013  14:17:00      -25.938       44.072        4.186       28.503       22.980       22.264      812.447      528.065      495.695        0.223        0.092       51.139        8.526        0.028      353.316       36.629      861.315
07/01/2013  14:18:00      -21.318       54.689        0.188       36.499       42.434       29.592     1332.163     1800.619      875.710        0.373        0.200       58.697       29.038        0.245      353.535       37.015      861.312
07/01/2013  14:19:00      -48.841       85.929       -6.939       43.087       54.067       36.735     1856.522     2923.219     1349.456        0.797        0.306       98.840       40.445        0.167      353.636       37.190      861.312
07/01/2013  14:20:00      -48.322       16.146        3.828       66.590       17.828       32.434     4434.206      317.848     1051.973        0.421        0.290       50.948       30.119        0.349      353.663       37.238      861.318
07/01/2013  14:21:00     -113.964     -115.016       -7.935       82.891       74.969       36.644     6870.858     5620.382     1342.762        2.005        0.692      161.915       27.930        0.030      353.380       36.738      861.322
07/01/2013  14:22:00        8.136      -49.004       14.713       28.948       48.688       30.237      837.986     2370.533      914.294        0.340        0.206       49.675       24.874        0.251      353.339       36.668      861.298
07/01/2013  14:23:00      -41.435      -52.604       24.873       83.375       57.157       37.389     6951.447     3266.952     1397.913        0.836        0.581       66.963       33.877        0.256      353.283       36.571      861.269
07/01/2013  14:24:00        5.898      -35.848       28.457       25.462       66.734       25.098      648.327     4453.463      629.888        0.393        0.287       36.330       30.720        0.715      353.494       36.942      861.229
07/01/2013  14:25:00      -52.462     -141.265       10.290      103.894       72.799       46.896    10793.931     5299.632     2199.214        2.055        0.915      150.692       27.496        0.033      353.201       36.427      861.213
07/01/2013  14:26:00       50.100     -106.603        3.346       82.655       91.530       48.988     6831.798     8377.795     2399.847        1.574        0.880      117.789       40.243        0.117      353.264       36.537      861.191
07/01/2013  14:27:00      -32.564      -62.585       -3.749       36.004       64.502       38.559     1296.266     4160.467     1486.783        0.597        0.347       70.550       27.522        0.152      353.389       36.757      861.176
07/01/2013  14:28:00      -77.315       32.111        0.315       71.492       65.009       33.970     5111.075     4226.164     1153.961        0.875        0.525       83.718       39.626        0.224      353.389       36.755      861.185
07/01/2013  14:29:00     -147.754      114.242      -17.485       87.158       56.158       34.643     7596.578     3153.681     1200.125        2.357        0.598      186.769       35.458        0.036      353.431       36.827      861.168
07/01/2013  14:30:00     -130.703       73.426      -24.756       54.305       97.851       35.126     2948.988     9574.762     1233.856        1.842        0.688      149.915       30.229        0.041      353.571       37.074      861.180
07/01/2013  14:31:00     -127.484      -48.533      -16.454       43.320       47.894       21.142     1876.601     2293.837      446.991        1.175        0.231      136.410       12.420        0.008      353.444       36.853      861.176
07/01/2013  14:32:00      -74.198      -11.643       14.540       50.407       46.416       33.793     2540.823     2154.463     1141.965        0.584        0.292       75.106       26.736        0.127      353.716       37.331      861.161
07/01/2013  14:33:00     -186.596     -145.292       -8.085      136.896       95.461       54.067    18740.385     9112.768     2923.269        4.338        1.539      236.490       49.062        0.043      353.410       36.790      861.165
07/01/2013  14:34:00     -130.391     -145.833       10.292       66.504       94.919       40.195     4422.751     9009.655     1615.608        2.671        0.752      195.625       34.308        0.031      353.358       36.699      861.136
07/01/2013  14:35:00     -156.995      -86.167       -7.015       73.279       64.077       43.943     5369.750     4105.799     1930.986        2.176        0.570      179.087       38.646        0.047      353.541       37.022      861.103
07/01/2013  14:36:00     -163.194        5.694      -14.033      104.238       81.052       39.637    10865.663     6569.444     1571.101        2.293        0.950      163.294       43.094        0.070      353.598       37.121      861.118
07/01/2013  14:37:00     -504.963     -144.257      -34.814      221.151      175.729       90.732    48907.947    30880.646     8232.237       18.250        4.401      525.165      103.295        0.039      353.534       37.008      861.099
07/01/2013  14:38:00     -480.510     -102.633      -58.041      144.056      162.508       69.048    20752.254    26408.797     4767.643       14.835        2.596      491.349       47.821        0.009      353.503       36.954      861.119
07/01/2013  14:39:00     -506.653     -130.283      -11.919      118.652      107.576       58.316    14078.271    11572.606     3400.807       15.143        1.453      523.136       55.110        0.011      353.150       36.335      861.165
07/01/2013  14:40:00     -198.651      -57.809        2.856      157.372      144.134       75.401    24765.945    20774.548     5685.314        4.701        2.561      206.891       80.369        0.151      353.574       37.080      861.114
07/01/2013  14:41:00     -300.491        8.045      -16.710      144.416      100.714       68.738    20855.869    10143.290     4724.905        6.317        1.786      300.598       69.865        0.054      353.728       37.348      861.101
07/01/2013  14:42:00     -332.445       -1.647       -8.712      189.156      135.309       76.244    35779.985    18308.509     5813.119        8.524        2.995      332.449       72.361        0.047      353.710       37.317      861.107
07/01/2013  14:43:00     -318.290     -108.919       -2.536      164.234      131.348       65.891    26972.723    17252.244     4341.591        8.086        2.428      336.410       73.562        0.048      353.630       37.176      861.092
07/01/2013  14:44:00     -289.317      -45.423      -14.069      136.017      127.931       57.174    18500.564    16366.335     3268.906        6.204        1.907      292.861       55.568        0.036      353.463       36.882      861.106
07/01/2013  14:45:00      -90.817      -73.537       16.142      115.839      108.528       62.655    13418.711    11778.380     3925.589        2.151        1.456      116.857       68.476        0.343      353.657       37.225      861.102
07/01/2013  14:46:00     -165.192      -50.967      -13.181      105.563      123.444       52.791    11143.591    15238.467     2786.882        2.961        1.458      172.876       55.336        0.102      353.599       37.123      861.090
07/01/2013  14:47:00     -498.919     -121.191      -30.529      228.969      109.977       68.338    52426.592    12094.894     4670.058       16.685        3.460      513.427       87.098        0.029      353.529       36.998      861.086
07/01/2013  14:48:00     -332.887     -141.832        4.746      224.096      134.439       86.509    50219.059    18073.805     7483.796       10.335        3.789      361.842      101.125        0.078      353.487       36.925      861.101
07/01/2013  14:49:00     -245.152      -54.032      -10.068       97.242      116.129       56.020     9455.925    13485.990     3138.267        4.459        1.304      251.036       51.240        0.042      353.548       37.031      861.125
07/01/2013  14:50:00      -78.577      -52.717       36.603      177.742      100.019       62.492    31592.095    10003.703     3905.267        2.789        2.275       94.622       87.011        0.846      353.760       37.406      861.106
07/01/2013  14:51:00     -381.352     -224.812       -0.082      200.397      164.830       99.728    40158.834    27168.941     9945.703       13.661        3.864      442.685      108.175        0.060      353.524       36.990      861.106
07/01/2013  14:52:00     -267.886      -88.627        0.716      169.307       90.486       70.658    28664.976     8187.767     4992.539        6.072        2.092      282.166       80.749        0.082      353.585       37.096      861.125
07/01/2013  14:53:00     -308.756     -105.701       -8.563      159.658      109.011       68.725    25490.642    11883.378     4723.126        7.433        2.105      326.348       75.605        0.054      353.582       37.091      861.135
07/01/2013  14:54:00     -420.953     -155.284       -9.920      177.958      130.279       73.214    31668.907    16972.747     5360.253       12.770        2.700      448.681       86.754        0.037      353.525       36.993      861.166
07/01/2013  14:55:00     -333.868      -69.077      -10.372      172.742      105.190       67.658    29839.766    11064.955     4577.571        8.091        2.274      340.939       76.649        0.051      353.420       36.806      861.176
07/01/2013  14:56:00     -282.009     -170.889       -3.806      169.663      136.263       80.130    28785.364    18567.709     6420.749        8.125        2.689      329.746       88.803        0.073      353.548       37.032      861.147
07/01/2013  14:57:00     -360.814     -188.624        1.564      230.600      186.745       91.620    53176.586    34873.847     8394.236       13.109        4.822      407.143      114.251        0.079      353.502       36.953      861.143
07/01/2013  14:58:00     -436.905     -154.777      -23.609      221.642      120.199       69.385    49125.133    14447.691     4814.265       14.188        3.419      463.510       74.975        0.026      353.451       36.861      861.204
07/01/2013  14:59:00     -312.052      -73.557       -7.858      163.823      119.413       69.409    26838.024    14259.348     4817.582        7.437        2.296      320.604       77.178        0.058      353.392       36.757      861.240
07/01/2013  15:00:00     -307.340     -172.001      -23.411      153.027      105.208       57.641    23417.204    11068.740     3322.489        8.119        1.890      352.196       60.397        0.029      353.185       36.394      861.250
07/01/2013  15:01:00      -90.216     -115.975        9.395       86.779       87.319       37.156     7530.658     7624.553     1380.577        1.910        0.827      146.932       33.272        0.051      353.150       36.336      861.174
07/01/2013  15:02:00     -197.404      -69.026      -26.097      122.500       74.736       56.277    15006.205     5585.508     3167.090        3.408        1.188      209.124       54.822        0.069      353.130       36.299      861.132
07/01/2013  15:03:00     -171.466     -180.463        8.260      136.385      122.091       62.850    18600.941    14906.265     3950.110        4.974        1.873      248.932       66.563        0.072      353.392       36.759      861.116
07/01/2013  15:04:00     -107.978       13.391        4.247      123.106       49.206       49.092    15155.126     2421.196     2409.983        1.592        0.999      108.806       53.409        0.241      353.583       37.097      861.113
07/01/2013  15:05:00      -91.724      -95.231       10.550      102.781       72.297       44.435    10563.998     5226.856     1974.479        1.768        0.888      132.221       37.841        0.082      353.341       36.671      861.077
07/01/2013  15:06:00     -174.506       10.833      -10.924       45.842       60.283       19.404     2101.532     3633.989      376.501        1.840        0.306      174.841       22.019        0.016      353.138       36.315      861.062
07/01/2013  15:07:00     -405.536      -50.677      -44.401      218.476      111.545       78.803    47731.604    12442.211     6209.900       11.768        3.319      408.690      110.934        0.074      353.470       36.895      861.112
07/01/2013  15:08:00     -368.920     -193.175        9.850      202.871      164.480       90.665    41156.787    27053.749     8220.058       12.496        3.822      416.435       96.761        0.054      353.454       36.867      861.068
07/01/2013  15:09:00     -243.321     -111.814      -23.376       95.771       94.120       52.841     9172.084     8858.588     2792.220        4.653        1.041      267.783       46.939        0.031      353.565       37.063      861.093
07/01/2013  15:10:00     -132.587      -45.914        5.410       89.337      108.781       47.129     7981.041    11833.403     2221.134        2.087        1.102      140.311       47.108        0.113      353.759       37.403      861.077
07/01/2013  15:11:00     -240.208      -96.728        3.057      146.269      120.839       71.344    21394.698    14602.173     5089.917        5.407        2.054      258.952       63.975        0.061      353.812       37.496      861.069
07/01/2013  15:12:00     -250.020      -19.698       -7.676      116.645      120.405       59.315    13606.173    14497.266     3518.285        4.728        1.581      250.795       60.032        0.057      353.769       37.421      861.054
07/01/2013  15:13:00     -249.839     -106.337        9.543      178.833      151.446       77.334    31981.319    22935.988     5980.530        6.735        3.045      271.527       83.350        0.094      353.769       37.421      861.048
07/01/2013  15:14:00     -289.360     -219.948       -4.656      181.524      128.805       95.703    32951.125    16590.774     9159.158        9.540        2.935      363.464       89.211        0.060      353.494       36.938      861.059
07/01/2013  15:15:00     -236.306     -136.632       24.495      143.295      127.607       67.646    20533.587    16283.450     4575.998        5.824        2.070      272.963       72.112        0.070      353.474       36.903      861.069
07/01/2013  15:16:00     -254.982     -160.287       11.242      156.676      124.627       74.223    24547.399    15531.966     5508.989        6.820        2.279      301.177       80.668        0.072      353.395       36.765      861.047
07/01/2013  15:17:00     -319.466     -201.856      -14.889      104.902       70.087       46.422    11004.482     4912.212     2154.993        8.055        0.904      377.895       39.953        0.011      353.336       36.659      861.022
07/01/2013  15:18:00     -166.452     -270.713        0.756      193.642      157.032      102.490    37497.046    24659.026    10504.193        8.681        3.633      317.792       96.097        0.091      353.410       36.789      861.035
07/01/2013  15:19:00     -258.060     -153.983      -18.742      154.050      137.181       72.487    23731.507    18818.584     5254.371        6.922        2.390      300.509       86.193        0.082      353.629       37.174      861.021
07/01/2013  15:20:00     -253.837        8.045        0.900      201.464      134.310       60.283    40587.543    18039.277     3633.995        6.337        3.113      253.965       65.723        0.067      353.904       37.660      861.058
07/01/2013  15:21:00     -113.033      -62.431       10.702      120.163       84.742       48.104    14439.094     7181.237     2313.968        2.036        1.197      129.128       55.814        0.187      353.849       37.562      861.054
07/01/2013  15:22:00     -176.158      -20.846      -10.569      134.519       84.108       57.629    18095.374     7074.180     3321.061        3.003        1.425      177.387       48.918        0.076      353.873       37.603      861.051
07/01/2013  15:23:00     -135.698     -141.129       13.426      145.405      105.045       79.705    21142.672    11034.373     6352.948        3.851        1.926      195.784       79.029        0.163      353.644       37.201      861.043
07/01/2013  15:24:00     -255.144     -119.515       -0.498      171.499      122.302       85.807    29411.767    14957.823     7362.788        6.555        2.587      281.749       88.143        0.098      353.758       37.402      861.040
07/01/2013  15:25:00     -319.927     -257.281        3.093      190.912      161.059       81.883    36447.380    25940.077     6704.862       11.881        3.455      410.545       89.770        0.048      353.407       36.785      861.037
07/01/2013  15:26:00     -238.991     -175.798        1.785      209.577      167.656       87.273    43922.386    28108.700     7616.611        8.382        3.982      296.685       94.830        0.102      353.553       37.042      861.049
07/01/2013  15:27:00     -280.163      -16.501      -11.182      132.157      128.054       65.574    17465.393    16397.828     4299.884        5.852        1.908      280.648       63.682        0.051      353.789       37.455      861.084
07/01/2013  15:28:00     -252.326       19.789      -12.425      123.262       83.463       54.485    15193.558     6966.043     2968.584        4.467        1.256      253.101       48.292        0.036      353.621       37.161      861.078
07/01/2013  15:29:00     -390.862      107.641      -36.903      134.732       99.268       58.281    18152.594     9854.113     3396.662        9.856        1.570      405.413       54.709        0.018      353.465       36.886      861.062
07/01/2013  15:30:00     -271.406      -12.159      -50.639       74.518       58.903       41.094     5552.938     3469.568     1688.690        4.354        0.536      271.679       26.982        0.010      353.517       36.974      861.034
07/01/2013  15:31:00     -297.280     -100.554      -14.036      149.847      107.273       63.892    22454.203    11507.525     4082.186        6.836        1.902      313.826       66.511        0.045      353.753       37.392      861.029
07/01/2013  15:32:00     -362.755      -29.206      -35.954      119.799      103.816       68.119    14351.797    10777.763     4640.166        8.175        1.488      363.929       61.408        0.028      353.648       37.208      861.017
07/01/2013  15:33:00     -475.220     -226.911       -6.611      186.239      153.290       78.866    34685.115    23497.801     6219.832       17.087        3.220      526.614       90.947        0.030      353.427       36.819      861.034
07/01/2013  15:34:00     -221.347      -85.457       -4.174      131.100      107.581       62.887    17187.159    11573.768     3954.783        4.451        1.636      237.271       65.178        0.075      353.429       36.822      861.067
07/01/2013  15:35:00     -329.518     -171.252        4.606      190.964      128.639       78.310    36467.156    16548.007     6132.409        9.853        2.957      371.362      101.913        0.075      353.517       36.980      861.042
07/01/2013  15:36:00     -128.087     -101.622       15.982      139.649       89.718       63.181    19501.883     8049.336     3991.817        2.926        1.577      163.503       70.692        0.187      353.774       37.431      861.038
07/01/2013  15:37:00     -283.091     -126.236        7.814      158.322      140.369       70.471    25066.000    19703.496     4966.219        7.293        2.487      309.961       82.747        0.071      353.611       37.143      861.049
07/01/2013  15:38:00     -196.062      -46.926        3.809      176.201       73.799       46.056    31046.716     5446.355     2121.176        3.963        1.931      201.599       68.380        0.115      353.374       36.729      861.079
07/01/2013  15:39:00       18.405       -5.295       38.025       44.846       38.128       33.377     2011.133     1453.744     1114.051        0.319        0.229       19.151       19.793        1.068      353.094       36.240      860.996
07/01/2013  15:40:00     -281.443     -106.616      -15.667      101.895       88.791       40.011    10382.493     7883.906     1600.876        5.534        0.993      300.961       26.349        0.008      353.315       36.622      861.011
07/01/2013  15:41:00     -202.810      -51.421       -0.290      129.835       93.530       56.587    16857.222     8747.858     3202.036        3.629        1.440      209.227       61.878        0.087      353.622       37.161      861.010
07/01/2013  15:42:00     -213.474     -134.378       20.012      179.084      105.556       92.908    32070.996    11142.123     8631.877        5.793        2.592      252.247      108.221        0.184      353.455       36.869      860.982
07/01/2013  15:43:00     -245.706     -191.877      -12.101      127.554      142.952       72.882    16269.907    20435.347     5311.785        6.967        2.101      311.750       74.705        0.057      353.473       36.901      860.982
07/01/2013  15:44:00     -244.755     -163.507       -1.520      158.484      146.244       75.335    25117.070    21387.395     5675.388        6.940        2.609      294.346       81.044        0.076      353.534       37.008      860.974
07/01/2013  15:45:00     -199.398     -123.018        6.880      105.120       84.869       51.090    11050.236     7202.802     2610.193        3.790        1.043      234.293       50.484        0.046      353.378       36.733      860.991
07/01/2013  15:46:00     -335.799      -19.901      -24.471      101.887      109.963       58.097    10381.046    12091.791     3375.221        6.980        1.292      336.388       53.240        0.025      353.493       36.935      860.995
07/01/2013  15:47:00     -294.857      -25.823       -0.256      132.241      130.988       68.718    17487.695    17157.935     4722.149        6.348        1.968      295.985       74.660        0.064      353.560       37.054      860.957
07/01/2013  15:48:00     -155.881      -48.091       14.052       81.204       99.067       47.420     6594.020     9814.196     2248.674        2.273        0.933      163.131       41.949        0.066      353.798       37.472      860.957
07/01/2013  15:49:00      -81.827      -29.945       26.173       64.991       78.389       43.889     4223.790     6144.900     1926.248        1.028        0.615       87.134       35.943        0.170      353.890       37.635      860.943
07/01/2013  15:50:00     -153.405      -64.245       15.130      116.034       91.004       50.063    13463.908     8281.641     2506.312        2.607        1.213      166.315       63.588        0.146      354.055       37.924      860.945
07/01/2013  15:51:00     -231.092     -157.832       29.056      224.165      133.808       89.177    50250.078    17904.501     7952.601        7.762        3.805      279.847      114.966        0.169      353.798       37.472      860.934
07/01/2013  15:52:00     -373.479     -254.027      -29.491      184.768      153.082       86.841    34139.160    23434.179     7541.379       13.499        3.256      451.682       87.381        0.037      353.588       37.102      860.927
07/01/2013  15:53:00     -361.277     -217.879       -4.107      198.059      166.502       80.590    39227.553    27722.799     6494.720       12.571        3.672      421.891       89.023        0.045      353.522       36.985      860.954
07/01/2013  15:54:00     -308.309     -250.607       -8.207      170.830      136.994       81.421    29182.902    18767.366     6629.389       10.624        2.729      397.314       87.910        0.049      353.512       36.969      860.951
07/01/2013  15:55:00     -371.507     -219.506       -7.823      197.222      177.846       81.809    38896.402    31629.337     6692.652       13.172        3.861      431.510       96.248        0.050      353.425       36.816      860.967
07/01/2013  15:56:00     -309.840     -283.133        0.839      174.918      153.357       92.108    30596.229    23518.350     8483.959       11.937        3.130      419.720       95.290        0.052      353.393       36.760      860.975
07/01/2013  15:57:00     -201.228     -125.096        7.786      167.126       90.111       55.539    27931.105     8120.024     3084.555        4.766        1.957      236.942       70.153        0.088      353.533       37.008      860.984
07/01/2013  15:58:00     -257.194     -208.457        2.321      135.535      132.725       69.761    18369.754    17615.991     4866.650        7.522        2.043      331.063       82.956        0.063      353.399       36.771      860.984
07/01/2013  15:59:00     -180.024      -96.734        4.957      103.342       64.857       41.402    10679.546     4206.450     1714.139        2.919        0.830      204.368       47.633        0.054      353.657       37.223      860.979
07/01/2013  16:00:00     -260.116     -153.415       15.422      140.182      115.073       67.643    19650.921    13241.711     4575.624        6.444        1.873      301.988       73.760        0.060      353.578       37.084      860.974
07/01/2013  16:01:00     -210.600     -115.363        3.701       98.252       68.421       51.094     9653.405     4681.463     2610.584        3.731        0.847      240.127       48.498        0.041      353.454       36.866      860.964
07/01/2013  16:02:00     -249.070     -192.381       -8.087      161.367       95.531       61.558    26039.279     9126.248     3789.435        6.903        1.948      314.716       65.762        0.044      353.427       36.819      860.951
07/01/2013  16:03:00     -231.866     -192.876        6.616      120.830      104.338       59.204    14599.789    10886.456     3505.059        5.999        1.450      301.600       50.933        0.029      353.450       36.858      860.941
07/01/2013  16:04:00     -111.321     -261.418       -3.468       98.536       91.823       46.601     9709.438     8431.383     2171.671        5.052        1.016      284.133       41.046        0.021      353.509       36.963      860.929
07/01/2013  16:05:00     -115.958     -132.189       14.128      107.100       65.334       40.459    11470.501     4268.514     1636.899        2.424        0.869      175.841       42.458        0.058      353.667       37.244      860.929
07/01/2013  16:06:00     -179.652     -100.499        6.534       82.677       84.918       42.210     6835.456     7211.138     1781.654        2.912        0.791      205.852       30.890        0.023      353.540       37.019      860.917
07/01/2013  16:07:00     -188.247     -145.879        7.761      110.110       98.927       48.975    12124.218     9786.528     2398.598        4.054        1.215      238.155       46.825        0.039      353.636       37.187      860.942
07/01/2013  16:08:00     -102.208     -114.617       18.547      125.709       75.342       63.127    15802.750     5676.489     3985.019        2.469        1.273      153.569       62.543        0.166      353.663       37.237      860.942
07/01/2013  16:09:00     -212.276      -22.516       -2.716      131.277      104.408       52.283    17233.673    10900.980     2733.481        3.822        1.543      213.467       63.929        0.090      353.712       37.321      860.938
07/01/2013  16:10:00     -294.130       -4.848      -15.110      122.471      104.883       50.294    14999.190    11000.506     2529.501        5.764        1.426      294.170       63.262        0.046      353.793       37.463      860.929
07/01/2013  16:11:00     -289.095      -51.352       -1.239      142.825      115.354       64.524    20399.013    13306.612     4163.395        6.203        1.893      293.621       66.076        0.051      353.722       37.338      860.928
07/01/2013  16:12:00     -308.152      -24.838        5.605      139.812       93.965       71.399    19547.484     8829.338     5097.748        6.453        1.674      309.151       69.451        0.050      353.775       37.432      860.952
07/01/2013  16:13:00     -192.994     -179.161       -1.154      145.906      140.350       59.827    21288.604    19698.008     3579.233        5.695        2.228      263.334       67.848        0.066      353.670       37.248      860.980
07/01/2013  16:14:00     -202.601     -111.816      -16.366       92.193      103.405       44.853     8499.470    10692.587     2011.835        3.751        1.060      231.409       38.258        0.027      353.519       36.982      860.964
07/01/2013  16:15:00     -134.218      -99.752        3.369      119.494       84.657       42.265    14278.703     7166.782     1786.309        2.560        1.162      167.227       47.633        0.081      353.524       36.991      860.941
07/01/2013  16:16:00     -211.110      -82.263        0.864      102.896       80.215       44.073    10587.557     6434.369     1942.469        3.515        0.948      226.571       45.662        0.041      353.492       36.935      860.946
07/01/2013  16:17:00     -152.475     -129.222        8.097       94.421       81.507       57.725     8915.368     6643.323     3332.120        2.945        0.945      199.867       59.396        0.088      353.523       36.990      860.936
07/01/2013  16:18:00     -229.320      -50.952        3.259       97.990      111.023       50.513     9602.127    12326.190     2551.532        3.983        1.224      234.912       39.626        0.028      353.446       36.852      860.935
07/01/2013  16:19:00     -162.287     -162.423        4.448      140.892      109.262       58.674    19850.619    11938.110     3442.595        4.398        1.762      229.605       67.646        0.087      353.324       36.638      860.933
07/01/2013  16:20:00     -128.615     -117.123       -8.526       76.137       74.619       33.930     5796.802     5567.972     1151.260        2.142        0.626      173.953       35.445        0.042      353.313       36.619      860.922
07/01/2013  16:21:00     -280.127     -155.692      -11.270      152.979      102.587       58.516    23402.715    10524.124     3424.161        7.009        1.868      320.486       78.922        0.061      353.288       36.576      860.911
07/01/2013  16:22:00     -260.921      -67.942        9.650      204.110      109.964       66.176    41660.957    12092.019     4379.217        6.545        2.907      269.622       82.481        0.094      353.357       36.696      860.896
07/01/2013  16:23:00     -326.360     -175.436       -7.134      149.084      134.984       69.379    22225.903    18220.590     4813.440        9.129        2.263      370.525       74.039        0.040      353.275       36.550      860.901
07/01/2013  16:24:00     -185.932      -72.592        6.531      101.562       92.860       45.957    10314.924     8622.898     2112.063        3.046        1.052      199.600       56.507        0.080      353.324       36.639      860.902
07/01/2013  16:25:00     -123.049      -50.507        9.011       91.006       84.768       44.064     8282.032     7185.579     1941.625        1.759        0.870      133.012       48.074        0.131      353.400       36.773      860.909
07/01/2013  16:26:00     -269.038      -42.631      -29.951      114.314       77.909       45.993    13067.746     6069.877     2115.328        4.817        1.063      272.395       52.299        0.037      353.325       36.640      860.900
07/01/2013  16:27:00     -325.362      -83.396      -13.360      122.054       99.563       55.303    14897.073     9912.845     3058.390        7.043        1.393      335.880       59.254        0.031      353.232       36.476      860.875
07/01/2013  16:28:00     -274.796      -51.948       -9.418      150.093      143.000       64.523    22527.926    20449.076     4163.165        6.271        2.357      279.663       71.527        0.065      353.295       36.586      860.851
07/01/2013  16:29:00     -366.910     -132.617      -20.229      164.294      169.024       71.120    26992.585    28568.973     5057.986       10.661        3.031      390.142       66.544        0.029      353.326       36.640      860.852
07/01/2013  16:30:00     -349.260      -84.751      -23.492      133.481      159.518       66.104    17817.293    25446.039     4369.746        8.867        2.382      359.395       49.628        0.019      353.257       36.520      860.879
07/01/2013  16:31:00     -254.657     -128.923        4.339      154.383      151.281       71.723    23833.985    22885.955     5144.163        6.667        2.593      285.432       78.082        0.075      353.325       36.639      860.871
07/01/2013  16:32:00     -268.292     -139.716        5.250      167.155      124.694       77.933    27940.860    15548.578     6073.608        7.054        2.478      302.491       89.840        0.088      353.283       36.566      860.863
07/01/2013  16:33:00     -307.016     -211.260        6.719      190.270      100.081       79.807    36202.855    10016.126     6369.236        9.575        2.629      372.679       86.882        0.054      353.253       36.512      860.882
07/01/2013  16:34:00     -327.851     -155.009        4.191      209.774      113.564       72.157    44005.331    12896.763     5206.618        9.681        3.105      362.648       97.039        0.072      353.211       36.440      860.887
07/01/2013  16:35:00     -282.490     -166.375       -7.995      118.573       92.401       55.224    14059.467     8537.918     3049.665        6.659        1.282      327.843       56.647        0.030      353.249       36.507      860.909
07/01/2013  16:36:00     -221.456     -185.200       -4.225      133.768       92.219       62.354    17893.744     8504.271     3888.055        5.682        1.514      288.690       72.969        0.064      353.289       36.576      860.929
07/01/2013  16:37:00     -114.303      -73.282        3.816      106.033       88.557       59.301    11242.955     7842.359     3516.581        2.052        1.130      135.777       52.055        0.147      353.328       36.646      860.953
07/01/2013  16:38:00     -208.021     -220.454      -11.884      137.939      108.702       72.064    19027.094    11816.059     5193.235        6.402        1.802      303.105       71.915        0.056      353.271       36.545      860.969
07/01/2013  16:39:00     -241.626     -189.228      -13.779      131.110       97.912       65.400    17189.713     9586.784     4277.157        6.271        1.553      306.905       49.446        0.026      353.202       36.423      860.991
07/01/2013  16:40:00     -191.832     -207.031        2.191      147.796      115.836       73.501    21843.719    13417.920     5402.450        6.016        2.033      282.243       77.782        0.076      353.208       36.436      860.999
07/01/2013  16:41:00     -239.232     -250.031       -7.850      193.793      132.230       89.633    37555.849    17484.726     8034.066        9.143        3.154      346.045      101.476        0.086      353.167       36.363      861.024
07/01/2013  16:42:00     -316.967     -214.433       -9.250      177.582       87.067       73.875    31535.465     7580.643     5457.523        9.555        2.229      382.687       87.969        0.053      353.124       36.287      861.050
07/01/2013  16:43:00     -224.559     -171.711        6.031      140.871      124.632       65.707    19844.639    15533.247     4317.358        5.981        1.985      282.686       66.935        0.056      353.095       36.237      861.063
07/01/2013  16:44:00     -326.047     -174.031      -13.577      177.115      114.254       66.904    31369.690    13054.011     4476.101        9.283        2.445      369.586       58.492        0.025      353.094       36.234      861.054
07/01/2013  16:45:00     -254.692     -131.564       -3.491      134.509       87.811       50.522    18092.694     7710.713     2552.499        5.527        1.418      286.665       56.957        0.039      353.122       36.285      861.071
07/01/2013  16:46:00     -239.672     -127.850        5.607      177.228       99.221       65.202    31409.646     9844.788     4251.334        5.965        2.275      271.640       81.424        0.090      353.145       36.324      861.087
07/01/2013  16:47:00     -267.363      -99.090      -16.936      150.691       92.704       62.089    22707.869     8594.064     3855.098        5.837        1.758      285.135       64.784        0.052      353.155       36.341      861.091
07/01/2013  16:48:00     -241.733      -12.406       10.533      188.010      119.622       77.568    35347.804    14309.311     6016.744        5.718        2.784      242.051       94.262        0.152      353.140       36.316      861.087
07/01/2013  16:49:00      -99.240      -33.794        5.808      116.529       93.211       54.014    13579.087     8688.351     2917.545        1.810        1.259      104.836       58.446        0.311      353.062       36.184      861.102
07/01/2013  16:50:00     -183.190     -154.194        8.905      132.272      128.095       72.469    17496.010    16408.294     5251.703        4.828        1.958      239.446       76.920        0.103      353.037       36.136      861.093
07/01/2013  16:51:00     -202.220     -120.597       -7.004      111.645       68.312       51.851    12464.560     4666.533     2688.481        3.765        0.991      235.449       51.344        0.048      353.059       36.174      861.098
07/01/2013  16:52:00     -183.771      -38.997        9.969      142.355       99.353       53.452    20264.890     9870.929     2857.096        3.419        1.650      187.863       67.211        0.128      353.098       36.243      861.120
07/01/2013  16:53:00     -196.066      -53.967       -2.165      136.402      123.137       48.328    18605.560    15162.823     2335.581        3.872        1.805      203.358       57.926        0.081      353.115       36.272      861.107
07/01/2013  16:54:00     -335.452       31.737      -22.828      168.771      108.090       68.943    28483.681    11683.466     4753.097        7.948        2.246      336.950       77.879        0.053      353.042       36.145      861.110
07/01/2013  16:55:00     -440.925      -85.049      -21.464      153.189      153.722       72.992    23466.989    23630.397     5327.845       12.726        2.621      449.053       71.067        0.025      353.087       36.222      861.110
07/01/2013  16:56:00     -362.398      -46.300      -19.049      170.077      118.311       71.812    28926.263    13997.398     5156.918        9.095        2.404      365.344       76.627        0.044      353.107       36.259      861.113
07/01/2013  16:57:00     -358.385      -67.913      -14.341      140.512      114.085       62.835    19743.593    13015.337     3948.290        8.498        1.835      364.763       73.971        0.041      353.098       36.243      861.135
07/01/2013  16:58:00     -346.984      -15.915      -11.816      135.893       97.699       68.863    18466.874     9545.009     4742.053        7.677        1.638      347.349       67.774        0.038      353.103       36.250      861.132
07/01/2013  16:59:00     -314.210       13.381      -13.934      139.137      150.150       70.313    19358.980    22545.017     4943.980        7.296        2.342      314.494       61.726        0.039      353.092       36.232      861.141
07/01/2013  17:00:00     -267.788      -67.039        0.571      117.617      126.239       61.949    13833.760    15936.258     3837.720        5.490        1.680      276.052       55.733        0.041      353.105       36.254      861.141
07/01/2013  17:01:00     -353.746     -100.100        3.548      153.946      114.400       68.906    23699.375    13087.321     4748.030        8.834        2.077      367.636       77.752        0.045      353.078       36.207      861.150
07/01/2013  17:02:00     -227.794      -51.292        9.973      128.168      116.309       56.211    16426.988    13527.806     3159.681        4.386        1.656      233.497       57.022        0.060      353.094       36.234      861.157
07/01/2013  17:03:00     -278.558      -84.936      -10.659      146.450      130.077       72.918    21447.647    16920.054     5316.972        6.429        2.184      291.219       72.993        0.063      353.080       36.212      861.161
07/01/2013  17:04:00     -212.455      -71.576      -10.520      134.866       88.760       50.769    18188.911     7878.378     2577.538        3.950        1.432      224.188       65.136        0.084      353.112       36.269      861.186
07/01/2013  17:05:00     -205.399      -60.269      -10.886      144.951      107.442       51.637    21010.900    11543.764     2666.396        4.057        1.761      214.059       48.636        0.052      353.119       36.280      861.205
07/01/2013  17:06:00     -157.875     -118.162       15.284      173.418      146.149       82.423    30073.923    21359.567     6793.489        4.866        2.911      197.197       99.466        0.254      353.075       36.204      861.198
07/01/2013  17:07:00      -96.119      -72.881       23.440      136.979       94.067       71.678    18763.167     8848.641     5137.680        2.392        1.637      120.626       70.790        0.344      353.075       36.202      861.217
07/01/2013  17:08:00     -138.114      -46.773        6.359      107.129       72.711       47.382    11476.572     5286.830     2245.085        2.015        0.950      145.818       46.551        0.102      353.076       36.207      861.243
07/01/2013  17:09:00     -269.586       18.779       -6.395      195.627       76.462       59.888    38269.780     5846.499     3586.619        6.038        2.385      270.239       72.231        0.071      353.081       36.214      861.254
07/01/2013  17:10:00     -228.000      -46.786       -7.103      104.917       91.071       44.157    11007.476     8293.869     1949.842        3.773        1.063      232.750       43.047        0.034      353.139       36.314      861.265
07/01/2013  17:11:00     -304.645      -76.337      -20.875      132.080      139.266       65.896    17445.184    19395.054     4342.294        7.012        2.059      314.064       54.698        0.030      353.064       36.182      861.297
07/01/2013  17:12:00     -284.648     -148.963      -17.721      132.067      110.269       52.418    17441.783    12159.238     2747.682        6.793        1.617      321.270       46.230        0.021      353.050       36.158      861.325
07/01/2013  17:13:00     -231.357     -143.101       -1.882      137.305      111.318       57.916    18852.629    12391.695     3354.258        5.430        1.730      272.037       66.545        0.060      353.013       36.093      861.358
07/01/2013  17:14:00     -169.504      -54.224        4.445      114.868      109.797       60.446    13194.550    12055.477     3653.763        3.029        1.445      177.966       66.181        0.138      352.971       36.021      861.387
07/01/2013  17:15:00     -188.893     -129.324        2.121      116.406       98.811       58.028    13550.368     9763.687     3367.293        3.954        1.334      228.923       57.388        0.063      353.007       36.083      861.422
07/01/2013  17:16:00     -201.783     -176.638       -4.956      171.522       95.563       65.935    29419.746     9132.300     4347.457        5.741        2.145      268.174       77.370        0.083      352.986       36.046      861.453
07/01/2013  17:17:00     -270.409     -174.466      -11.840      128.643       98.340       57.507    16549.033     9670.834     3307.088        6.661        1.476      321.807       57.640        0.032      353.004       36.078      861.495
07/01/2013  17:18:00      -49.817     -135.024        9.261       77.339      101.547       45.565     5981.378    10311.772     2076.166        1.958        0.918      143.921       24.410        0.029      352.952       35.991      861.557
07/01/2013  17:19:00      -79.914     -187.544        1.946      141.045      158.330       80.782    19893.729    25068.356     6525.674        4.652        2.574      203.860       66.246        0.106      352.887       35.876      861.593
07/01/2013  17:20:00     -214.195     -229.939      -18.514      140.227      103.632       62.745    19663.526    10739.679     3936.895        6.671        1.717      314.247       51.528        0.027      352.940       35.965      861.668
07/01/2013  17:21:00      -53.382      -77.513        9.622      107.829       63.787       37.358    11627.093     4068.787     1395.652        1.302        0.855       94.117       35.208        0.140      352.865       35.838      861.765
07/01/2013  17:22:00       40.237     -134.553        9.020       97.311      143.935       55.671     9469.400    20717.378     3099.255        2.654        1.664      140.440       53.020        0.143      352.592       35.360      861.891
07/01/2013  17:23:00      120.399     -197.004       23.351      111.308      109.722       82.122    12389.488    12038.966     6743.973        4.251        1.559      230.882       74.757        0.105      352.622       35.410      862.062
07/01/2013  17:24:00       86.754       10.043      161.354      163.830      279.577      199.043    26840.218    78163.169    39618.250        8.911        7.231       87.333      213.063        5.952      352.762       35.655      862.183
07/01/2013  17:25:00      282.646     -364.373       34.005      309.427      488.090      235.265    95744.876   238232.083    55349.835       30.149       19.466      461.147      280.892        0.371      352.071       34.446      862.044
07/01/2013  17:26:00      286.060     -552.316       -4.793      279.197      360.129      153.328    77951.092   129692.840    23509.398       30.898       11.558      621.999      181.915        0.086      351.349       33.185      862.212
07/01/2013  17:27:00      232.584     -210.227       45.671      227.324      254.475      154.086    51676.412    64757.417    23742.576       12.025        7.009      313.514      182.638        0.339      351.385       33.250      862.117
07/01/2013  17:28:00      117.157     -344.032      -41.487      214.668      233.440      133.587    46082.554    54494.448    17845.460       12.609        5.921      363.433      108.022        0.088      351.365       33.213      861.943
07/01/2013  17:29:00       14.041     -309.400       21.963      230.038      224.181      107.585    52917.502    50257.247    11574.504       10.556        5.737      309.719       96.903        0.098      351.338       33.166      862.222
07/01/2013  17:30:00     -382.562     -193.999       20.885      294.472      199.048      102.638    86713.634    39619.984    10534.577       16.062        6.843      428.940      105.483        0.060      351.384       33.245      862.153
07/01/2013  17:31:00     -253.287     -122.275        3.985      212.794      177.843       89.726    45281.420    31628.308     8050.745        8.202        4.248      281.257       89.590        0.101      351.240       32.995      862.077
07/01/2013  17:32:00     -155.336     -205.189       17.310      223.224      236.858      101.855    49829.006    56101.841    10374.392        9.140        5.815      257.355      126.615        0.242      351.138       32.817      862.045
07/01/2013  17:33:00       -7.576      -59.733       44.319      132.508      153.483      104.626    17558.350    23556.953    10946.579        2.882        2.603       60.212       81.597        1.836      351.065       32.690      862.059
07/01/2013  17:34:00      117.004     -307.322       44.180      268.177      206.582      113.711    71918.713    42676.077    12930.228       11.878        6.376      328.842      116.223        0.125      350.931       32.457      861.950
07/01/2013  17:35:00      108.201     -208.105       82.772      220.047      279.751      136.289    48420.890    78260.891    18574.767       10.353        7.263      234.553      161.561        0.474      350.790       32.214      861.967
07/01/2013  17:36:00       93.615     -539.748      -44.536      345.575      306.510      167.670   119422.357    93948.400    28113.283       27.173       12.074      547.806      165.077        0.091      350.662       31.988      861.896
07/01/2013  17:37:00      133.568     -462.923       22.701      355.117      325.799      173.264   126108.067   106145.277    30020.362       24.741       13.114      481.807      182.451        0.143      350.409       31.549      861.931
07/01/2013  17:38:00      255.222     -471.391       13.820      320.049      356.117      163.784   102431.666   126819.323    26825.333       27.176       12.804      536.048      207.012        0.149      350.162       31.118      861.967
07/01/2013  17:39:00       -3.553     -483.973      -12.308      262.549      264.145      125.484    68931.925    69772.520    15746.210       19.439        7.723      483.987       60.287        0.016      349.921       30.700      862.131
07/01/2013  17:40:00      108.209     -490.928      -29.539      236.873      326.038      132.199    56108.722   106301.100    17476.548       21.670        8.994      502.712      132.004        0.069      349.734       30.375      862.304
07/01/2013  17:41:00       72.295     -450.366      -28.743      160.099      214.241      129.485    25631.786    45899.364    16766.388       14.857        4.415      456.132       75.920        0.028      349.653       30.234      862.353
07/01/2013  17:42:00      257.840     -419.470      -13.600      310.925      350.098      154.690    96674.470   122568.701    23929.111       24.285       12.159      492.379      175.459        0.127      349.711       30.336      862.277
07/01/2013  17:43:00      194.779     -359.198       25.315      194.546      304.290      155.764    37848.125    92592.312    24262.409       16.112        7.735      408.610      168.895        0.171      349.970       30.785      862.357
07/01/2013  17:44:00      115.096     -343.627      -28.554      198.883      174.802       97.035    39554.454    30555.575     9415.714       10.582        3.976      362.390       30.953        0.007      350.055       30.932      862.327
07/01/2013  17:45:00        6.544     -343.846      -31.588      198.124      155.020       88.024    39252.990    24031.077     7748.149        9.514        3.552      343.909       70.283        0.042      350.151       31.100      862.284
07/01/2013  17:46:00      -99.721     -116.861       -0.529      117.628       74.882       56.470    13836.365     5607.286     3188.884        2.311        1.132      153.626       52.120        0.115      350.146       31.093      862.294
07/01/2013  17:47:00     -227.188     -306.534      -17.489      214.781      170.858       95.388    46131.071    29192.386     9098.928       11.514        4.221      381.547       88.504        0.054      350.343       31.435      862.212
07/01/2013  17:48:00     -244.998     -178.102       18.862      217.134      162.529      108.615    47147.057    26415.628    11797.169        8.871        4.268      302.893       92.093        0.092      350.463       31.645      862.150
07/01/2013  17:49:00     -158.822     -178.904       16.943      159.438      143.322       75.058    25420.512    20541.314     5633.770        5.455        2.580      239.230       78.842        0.109      351.035       32.638      862.113
07/01/2013  17:50:00     -235.624     -269.202       -4.231      155.806      135.875       76.130    24275.448    18461.897     5795.719        8.826        2.427      357.754       64.540        0.033      351.012       32.597      862.166
07/01/2013  17:51:00     -161.404     -268.158       25.993      162.150      172.163       84.277    26292.703    29639.996     7102.679        8.082        3.152      312.986       82.484        0.069      350.958       32.506      862.236
07/01/2013  17:52:00     -269.003     -438.494       -3.421      171.389      301.981      100.083    29374.220    91192.263    10016.530       19.759        6.529      514.431      128.487        0.062      351.328       33.150      862.225
07/01/2013  17:53:00     -172.839     -228.860       10.339      212.782      124.557       80.869    45276.277    15514.423     6539.837        7.483        3.367      286.793       77.465        0.073      351.274       33.056      862.270
07/01/2013  17:54:00     -226.455     -201.280       11.918      192.142      165.932       80.017    36918.603    27533.588     6402.780        8.138        3.543      302.978      102.816        0.115      351.292       33.086      862.410
07/01/2013  17:55:00     -198.985     -294.578        9.095      222.481      169.474      101.243    49497.730    28721.588    10250.159       10.744        4.423      355.487       96.569        0.074      351.465       33.388      862.488
07/01/2013  17:56:00      -12.279     -226.201        3.269       86.844       72.371       51.775     7541.884     5237.602     2680.696        3.339        0.773      226.534       39.691        0.031      351.663       33.733      862.374
07/01/2013  17:57:00       24.957     -183.215      -41.073       93.480       87.359       67.593     8738.466     7631.598     4568.798        2.840        1.047      184.907       53.215        0.083      351.406       33.285      862.460
07/01/2013  17:58:00      110.122     -131.253       31.026       88.491      168.145       95.097     7830.588    28272.755     9043.426        3.772        2.257      171.331       94.828        0.306      351.193       32.913      862.552
07/01/2013  17:59:00      102.559        8.414      164.196      156.213      267.393      171.321    24402.439    71499.095    29351.052        8.138        6.263      102.904      204.605        3.953      351.104       32.759      862.444
07/01/2013  18:00:00     -121.664     -204.009       -4.802      150.533      158.731       91.118    22660.176    25195.601     8302.506        5.629        2.808      237.532       87.011        0.134      351.114       32.777      862.609
07/01/2013  18:01:00     -168.946     -240.206       -9.557      145.471      114.819       67.675    21161.702    13183.507     4579.966        6.262        1.946      293.670       59.159        0.041      351.264       33.036      862.729
07/01/2013  18:02:00     -172.705     -285.521       -8.689      171.513      265.139       71.197    29416.753    70298.891     5069.079       10.808        5.239      333.690       46.008        0.019      351.185       32.900      862.728
07/01/2013  18:03:00     -280.605     -281.247        7.745      226.744      219.494      108.076    51413.036    48177.606    11680.356       13.456        5.564      397.289      127.969        0.104      351.310       33.117      862.718
07/01/2013  18:04:00     -279.639     -110.356      -12.945      187.212      123.505       72.784    35048.334    15253.389     5297.461        7.306        2.780      300.626       75.841        0.064      351.284       33.072      862.717
07/01/2013  18:05:00     -325.480     -208.835        1.398      258.492      174.145       92.782    66817.861    30326.639     8608.570       12.763        5.288      386.716      107.298        0.077      351.302       33.104      862.623
07/01/2013  18:06:00     -443.398     -155.316      -46.363      246.376      172.357       92.781    60701.087    29707.014     8608.244       16.093        4.951      469.813      109.933        0.055      351.338       33.166      862.602
07/01/2013  18:07:00     -273.393      -22.520        2.538      148.429      122.994       76.683    22031.051    15127.488     5880.341        5.914        2.152      274.319       74.157        0.073      351.323       33.140      862.554
07/01/2013  18:08:00     -134.473       16.028       -8.280      128.207       83.616       45.069    16437.136     6991.557     2031.191        2.193        1.273      135.425       53.096        0.154      351.418       33.308      862.449
07/01/2013  18:09:00       11.412      -22.757       23.536       57.962       62.451       31.786     3359.612     3900.120     1010.331        0.473        0.414       25.458       26.552        1.088      350.678       32.022      862.311
07/01/2013  18:10:00     -336.639      -15.877      -16.062      168.570      138.949       72.689    28415.936    19306.921     5283.691        8.341        2.650      337.013       65.201        0.037      351.541       33.522      862.370
07/01/2013  18:11:00     -263.335      102.684      -25.498      133.495      103.772       63.765    17820.875    10768.717     4065.924        5.659        1.633      282.647       63.491        0.050      351.661       33.729      862.331
07/01/2013  18:12:00     -178.265      337.753      -31.399      214.518      314.865      101.001    46017.941    99139.705    10201.210       15.107        7.768      381.911      126.340        0.109      351.564       33.562      862.131
07/01/2013  18:13:00     -234.170     -159.377        3.846      188.360      167.267       87.923    35479.466    27978.126     7730.405        7.571        3.559      283.261       78.194        0.076      351.699       33.795      862.271
07/01/2013  18:14:00      -57.513     -179.732       18.942       91.573      144.413       68.824     8385.703    20855.153     4736.710        3.497        1.699      188.709       68.647        0.132      351.648       33.708      862.297
07/01/2013  18:15:00       76.590     -226.399      -27.082      113.385      135.680       84.457    12856.249    18409.125     7133.041        4.812        1.920      239.003       85.319        0.127      351.428       33.324      862.343
07/01/2013  18:16:00      -45.032     -122.161        8.654      143.945       81.059       66.173    20720.183     6570.535     4378.833        2.434        1.583      130.197       60.804        0.218      351.382       33.245      862.525
07/01/2013  18:17:00      -26.951     -109.870       13.716       94.259       86.496       40.665     8884.784     7481.563     1653.643        1.550        0.901      113.127       44.752        0.156      351.306       33.113      862.650
07/01/2013  18:18:00       24.550     -266.436        2.353      136.242      101.124       68.185    18562.011    10226.034     4649.217        5.251        1.672      267.564       54.118        0.041      351.396       33.266      862.697
07/01/2013  18:19:00       47.447      -82.451       26.132       68.476      115.236       56.285     4688.992    13279.323     3168.043        1.543        1.057       95.128       38.922        0.167      351.008       32.595      862.662
07/01/2013  18:20:00      118.562     -138.633        4.672      107.834      143.506       81.983    11628.120    20593.999     6721.170        3.611        1.947      182.418       84.206        0.213      351.113       32.776      862.655
07/01/2013  18:21:00      131.531     -163.652        5.798       93.135      150.253       83.617     8674.036    22575.895     6991.733        4.117        1.912      209.958       94.967        0.205      351.366       33.217      862.663
07/01/2013  18:22:00      172.013     -147.500       28.521      135.139      174.818       94.973    18262.533    30561.203     9019.876        5.499        2.892      226.593      125.270        0.306      351.340       33.171      862.670
07/01/2013  18:23:00      161.242     -234.055      -28.651      101.608      122.824       64.178    10324.271    15085.735     4118.770        5.556        1.476      284.220       74.031        0.068      351.373       33.229      862.738
07/01/2013  18:24:00      113.722      -80.528        3.917      118.518      105.283       67.780    14046.484    11084.598     4594.191        2.457        1.486      139.346       76.111        0.298      351.340       33.171      862.817
07/01/2013  18:25:00       32.906      -62.896       24.474       37.229       83.476       36.616     1386.030     6968.254     1340.767        0.766        0.485       70.984       50.203        0.500      351.428       33.327      862.875
07/01/2013  18:26:00      -29.868      -35.379       16.001       79.928       60.314       36.159     6388.559     3637.825     1307.509        0.686        0.567       46.301       22.780        0.242      351.501       33.453      862.918
07/01/2013  18:27:00      -70.553       53.711       11.590       61.274       50.560       33.940     3754.547     2556.337     1151.941        0.773        0.373       88.671       31.795        0.129      351.496       33.444      862.901
07/01/2013  18:28:00     -106.954      -18.210        0.868       42.871       37.444       19.410     1837.913     1402.035      376.745        0.769        0.181      108.493       11.462        0.011      351.508       33.465      862.884
07/01/2013  18:29:00     -161.389      -80.251       -7.275       84.277       76.293       31.823     7102.671     5820.616     1012.682        2.323        0.697      180.240       41.297        0.052      351.512       33.473      862.868
07/01/2013  18:30:00     -100.032      -57.843       -4.582      140.714       45.382       43.260    19800.387     2059.548     1871.447        1.855        1.187      115.552       24.323        0.044      351.632       33.681      862.813
07/01/2013  18:31:00       39.773       55.036       78.991      105.423       81.993       76.324    11114.030     6722.900     5825.306        1.725        1.183       67.903       38.601        0.323      351.327       33.150      862.751
07/01/2013  18:32:00     -165.963       33.262      -15.219       74.296       49.884       27.462     5519.843     2488.441      754.159        1.882        0.438      169.264       28.352        0.028      351.667       33.741      862.721
07/01/2013  18:33:00     -185.628       92.362      -24.824       52.573       80.493       36.048     2763.957     6479.052     1299.476        2.707        0.527      207.337       27.121        0.017      351.480       33.414      862.669
07/01/2013  18:34:00     -474.330       -9.225      -62.787      199.974      145.612       72.326    39989.475    21202.831     5231.042       14.771        3.321      474.419       74.170        0.024      351.503       33.455      862.592
07/01/2013  18:35:00     -437.246      220.087      -68.769      196.631      255.814       91.427    38663.919    65440.701     8358.968       17.838        5.623      489.512      100.266        0.042      351.426       33.321      862.579
07/01/2013  18:36:00     -516.324      -44.746      -69.201      267.603      190.574       89.318    71611.408    36318.487     7977.625       19.462        5.795      518.259       61.467        0.014      351.535       33.511      862.603
07/01/2013  18:37:00     -519.696     -155.309        5.185      346.730      227.273      144.359   120221.413    51653.174    20839.489       24.343        9.636      542.406      169.501        0.098      351.277       33.061      862.490
07/01/2013  18:38:00     -267.500      422.898      -50.191      160.078      210.424      108.002    25624.915    44278.191    11664.325       16.723        4.078      500.399       93.796        0.035      351.277       33.060      862.477
07/01/2013  18:39:00     -380.622      176.897      -54.548      156.299      196.653       93.826    24429.525    38672.453     8803.250       12.551        3.595      419.721      103.935        0.061      351.353       33.192      862.530
07/01/2013  18:40:00     -421.116        0.102      -30.947      205.936      214.795       80.170    42409.591    46136.865     6427.278       13.662        4.749      421.116       55.360        0.017      351.565       33.561      862.564
07/01/2013  18:41:00     -199.553      -84.017        1.845      166.359      126.626       53.433    27675.458    16034.069     2855.104        4.671        2.328      216.519       47.055        0.047      351.744       33.875      862.675
07/01/2013  18:42:00      -21.957      -43.816       -1.735       69.793       49.704       29.080     4871.125     2470.531      845.657        0.529        0.409       49.009       23.602        0.232      351.805       33.985      862.642
07/01/2013  18:43:00      -56.470      -80.775       13.580       83.410       61.749       40.353     6957.222     3812.973     1628.338        1.115        0.620       98.557       47.700        0.234      351.752       33.893      862.613
07/01/2013  18:44:00      -97.294      -44.865       -1.221       70.195       46.060       31.774     4927.350     2121.520     1009.585        0.977        0.403      107.140       41.523        0.150      351.639       33.694      862.643
07/01/2013  18:45:00     -117.063       21.807        0.142       98.759       74.311       32.362     9753.389     5522.074     1047.294        1.525        0.816      119.077       30.062        0.064      351.368       33.222      862.678
07/01/2013  18:46:00     -284.423     -188.346       -8.900      116.899       88.324       54.867    13665.485     7801.060     3010.336        7.046        1.224      341.131       56.596        0.028      351.569       33.571      862.690
07/01/2013  18:47:00     -154.447      -71.873       -0.595       94.581      106.560       50.134     8945.515    11355.050     2513.425        2.591        1.141      170.352       51.213        0.090      351.542       33.524      862.682
07/01/2013  18:48:00     -147.618      -66.896        5.307       86.276       69.006       44.339     7443.486     4761.830     1965.915        2.023        0.709      162.068       39.404        0.059      351.529       33.501      862.668
07/01/2013  18:49:00      -67.879       93.263       -2.946       62.879       62.089       33.032     3953.814     3854.988     1091.082        1.111        0.445      115.349       33.626        0.085      351.373       33.231      862.661
07/01/2013  18:50:00     -135.947      151.879      -23.126       56.367       49.174       28.692     3177.266     2418.053      823.218        2.425        0.321      203.835       22.775        0.012      351.510       33.467      862.643
07/01/2013  18:51:00     -161.520       82.448      -13.823       84.090       46.124       37.391     7071.171     2127.395     1398.098        2.184        0.530      181.346       38.710        0.046      351.475       33.408      862.632
07/01/2013  18:52:00     -178.771      115.976      -21.988       81.486       39.927       33.316     6640.018     1594.164     1109.953        2.762        0.467      213.095       35.491        0.028      351.476       33.408      862.635
07/01/2013  18:53:00     -139.998      127.985      -20.910      101.251      111.707       62.920    10251.817    12478.409     3958.900        3.155        1.334      189.683       73.843        0.152      351.509       33.467      862.623
07/01/2013  18:54:00     -159.573      205.137      -39.729       61.388       45.566       38.183     3768.514     2076.302     1457.917        3.821        0.365      259.894       35.639        0.019      351.512       33.470      862.593
07/01/2013  18:55:00     -158.763      115.818      -24.863       46.966       60.348       30.527     2205.767     3641.938      931.896        2.301        0.339      196.518       27.341        0.019      351.437       33.340      862.570
07/01/2013  18:56:00     -190.969      -40.236      -14.817       77.466       61.006       39.810     6001.029     3721.726     1584.857        2.481        0.565      195.162       28.655        0.022      351.387       33.252      862.555
07/01/2013  18:57:00     -172.323      -54.426      -18.187       46.340       61.889       42.214     2147.354     3830.197     1782.033        2.037        0.388      180.714       20.138        0.012      351.376       33.234      862.567
07/01/2013  18:58:00     -202.065      -84.367       -6.001      142.982       60.970       46.359    20443.710     3717.310     2149.191        3.714        1.316      218.970       57.290        0.068      351.315       33.129      862.551
07/01/2013  18:59:00     -269.041      -13.981      -14.616      109.819      103.953       58.478    12060.268    10806.287     3419.702        4.953        1.314      269.404       62.413        0.054      351.299       33.097      862.556
07/01/2013  19:00:00     -387.524        6.766      -14.152      161.426      172.057       68.854    26058.408    29603.533     4740.918       10.540        3.020      387.583       74.875        0.037      351.283       33.070      862.528
07/01/2013  19:01:00     -203.988      -82.345        3.144      183.053      105.818       64.374    33508.376    11197.385     4143.948        4.862        2.442      219.981       84.184        0.146      351.251       33.017      862.529
07/01/2013  19:02:00     -266.466      -36.379        1.499       98.255       82.677       56.886     9654.003     6835.511     3236.036        4.602        0.986      268.938       59.760        0.049      351.269       33.047      862.525
07/01/2013  19:03:00     -187.048     -130.016       -6.874      115.469      114.202       55.016    13333.057    13042.039     3026.721        4.066        1.470      227.796       68.125        0.089      351.260       33.031      862.522
07/01/2013  19:04:00     -167.582      -52.892        9.649      136.302       68.450       56.705    18578.349     4685.446     3215.490        2.872        1.324      175.730       68.617        0.152      351.273       33.055      862.504
07/01/2013  19:05:00     -129.949      -92.012        0.914       77.728       92.498       40.684     6041.606     8555.789     1655.193        2.080        0.813      159.227       29.372        0.034      351.264       33.039      862.508
07/01/2013  19:06:00     -187.164      -42.350        3.382      112.969      109.341       59.065    12761.960    11955.433     3488.618        3.252        1.410      191.896       62.362        0.106      351.225       32.970      862.510
07/01/2013  19:07:00     -263.985      -46.296       -5.987      122.222       80.985       55.158    14938.105     6558.560     3042.433        4.820        1.227      268.014       60.682        0.051      351.332       33.157      862.504
07/01/2013  19:08:00     -228.895      -34.728       -1.440      124.107      106.835       58.403    15402.620    11413.787     3410.923        4.191        1.511      231.514       65.730        0.081      351.268       33.045      862.510
07/01/2013  19:09:00     -302.946      -40.769       -3.761      134.511      106.762       61.516    18093.258    11398.200     3784.176        6.336        1.664      305.677       65.248        0.046      351.264       33.038      862.496
07/01/2013  19:10:00     -260.956      -41.332       -4.542      105.627       79.361       57.070    11157.163     6298.190     3256.930        4.527        1.036      264.209       46.752        0.031      351.257       33.025      862.475
07/01/2013  19:11:00     -330.679      -43.369       -1.272      131.180       86.774       64.645    17208.117     7529.699     4179.032        7.007        1.446      333.511       65.264        0.038      351.297       33.096      862.449
07/01/2013  19:12:00     -265.669      -53.881       -9.390      126.528       81.873       53.246    16009.392     6703.232     2835.140        4.955        1.277      271.078       61.061        0.051      351.247       33.008      862.437
07/01/2013  19:13:00     -267.596      -30.503      -19.883       95.926       78.070       45.082     9201.839     6094.850     2032.356        4.513        0.866      269.329       40.004        0.022      351.224       32.968      862.412
07/01/2013  19:14:00     -295.296      -95.481       -5.621      116.428      106.761       54.181    13555.376    11398.003     2935.569        6.211        1.394      310.349       53.099        0.029      351.255       33.023      862.378
07/01/2013  19:15:00     -185.421      -86.904       -4.668       78.225       86.863       55.075     6119.199     7545.237     3033.231        2.932        0.835      204.776       47.957        0.055      351.207       32.938      862.358
07/01/2013  19:16:00     -154.788      -34.575       -5.165      104.001       63.878       46.501    10816.239     4080.363     2162.389        2.112        0.853      158.603       47.324        0.089      351.163       32.862      862.342
07/01/2013  19:17:00     -211.820      -89.375       -3.468      105.074       81.711       48.906    11040.470     6676.724     2391.802        3.648        1.005      229.903       36.694        0.025      351.140       32.820      862.334
07/01/2013  19:18:00     -219.345      -17.018      -24.367       78.035       88.233       46.824     6089.434     7784.999     2192.454        3.253        0.803      220.004       21.683        0.010      351.144       32.829      862.321
07/01/2013  19:19:00     -322.556      -70.995      -20.841      137.773      114.006       60.420    18981.501    12997.312     3650.601        7.257        1.781      330.277       67.567        0.042      351.135       32.812      862.305
07/01/2013  19:20:00     -167.071      -46.200       -7.949      154.025      131.078       61.645    23723.660    17181.502     3800.096        3.740        2.235      173.341       54.115        0.097      351.030       32.631      862.267
07/01/2013  19:21:00     -434.809     -131.418      -15.467      160.230      119.829       72.739    25673.785    14358.937     5290.975       12.594        2.266      454.235       77.249        0.029      351.072       32.701      862.260
07/01/2013  19:22:00     -282.099     -151.178       -7.695      165.078      105.007       84.783    27250.639    11026.508     7188.175        7.397        2.273      320.054       84.561        0.070      351.036       32.638      862.222
07/01/2013  19:23:00     -440.781     -111.403      -23.317      189.510      175.098       87.969    35914.081    30659.183     7738.609       14.076        3.716      454.641       92.971        0.042      351.050       32.664      862.195
07/01/2013  19:24:00     -367.308      -69.371      -14.202      201.437      145.514       98.478    40576.745    21174.214     9697.843       10.567        3.572      373.801      113.072        0.092      351.039       32.645      862.179
07/01/2013  19:25:00     -420.004     -132.702       -8.759      177.140      119.630       76.776    31378.586    14311.291     5894.617       12.283        2.579      440.470       85.663        0.038      351.056       32.673      862.180
07/01/2013  19:26:00     -378.426      -91.370        0.245      159.651      149.510       63.692    25488.506    22353.344     4056.646       10.172        2.595      389.300       62.720        0.026      351.052       32.666      862.161
07/01/2013  19:27:00     -460.483      -55.479      -41.867      139.653      133.653       68.278    19502.834    17863.160     4661.825       12.944        2.101      463.813       55.452        0.014      351.096       32.742      862.161
07/01/2013  19:28:00     -309.649      -41.775      -24.001      177.600       87.553       64.664    31541.879     7665.615     4181.435        7.079        2.169      312.454       83.201        0.071      351.059       32.679      862.150
07/01/2013  19:29:00     -385.796      -77.795      -11.757      169.824      120.614       73.533    28840.170    14547.767     5407.037       10.190        2.440      393.561       86.448        0.048      351.076       32.708      862.141
07/01/2013  19:30:00     -325.566     -137.340       -8.974      111.662      143.889       69.418    12468.324    20703.982     4818.828        8.146        1.900      353.349       63.327        0.032      351.090       32.732      862.143
07/01/2013  19:31:00     -251.350      -69.763        2.064       85.457      118.489       55.668     7302.941    14039.738     3098.941        4.624        1.222      260.852       48.903        0.035      351.060       32.680      862.153
07/01/2013  19:32:00     -331.971       18.957      -20.790       99.736       98.807       55.123     9947.234     9762.905     3038.533        6.687        1.137      332.512       50.085        0.023      351.118       32.780      862.144
07/01/2013  19:33:00     -218.220      -75.105       -7.293      115.359       75.092       53.201    13307.809     5638.802     2830.394        3.754        1.089      230.783       60.489        0.069      351.119       32.786      862.148
07/01/2013  19:34:00     -221.409      -72.715      -18.486      188.514      107.015       59.494    35537.470    11452.204     3539.482        5.258        2.526      233.044       76.607        0.108      351.169       32.873      862.150
07/01/2013  19:35:00     -236.219      -57.595        3.887      117.220       89.635       50.146    13740.467     8034.428     2514.583        4.171        1.214      243.139       56.504        0.054      351.180       32.892      862.179
07/01/2013  19:36:00     -144.212      -84.687        1.713      107.590       79.915       54.269    11575.651     6386.333     2945.145        2.444        1.045      167.239       44.756        0.072      351.109       32.768      862.188
07/01/2013  19:37:00     -109.164      -59.653        1.465       65.865       71.963       40.866     4338.213     5178.626     1670.000        1.333        0.559      124.400       33.425        0.072      351.087       32.731      862.218
07/01/2013  19:38:00     -144.134      -24.067        5.297      121.810       88.479       48.037    14837.627     7828.532     2307.559        2.317        1.249      146.129       43.544        0.089      351.025       32.622      862.219
07/01/2013  19:39:00     -230.035      -76.504      -29.070       97.522       71.464       36.802     9510.515     5107.091     1354.411        3.779        0.799      242.423       39.770        0.027      351.096       32.745      862.233
07/01/2013  19:40:00     -235.695      -56.902      -11.016       84.855       82.876       42.193     7200.424     6868.381     1780.218        3.738        0.792      242.466       33.370        0.019      351.079       32.714      862.235
07/01/2013  19:41:00     -183.107      -96.068        6.167       98.387       91.604       45.827     9680.081     8391.356     2100.087        3.148        1.009      206.778       52.270        0.064      351.001       32.580      862.245
07/01/2013  19:42:00     -193.744      -33.078        3.987       79.321       78.166       45.801     6291.872     6109.859     2097.692        2.657        0.725      196.547       39.428        0.040      351.052       32.669      862.244
07/01/2013  19:43:00     -190.460      -41.979      -13.092       90.548       88.456       34.855     8198.914     7824.411     1214.880        2.772        0.862      195.031       41.887        0.046      351.004       32.584      862.244
07/01/2013  19:44:00     -202.123      -64.244       -4.024       61.801       67.498       37.120     3819.363     4555.982     1377.858        2.737        0.488      212.088       23.854        0.013      351.036       32.639      862.244
07/01/2013  19:45:00     -140.037      -67.546       -6.000       73.910       47.060       24.785     5462.663     2214.667      614.298        1.625        0.415      155.476       31.662        0.041      350.972       32.531      862.243
07/01/2013  19:46:00     -160.081      -77.329       -5.199       65.479       77.949       40.378     4287.451     6076.042     1630.348        2.181        0.600      177.780       36.301        0.042      350.977       32.540      862.246
07/01/2013  19:47:00     -135.764     -105.767        2.408       89.113       87.347       47.837     7941.173     7629.557     2288.423        2.374        0.893      172.100       52.912        0.095      350.968       32.523      862.252
07/01/2013  19:48:00     -162.348     -131.695        2.666      103.544       78.991       49.779    10721.328     6239.644     2477.917        3.157        0.972      209.047       49.539        0.056      350.953       32.495      862.259
07/01/2013  19:49:00      -75.048      -45.591       10.152       92.492       62.166       35.162     8554.697     3864.608     1236.349        1.073        0.683       87.811       40.000        0.208      350.889       32.386      862.271
07/01/2013  19:50:00      -56.047      -48.818       17.637       71.020       59.152       33.367     5043.795     3499.002     1113.376        0.774        0.483       74.326       40.739        0.300      350.780       32.198      862.283
07/01/2013  19:51:00     -109.957      -41.818        0.346       80.702       42.224       36.686     6512.760     1782.824     1345.887        1.174        0.482      117.640       42.745        0.132      350.904       32.411      862.290
07/01/2013  19:52:00     -114.895      -45.506        8.319       70.305       67.504       38.857     4942.860     4556.754     1509.897        1.317        0.550      123.579       40.454        0.107      350.923       32.446      862.289
07/01/2013  19:53:00      -23.672       19.173        7.456       41.080       41.594       21.794     1687.532     1730.056      474.973        0.244        0.195       30.463        8.840        0.084      350.623       31.926      862.285
07/01/2013  19:54:00       11.865        9.247       23.535       30.180       43.314       25.081      910.852     1876.144      629.044        0.210        0.171       15.043       20.464        1.851      350.056       30.939      862.280
07/01/2013  19:55:00        3.196      -10.220       -0.378       23.941       17.770       22.963      573.150      315.761      527.295        0.077        0.071       10.708       11.838        1.222      349.945       30.747      862.289
07/01/2013  19:56:00      -46.112       -6.550       10.839       75.702       43.339       33.981     5730.821     1878.297     1154.705        0.552        0.438       46.575       37.419        0.645      350.331       31.416      862.296
07/01/2013  19:57:00     -110.334       30.471       -3.804       57.273       33.915       28.760     3280.208     1150.217      827.115        0.919        0.263      114.464       23.394        0.042      350.703       32.064      862.306
07/01/2013  19:58:00     -174.794       39.857       -6.078       44.942       39.001       23.874     2019.757     1521.110      569.980        1.814        0.206      179.281       19.312        0.012      350.807       32.246      862.316
07/01/2013  19:59:00     -122.363       56.473      -10.989       46.046       26.969       20.624     2120.272      727.347      425.367        1.078        0.164      134.766       18.974        0.020      350.845       32.312      862.326
07/01/2013  20:00:00      -41.906       60.274       -7.624       23.833       25.635       18.370      567.996      657.142      337.444        0.350        0.078       73.410        5.260        0.005      350.674       32.012      862.351
07/01/2013  20:01:00      -15.888       40.256       11.822       43.093       20.042       22.867     1857.018      401.665      522.912        0.240        0.139       43.278       21.633        0.250      350.580       31.851      862.366
07/01/2013  20:02:00     -100.321       36.192      -11.252       23.188       21.355       17.726      537.686      456.050      314.196        0.640        0.065      106.650       11.968        0.013      350.802       32.235      862.388
07/01/2013  20:03:00      -88.778       27.943      -20.542       54.556       54.072       23.527     2976.410     2923.786      553.542        0.777        0.323       93.072       16.882        0.033      350.834       32.294      862.402
07/01/2013  20:04:00      -13.018       14.366        7.593       27.620       42.133       19.272      762.854     1775.225      371.426        0.167        0.145       19.387       16.053        0.686      350.615       31.911      862.418
07/01/2013  20:05:00       -4.490       31.127       11.856       24.688       20.981       16.883      609.512      440.205      285.035        0.123        0.067       31.450       16.793        0.285      350.531       31.766      862.424
07/01/2013  20:06:00       18.634       14.105        5.601       19.223       17.057       13.306      369.528      290.949      177.058        0.071        0.042       23.371        8.476        0.132      350.521       31.747      862.432
07/01/2013  20:07:00       76.729       32.101        7.639       23.885       33.129       26.446      570.512     1097.552      699.415        0.467        0.118       83.174       10.057        0.015      349.788       30.473      862.444
07/01/2013  20:08:00       27.043       52.975       -8.524       25.868       30.737       14.772      669.151      944.776      218.200        0.272        0.092       59.478       14.506        0.059      350.098       31.013      862.458
07/01/2013  20:09:00        2.066      102.504      -10.729       13.579       13.147       11.607      184.398      172.854      134.715        0.556        0.025      102.525        6.939        0.005      350.709       32.075      862.475
07/01/2013  20:10:00       -9.096       88.898       -7.065       17.325       13.779       12.625      300.143      189.860      159.379        0.434        0.032       89.362        7.502        0.007      350.495       31.701      862.493
07/01/2013  20:11:00      -30.829       78.484       -9.502       12.188       11.443        9.892      148.554      130.934       97.858        0.379        0.019       84.322        6.709        0.006      350.392       31.522      862.505
07/01/2013  20:12:00      -12.454       51.777       11.061       20.408       30.745       14.793      416.488      945.285      218.837        0.227        0.079       53.254       17.484        0.108      350.356       31.460      862.519
07/01/2013  20:13:00      -23.159       70.776       -5.212       27.243       35.977       18.428      742.192     1294.318      339.597        0.397        0.119       74.469       15.345        0.042      350.419       31.569      862.539
07/01/2013  20:14:00      -68.689      103.459       -5.189       34.008       50.936       19.647     1156.574     2594.473      386.011        0.979        0.207      124.185       20.085        0.026      350.578       31.846      862.559
07/01/2013  20:15:00      -37.019       14.768        1.434       24.352       20.812       14.465      592.998      433.123      209.231        0.141        0.062       39.856       16.382        0.169      350.398       31.534      862.585
07/01/2013  20:16:00      -88.235      -18.374       -4.795       33.558       21.350       13.085     1126.167      455.814      171.227        0.495        0.088       90.128       14.435        0.026      350.442       31.610      862.602
07/01/2013  20:17:00     -109.120      -26.967      -12.148       35.231       38.733       15.842     1241.226     1500.258      250.968        0.789        0.150      112.403       15.507        0.019      350.797       32.226      862.604
07/01/2013  20:18:00     -104.025      -41.676       -0.477       35.348       33.687       18.236     1249.514     1134.802      332.549        0.764        0.136      112.063       16.552        0.022      350.920       32.441      862.608
07/01/2013  20:19:00     -111.116      -77.249        4.419       63.517       37.669       30.858     4034.451     1418.918      952.193        1.237        0.320      135.330       34.887        0.066      350.817       32.261      862.609
07/01/2013  20:20:00      -53.355      -55.542       10.566       67.728       48.033       31.340     4587.060     2307.149      982.194        0.696        0.394       77.018       28.543        0.137      350.720       32.094      862.619
07/01/2013  20:21:00      -52.428      -40.880       11.415       76.533       54.251       38.844     5857.276     2943.224     1508.873        0.743        0.515       66.482       42.076        0.401      350.682       32.028      862.630
07/01/2013  20:22:00     -164.675     -138.352       -0.881       66.106       50.727       45.238     4369.995     2573.230     2046.493        2.762        0.449      215.079       39.578        0.034      350.830       32.281      862.643
07/01/2013  20:23:00     -120.797     -116.339       -9.968       55.512       48.625       37.078     3081.637     2364.427     1374.752        1.752        0.341      167.710       32.769        0.038      350.767       32.174      862.652
07/01/2013  20:24:00     -124.791      -63.091       -8.192       55.531       59.444       27.615     3083.717     3533.614      762.603        1.350        0.369      139.833       26.960        0.037      350.891       32.391      862.662
07/01/2013  20:25:00     -124.308      -35.041       10.627       83.143       50.125       35.271     6912.688     2512.502     1244.018        1.373        0.533      129.152       41.915        0.105      350.797       32.227      862.676
07/01/2013  20:26:00     -153.438       -6.976       -8.079       47.164       33.053       25.237     2224.450     1092.507      636.922        1.380        0.198      153.597       24.947        0.026      350.950       32.494      862.695
07/01/2013  20:27:00      -46.319      -40.925       10.818       65.337       30.781       24.105     4268.920      947.487      581.070        0.487        0.290       61.809       23.911        0.150      350.623       31.923      862.720
07/01/2013  20:28:00      -56.109      -73.582        6.338       42.254       32.928       17.713     1785.442     1084.256      313.767        0.589        0.159       92.534       19.196        0.043      350.879       32.371      862.746
07/01/2013  20:29:00      -23.079      -70.380        7.983       19.171       30.875       21.551      367.535      953.271      464.451        0.367        0.089       74.067       17.643        0.057      350.764       32.170      862.774
07/01/2013  20:30:00       31.493      -48.006       25.900       46.132       65.786       33.563     2128.142     4327.740     1126.452        0.577        0.379       57.414       41.979        0.535      350.287       31.339      862.818
07/01/2013  20:31:00       63.275      -99.388       -8.123       67.207       51.647       51.313     4516.802     2667.397     2632.999        1.188        0.491      117.821       37.793        0.103      350.078       30.976      862.844
07/01/2013  20:32:00      121.745     -216.571      -18.282       86.125      104.335       51.027     7417.501    10885.688     2603.731        4.148        1.045      248.445       41.704        0.028      350.368       31.478      862.861
07/01/2013  20:33:00      128.899     -186.943      -24.397       70.730       82.220       42.389     5002.740     6760.105     1796.787        3.286        0.678      227.074       37.547        0.027      350.315       31.386      862.878
07/01/2013  20:34:00      129.757     -215.902       -3.072      102.026      120.998       62.845    10409.390    14640.574     3949.441        4.622        1.450      251.894       48.703        0.037      350.280       31.326      862.899
07/01/2013  20:35:00       81.073     -144.978       12.898       80.306       88.739       59.951     6449.030     7874.576     3594.102        2.283        0.896      166.107       47.709        0.082      350.167       31.129      862.922
07/01/2013  20:36:00       87.501     -176.420       16.176       88.903      109.498       66.915     7903.714    11989.854     4477.678        3.170        1.219      196.927       70.314        0.127      350.254       31.282      862.942
07/01/2013  20:37:00        9.450     -102.261        4.141       61.218       68.598       36.840     3747.592     4705.753     1357.200        1.019        0.491      102.697       38.340        0.139      350.173       31.140      862.955
07/01/2013  20:38:00        3.551      -34.426       19.597       57.601       59.076       27.583     3317.838     3489.963      760.803        0.457        0.378       34.609       29.417        0.722      349.981       30.811      862.973
07/01/2013  20:39:00       20.874      -11.121       39.706       38.872       51.950       26.891     1511.045     2698.805      723.121        0.353        0.247       23.651       23.058        0.950      349.820       30.529      862.970
07/01/2013  20:40:00       45.739      -64.768       30.333       55.810       50.441       45.070     3114.788     2544.345     2031.274        0.745        0.385       79.291       24.774        0.098      349.972       30.793      862.967
07/01/2013  20:41:00       13.318      -57.358       18.804       51.811       47.671       31.544     2684.412     2272.506      995.030        0.489        0.298       58.884       14.036        0.057      350.058       30.943      862.964
07/01/2013  20:42:00       25.759      -55.788       25.090       32.686       67.942       28.284     1068.350     4616.095      799.973        0.544        0.324       61.448       31.779        0.267      349.964       30.779      862.963
07/01/2013  20:43:00       31.193      -43.404       19.974       30.682       44.838       22.007      941.406     2010.461      484.289        0.335        0.172       53.451       18.101        0.115      350.155       31.110      862.963
07/01/2013  20:44:00       72.704      -92.424       19.955       53.457       77.110       37.502     2857.677     5945.894     1406.369        1.222        0.510      117.593       41.050        0.122      350.334       31.420      862.970
07/01/2013  20:45:00       68.684      -94.499       20.524       45.453       67.455       34.768     2066.006     4550.152     1208.848        1.095        0.391      116.823       35.317        0.091      350.332       31.418      862.970
07/01/2013  20:46:00       25.420      -38.074       33.646       37.192       44.788       24.426     1383.226     2005.953      596.612        0.361        0.199       45.780       27.399        0.358      350.137       31.079      862.978
07/01/2013  20:47:00       54.887      -30.955       31.985       53.071       56.111       27.776     2816.514     3148.445      771.514        0.586        0.337       63.014       31.583        0.251      350.124       31.057      862.988
07/01/2013  20:48:00       41.657      -24.930       26.083       56.164       43.177       25.511     3154.386     1864.280      650.830        0.435        0.283       48.547       19.331        0.159      349.765       30.434      862.993
07/01/2013  20:49:00       15.228       -9.483       24.407       37.978       27.436       18.066     1442.341      752.727      326.372        0.172        0.126       17.939       14.640        0.666      349.701       30.323      863.017
07/01/2013  20:50:00       22.960      -35.312       24.385       29.279       26.721       22.876      857.235      714.004      523.291        0.223        0.105       42.120       16.185        0.148      349.866       30.609      863.036
07/01/2013  20:51:00       11.298      -10.366       26.418       26.601       31.073       28.207      707.591      965.510      795.654        0.170        0.123       15.333       24.472        2.547      349.899       30.665      863.048
07/01/2013  20:52:00       23.949      -28.376       11.141       23.317       27.569       21.290      543.687      760.067      453.264        0.163        0.088       37.132       17.871        0.232      349.578       30.109      863.078
07/01/2013  20:53:00       55.024      -42.012       -7.958       36.564       32.798       25.522     1336.928     1075.680      651.382        0.396        0.153       69.229       19.098        0.076      349.146       29.361      863.093
07/01/2013  20:54:00       57.245      -54.810       -3.204       41.854       39.411       29.450     1751.747     1553.249      867.286        0.523        0.209       79.253       22.980        0.084      349.270       29.576      863.102
07/01/2013  20:55:00       45.556      -42.692       11.350       40.574       37.926       37.109     1646.234     1438.414     1377.088        0.424        0.223       62.433       35.009        0.314      349.323       29.667      863.130
07/01/2013  20:56:00       68.254      -70.656       -2.396       41.514       38.510       30.227     1723.422     1483.047      913.672        0.689        0.206       98.239       27.010        0.076      349.252       29.543      863.143
07/01/2013  20:57:00       81.652      -33.305        8.016       39.942       31.328       28.120     1595.391      981.461      790.755        0.560        0.168       88.183       23.980        0.074      349.115       29.306      863.158
07/01/2013  20:58:00       20.093       -6.630       17.044       30.513       30.712       19.419      931.058      943.247      377.099        0.149        0.113       21.158       21.407        1.024      349.091       29.263      863.166
07/01/2013  20:59:00       37.909      -23.350       20.939       37.212       49.435       22.382     1384.739     2443.789      500.964        0.337        0.216       44.523       23.678        0.283      349.310       29.645      863.182
07/01/2013  21:00:00       41.371       -1.267       24.695       34.638       18.140       24.476     1199.767      329.076      599.083        0.223        0.106       41.391       19.170        0.215      349.252       29.543      863.193
07/01/2013  21:01:00       67.866       -2.083       13.635       18.013       21.550       25.530      324.467      464.423      651.768        0.312        0.072       67.898       18.727        0.076      349.617       30.175      863.202
07/01/2013  21:02:00       57.841       -0.728       -1.500       20.445       24.995       14.992      418.012      624.751      224.753        0.231        0.063       57.846       13.500        0.054      350.115       31.043      863.215
07/01/2013  21:03:00       26.180       40.046       13.879       13.914       11.789       13.512      193.608      138.989      182.581        0.150        0.026       47.845       10.307        0.046      350.272       31.312      863.227
07/01/2013  21:04:00        6.183       20.252        0.812       17.017       15.357        9.344      289.587      235.828       87.315        0.053        0.031       21.175        7.615        0.129      350.207       31.200      863.239
07/01/2013  21:05:00      -18.997       30.401      -10.180       15.184        9.293        5.431      230.555       86.366       29.494        0.087        0.017       35.848        5.636        0.025      350.225       31.233      863.263
07/01/2013  21:06:00      -29.159       24.734       -9.122       14.500       10.724        6.199      210.237      115.011       38.422        0.095        0.018       38.236        7.604        0.040      350.156       31.112      863.270
07/01/2013  21:07:00      -38.951       14.353       -4.199       13.297       13.508       10.276      176.798      182.466      105.600        0.110        0.023       41.511        7.645        0.034      349.957       30.766      863.277
07/01/2013  21:08:00      -49.951        4.258       -3.932       11.216        9.128        8.159      125.793       83.312       66.577        0.140        0.014       50.133        2.848        0.003      349.910       30.684      863.281
07/01/2013  21:09:00      -68.303      -21.623       -0.973       29.460       22.118       14.514      867.913      489.214      210.645        0.335        0.078       71.644       13.281        0.034      349.827       30.542      863.296
07/01/2013  21:10:00      -59.156       -1.851       -3.162       50.043       21.630       15.022     2504.270      467.842      225.663        0.335        0.160       59.185       18.525        0.098      349.647       30.228      863.303
07/01/2013  21:11:00      -92.242        6.883       -3.458       30.281       22.129       19.232      916.952      489.693      369.886        0.517        0.089       92.498       20.046        0.047      349.410       29.818      863.314
07/01/2013  21:12:00     -116.171        7.511       -3.135       26.605       21.046       14.068      707.830      442.917      197.902        0.746        0.067      116.414       10.936        0.009      349.581       30.115      863.323
07/01/2013  21:13:00      -93.121        0.301       -2.067       19.122       23.455       14.671      365.643      550.153      215.250        0.490        0.057       93.122       12.044        0.017      349.621       30.183      863.334
07/01/2013  21:14:00     -125.881        5.138      -10.814       28.992       21.497       14.519      840.548      462.125      210.807        0.875        0.076      125.986       13.249        0.011      349.484       29.946      863.352
07/01/2013  21:15:00     -144.861        3.272      -16.683       26.036       25.561       15.842      677.885      653.367      250.973        1.143        0.079      144.898        9.087        0.004      349.623       30.187      863.365
07/01/2013  21:16:00     -124.116       28.782      -12.605       44.794       21.909       17.945     2006.463      480.001      322.031        0.960        0.140      127.410       18.988        0.022      349.506       29.983      863.365
07/01/2013  21:17:00     -122.426       32.628       -6.642       25.939       23.230       20.195      672.809      539.630      407.832        0.886        0.081      126.699        9.504        0.006      349.406       29.810      863.371
07/01/2013  21:18:00      -99.907      -11.922       -2.881       31.494       25.847       17.489      991.852      668.057      305.882        0.605        0.098      100.616       14.638        0.021      349.418       29.831      863.387
07/01/2013  21:19:00      -90.709        5.621       -2.371       32.241       27.495       14.677     1039.494      755.993      215.402        0.514        0.101       90.883       10.986        0.015      349.443       29.875      863.404
07/01/2013  21:20:00     -105.013       -3.336       -6.266       25.103       22.787       16.153      630.167      519.240      260.923        0.624        0.071      105.066       14.129        0.018      349.581       30.114      863.418
07/01/2013  21:21:00      -81.208       -2.896       -2.106       26.161       19.915       12.859      684.417      396.616      165.357        0.393        0.062       81.259       12.472        0.024      349.540       30.043      863.424
07/01/2013  21:22:00      -49.127      -12.657        3.760       29.291       29.316       18.833      857.976      859.456      354.687        0.233        0.104       50.731       16.606        0.107      349.429       29.850      863.436
07/01/2013  21:23:00      -55.126       -6.612       -0.384       25.218       17.634       11.664      635.938      310.955      136.041        0.208        0.054       55.521       11.050        0.040      349.374       29.756      863.456
07/01/2013  21:24:00      -76.083        7.816       -3.368       25.467       18.572       15.374      648.579      344.922      236.347        0.355        0.061       76.483        8.426        0.012      349.352       29.717      863.479
07/01/2013  21:25:00      -81.770       32.079       -1.568       20.980       14.247       12.785      440.161      202.984      163.450        0.426        0.040       87.838       10.070        0.013      349.560       30.080      863.511
07/01/2013  21:26:00      -66.363       35.641       -5.006       25.121       17.320       10.338      631.060      299.982      106.864        0.337        0.052       75.329       11.228        0.022      349.642       30.220      863.531
07/01/2013  21:27:00      -31.583       33.490        1.228       22.857       26.378       15.304      522.439      695.800      234.199        0.179        0.073       46.033       15.331        0.111      349.570       30.095      863.550
07/01/2013  21:28:00      -16.549       56.808       -6.205       13.688       20.933       10.332      187.365      438.182      106.759        0.214        0.037       59.169        6.461        0.012      349.565       30.086      863.573
07/01/2013  21:29:00      -49.130      109.068      -14.434       27.028       16.251       13.777      730.493      264.088      189.815        0.785        0.059      119.623       12.811        0.011      349.609       30.162      863.602
07/01/2013  21:30:00      -15.624       71.658       -4.905       24.344       19.484       15.804      592.617      379.627      249.775        0.331        0.061       73.341       12.680        0.030      349.563       30.082      863.645
07/01/2013  21:31:00       43.373       52.659       -2.960       40.263       22.415       14.478     1621.115      502.425      209.618        0.350        0.117       68.221       11.654        0.029      349.510       29.991      863.686
07/01/2013  21:32:00      106.548       52.232       12.298       39.870       31.171       30.224     1589.609      971.629      913.479        0.885        0.174      118.662       17.630        0.022      349.441       29.872      863.720
07/01/2013  21:33:00      133.474       54.207       25.352       56.253       48.821       37.280     3164.390     2383.456     1389.833        1.417        0.347      144.061       30.335        0.044      349.431       29.855      863.749
07/01/2013  21:34:00      103.289       74.964       12.983       49.851       30.407       26.616     2485.117      924.597      708.412        1.029        0.206      127.625       17.616        0.019      349.482       29.944      863.782
07/01/2013  21:35:00       98.205       63.776       17.620       37.239       29.704       25.096     1386.713      882.353      629.818        0.846        0.145      117.097       21.473        0.034      349.557       30.073      863.812
07/01/2013  21:36:00      129.123       83.920       15.381       40.323       38.837       36.955     1625.965     1508.333     1365.704        1.423        0.225      153.998       25.041        0.026      349.628       30.196      863.830
07/01/2013  21:37:00      119.922       54.062       28.864       52.744       37.913       44.740     2781.967     1437.418     2001.656        1.218        0.311      131.545       31.481        0.057      349.634       30.207      863.844
07/01/2013  21:38:00      147.725       97.410       15.686       36.882       29.620       28.472     1360.293      877.372      810.648        1.730        0.152      176.950       18.157        0.011      349.717       30.350      863.864
07/01/2013  21:39:00      103.909       66.492       11.593       39.428       37.654       33.032     1554.538     1417.818     1091.096        0.971        0.203      123.363       25.958        0.044      349.701       30.321      863.881
07/01/2013  21:40:00      100.457       64.690       13.806       34.206       24.573       25.344     1170.057      603.817      642.328        0.844        0.121      119.485       12.412        0.011      349.691       30.305      863.895
07/01/2013  21:41:00       78.298       58.530       17.723       25.704       16.613       21.761      660.674      275.979      473.561        0.564        0.071       97.756       12.375        0.016      349.673       30.274      863.917
07/01/2013  21:42:00       54.811       47.778        4.737       29.335       22.480       19.082      860.538      505.351      364.132        0.352        0.087       72.712       16.084        0.049      349.706       30.330      863.923
07/01/2013  21:43:00       45.426       42.385        2.722       28.818       22.942       20.695      830.502      526.333      428.268        0.283        0.089       62.129       18.843        0.092      349.695       30.311      863.931
07/01/2013  21:44:00       25.261       38.623       -0.367       33.016       25.361       14.106     1090.035      643.186      198.968        0.203        0.097       46.150        9.100        0.039      349.642       30.222      863.947
07/01/2013  21:45:00       74.458       51.498        5.784       22.271       16.297       15.110      495.991      265.597      228.307        0.461        0.049       90.532       11.145        0.015      349.673       30.273      863.964
07/01/2013  21:46:00       76.079       39.526       19.068       19.240       18.180       12.417      370.182      330.524      154.185        0.428        0.043       85.734        9.670        0.013      349.635       30.208      863.969
07/01/2013  21:47:00       83.098       32.389        7.455       22.066       17.485       14.571      486.915      305.720      212.328        0.451        0.050       89.187       11.490        0.017      349.599       30.146      863.987
07/01/2013  21:48:00       82.860       34.059        6.974       19.453       15.595       16.498      378.406      243.201      272.180        0.448        0.045       89.587       10.771        0.014      349.623       30.186      864.008
07/01/2013  21:49:00       72.219       33.533        6.413       23.767       17.602       15.061      564.882      309.846      226.847        0.374        0.055       79.624       12.297        0.024      349.658       30.246      864.037
07/01/2013  21:50:00       67.575       26.753        7.218       25.918       25.210       12.080      671.742      635.564      145.930        0.339        0.073       72.678        7.345        0.010      349.644       30.223      864.073
07/01/2013  21:51:00       29.226       29.826       28.609       24.575       16.286       18.199      603.949      265.233      331.215        0.188        0.060       41.758       13.577        0.106      349.663       30.257      864.096
07/01/2013  21:52:00       12.131       35.909       35.704       15.734       20.015       14.987      247.553      400.599      224.609        0.179        0.044       37.902       10.604        0.078      349.641       30.216      864.124
07/01/2013  21:53:00       37.114       35.655       33.982       16.570       17.314       17.375      274.565      299.774      301.878        0.234        0.044       51.466        3.888        0.006      349.727       30.366      864.150
07/01/2013  21:54:00       18.094       26.365       39.420       21.369       21.758       14.004      456.639      473.406      196.102        0.185        0.056       31.976       10.973        0.118      349.699       30.318      864.183
07/01/2013  21:55:00       -1.624       -8.644       28.255        8.929       22.933       11.993       79.730      525.927      143.827        0.081        0.037        8.796        5.444        0.383      349.694       30.310      864.212
07/01/2013  21:56:00       10.205      -45.866       19.565       14.864       34.002       25.314      220.946     1156.108      640.797        0.230        0.101       46.987        8.204        0.030      349.683       30.291      864.234
07/01/2013  21:57:00       43.109      -72.882       -0.002       22.924       38.002       23.978      525.512     1444.139      574.952        0.486        0.127       84.676       17.310        0.042      349.725       30.363      864.248
07/01/2013  21:58:00       66.861     -104.225       -9.219       26.047       19.714       13.707      678.455      388.630      187.886        0.834        0.063      123.827       10.699        0.007      349.782       30.463      864.265
07/01/2013  21:59:00       35.373      -89.957        1.447       32.212       27.604       22.482     1037.602      761.975      505.443        0.582        0.115       96.662       14.980        0.024      349.683       30.290      864.278
07/01/2013  22:00:00      -30.059      -53.013       -2.513       44.455       39.680       16.587     1976.233     1574.517      275.122        0.377        0.191       60.942       10.034        0.027      349.572       30.097      864.297
07/01/2013  22:01:00     -115.063      -81.353      -13.477       37.008       41.242       24.976     1369.567     1700.869      623.814        1.187        0.185      140.918       17.450        0.015      349.453       29.890      864.312
07/01/2013  22:02:00     -114.946     -106.982       -3.825       59.932       53.015       28.976     3591.883     2810.554      839.629        1.596        0.362      157.028       24.604        0.025      349.670       30.266      864.307
07/01/2013  22:03:00     -159.596     -115.030        3.567       67.610       58.623       34.835     4571.158     3436.614     1213.445        2.397        0.461      196.730       25.351        0.017      349.573       30.096      864.285
07/01/2013  22:04:00     -210.174     -109.979       -6.188       54.127       60.848       32.063     2929.774     3702.510     1028.063        3.198        0.383      237.210       25.534        0.012      349.622       30.182      864.254
07/01/2013  22:05:00     -163.814     -103.393       -9.031       56.021       45.404       35.255     3138.329     2061.538     1242.947        2.202        0.322      193.714       35.074        0.033      349.669       30.264      864.224
07/01/2013  22:06:00     -131.132      -80.671        0.039       67.405       58.285       29.455     4543.501     3397.128      867.589        1.625        0.440      153.959       33.736        0.048      349.594       30.137      864.196
07/01/2013  22:07:00     -147.526      -95.295        6.824       88.163       72.348       43.779     7772.778     5234.180     1916.588        2.290        0.746      175.628       45.166        0.066      349.602       30.147      864.181
07/01/2013  22:08:00     -144.856      -90.237       -5.851       59.347       57.994       34.179     3522.120     3363.330     1168.185        1.861        0.403      170.663       34.212        0.040      349.594       30.137      864.177
07/01/2013  22:09:00     -168.200      -59.105       -1.226       70.541       53.008       32.581     4976.027     2809.876     1061.547        2.032        0.442      178.283       31.464        0.031      349.589       30.126      864.186
07/01/2013  22:10:00     -120.115      -34.579        4.960       63.233       43.530       27.433     3998.410     1894.820      752.588        1.115        0.332      124.993       26.388        0.045      349.515       29.998      864.201
07/01/2013  22:11:00      -21.388      -32.843       12.853       67.346       27.572       24.760     4535.546      760.230      613.039        0.380        0.295       39.193       31.482        0.645      349.570       30.096      864.216
07/01/2013  22:12:00       40.431       19.616       26.860       26.794       21.261       20.651      717.900      452.043      426.476        0.217        0.080       44.938        9.062        0.041      349.463       29.909      864.259
07/01/2013  22:13:00      104.863       97.695       41.162       62.492       55.117       47.043     3905.227     3037.848     2213.079        1.569        0.458      143.319       30.156        0.044      349.410       29.817      864.310
07/01/2013  22:14:00      204.977       98.926       43.140       72.819       60.253       62.439     5302.584     3630.443     3898.635        3.324        0.642      227.600       30.065        0.017      349.215       29.477      864.359
07/01/2013  22:15:00      195.532      121.028       29.784       66.336       53.036       47.341     4400.478     2812.848     2241.130        3.161        0.473      229.957       31.149        0.018      349.086       29.250      864.399
07/01/2013  22:16:00      134.491       79.253       34.484       78.509       49.639       47.830     6163.585     2464.029     2287.683        1.823        0.546      156.105       36.243        0.054      349.090       29.261      864.412
07/01/2013  22:17:00      158.945      108.252       23.876       68.570       48.186       41.347     4701.873     2321.905     1709.557        2.314        0.437      192.307       34.112        0.031      349.200       29.451      864.421
07/01/2013  22:18:00      139.746      100.160       17.399       47.978       41.881       34.626     2301.901     1753.987     1198.962        1.756        0.263      171.933       20.219        0.014      349.280       29.591      864.433
07/01/2013  22:19:00       92.694       62.934        9.504       57.643       46.457       39.021     3322.712     2158.208     1522.624        0.982        0.350      112.040       33.470        0.089      349.434       29.859      864.427
07/01/2013  22:20:00       29.656       51.264       -3.064       41.000       25.573       19.889     1680.985      653.969      395.568        0.312        0.137       59.224        6.030        0.010      349.506       29.982      864.423
07/01/2013  22:21:00      -58.263       57.320      -14.957       24.327       18.893        9.904      591.811      356.950       98.089        0.398        0.052       81.732        3.787        0.002      349.474       29.929      864.391
07/01/2013  22:22:00      -84.138       12.856      -13.126       21.737       17.606       11.843      472.509      309.987      140.265        0.417        0.046       85.115        9.508        0.012      349.061       29.213      864.361
07/01/2013  22:23:00      -75.709       20.778       -4.911       23.725       21.472       16.095      562.866      461.058      259.049        0.374        0.064       78.508       11.743        0.022      349.066       29.221      864.333
07/01/2013  22:24:00      -65.827       33.029      -19.762       23.247       22.912       16.494      540.407      524.980      272.049        0.358        0.067       73.648       11.572        0.025      349.187       29.431      864.313
07/01/2013  22:25:00      -73.138       50.730      -15.476       31.873       27.262       23.148     1015.890      743.200      535.811        0.523        0.115       89.009       14.806        0.028      349.416       29.828      864.298
07/01/2013  22:26:00      -80.495       41.486      -14.631       33.592       29.865       17.697     1128.422      891.929      313.187        0.537        0.117       90.556       12.312        0.018      349.538       30.040      864.277
07/01/2013  22:27:00      -82.729        2.712      -12.292       29.746       28.546       17.586      884.803      814.901      309.277        0.451        0.100       82.774       10.235        0.015      349.496       29.969      864.260
07/01/2013  22:28:00     -113.785       33.474       -4.749       58.632       46.411       29.665     3437.698     2153.943      879.994        1.028        0.324      118.607       22.816        0.037      349.425       29.844      864.240
07/01/2013  22:29:00     -162.552       43.795      -21.863       45.153       37.556       18.148     2038.824     1410.420      329.358        1.630        0.189      168.348       13.444        0.006      349.420       29.835      864.227
07/01/2013  22:30:00     -106.342       -2.848       -6.201       27.976       41.269       19.718      782.676     1703.146      388.810        0.711        0.144      106.380       13.566        0.016      349.336       29.688      864.230
07/01/2013  22:31:00      -90.704       -8.964       -7.621       29.306       33.548       20.402      858.860     1125.465      416.244        0.538        0.120       91.145        8.860        0.009      349.300       29.627      864.226
07/01/2013  22:32:00      -99.845       25.197      -12.009       32.322       26.183       20.327     1044.698      685.554      413.182        0.645        0.107      102.975       10.254        0.010      349.315       29.652      864.230
07/01/2013  22:33:00      -91.434       23.331       -6.331       45.382       34.459       24.906     2059.547     1187.400      620.299        0.641        0.193       94.364       22.422        0.056      349.327       29.674      864.239
07/01/2013  22:34:00      -64.981       45.222        1.891       65.823       41.089       26.372     4332.603     1688.338      695.488        0.649        0.336       79.168       28.568        0.130      349.368       29.744      864.253
07/01/2013  22:35:00       48.090       45.216       11.674       53.378       38.286       25.332     2849.203     1465.784      641.711        0.472        0.248       66.008       10.880        0.027      349.236       29.515      864.285
07/01/2013  22:36:00      129.459      113.712       69.851       57.842       40.274       53.709     3345.753     1621.959     2884.676        2.121        0.393      172.308       35.390        0.042      349.045       29.184      864.327
07/01/2013  22:37:00       96.235      151.337      100.886       67.244       44.118       70.442     4521.774     1946.430     4962.127        2.688        0.572      179.343       54.285        0.092      348.982       29.073      864.378
07/01/2013  22:38:00      106.091      101.962       63.744       69.013       54.382       49.895     4762.735     2957.370     2489.554        1.796        0.510      147.144       36.336        0.061      348.976       29.064      864.418
07/01/2013  22:39:00       76.789       37.554       66.922       87.824       48.807       51.378     7712.990     2382.131     2639.670        1.226        0.637       85.480       46.332        0.294      349.039       29.174      864.436
07/01/2013  22:40:00       96.047       42.761       55.796       79.632       61.405       51.937     6341.267     3770.552     2697.417        1.349        0.640      105.135       52.305        0.248      349.088       29.257      864.454
07/01/2013  22:41:00       57.312      -27.895       40.163       53.936       50.518       34.752     2909.064     2552.098     1207.724        0.617        0.333       63.740       30.523        0.229      349.146       29.360      864.456
07/01/2013  22:42:00       24.364      -41.991       15.446       27.407       58.561       31.397      751.126     3429.352      985.795        0.388        0.258       48.547       36.750        0.573      349.216       29.481      864.436
07/01/2013  22:43:00      -39.113      -24.913       -7.913       51.229       36.837       19.186     2624.431     1356.944      368.109        0.328        0.217       46.373       15.703        0.115      349.132       29.334      864.400
07/01/2013  22:44:00      -81.576       11.803       -5.516       12.285       10.696        8.265      150.918      114.411       68.318        0.358        0.017       82.425        7.092        0.007      348.897       28.928      864.381
07/01/2013  22:45:00      -37.388      -19.531       -2.715       20.357       17.317       10.686      414.426      299.877      114.186        0.131        0.041       42.182        9.374        0.049      348.982       29.076      864.380
07/01/2013  22:46:00       -6.460       -0.954        1.553        6.397        6.419        6.924       40.920       41.199       47.946        0.009        0.007        6.530        3.765        0.332      349.037       29.172      864.375
07/01/2013  22:47:00       15.799       17.446        8.960       12.427        7.072        8.158      154.437       50.020       66.558        0.045        0.014       23.536        3.860        0.027      349.076       29.237      864.372
07/01/2013  22:48:00       23.601       41.634       -2.313       10.022       12.741        8.410      100.435      162.342       70.732        0.131        0.017       47.858        7.985        0.028      349.129       29.330      864.365
07/01/2013  22:49:00       19.061       53.273       -7.757       11.418       10.061        6.121      130.373      101.215       37.466        0.177        0.013       56.580        3.504        0.004      349.162       29.387      864.371
07/01/2013  22:50:00       11.634       65.432      -10.097       15.105       11.668        9.685      228.172      136.147       93.798        0.249        0.023       66.458        5.493        0.007      349.107       29.292      864.359
07/01/2013  22:51:00      -11.587       96.083      -14.736       17.642       16.278        8.742      311.237      264.969       76.428        0.512        0.033       96.779        7.660        0.006      349.156       29.378      864.345
07/01/2013  22:52:00      -41.139       89.771      -14.363       20.234       22.448       15.029      409.397      503.913      225.860        0.555        0.057       98.749        8.764        0.008      348.966       29.051      864.332
07/01/2013  22:53:00      -41.209       54.377       -7.001       16.540       20.576       11.433      273.556      423.353      130.723        0.277        0.041       68.228        7.757        0.013      348.888       28.913      864.316
07/01/2013  22:54:00      -47.291      103.726       -8.291       19.868       19.929       13.279      394.752      397.176      176.335        0.702        0.048      113.998        8.917        0.006      348.991       29.091      864.310
07/01/2013  22:55:00      -31.834      145.234      -11.714       20.514       26.011       14.978      420.818      676.583      224.343        1.178        0.066      148.682       13.644        0.008      349.110       29.297      864.302
07/01/2013  22:56:00      -30.878      141.655      -10.416       27.761       28.171       16.564      770.680      793.587      274.366        1.148        0.092      144.982       14.897        0.011      349.084       29.252      864.272
07/01/2013  22:57:00      -39.818      123.898      -15.782       18.578       24.278       15.550      345.124      589.416      241.788        0.918        0.059      130.139       11.484        0.008      349.058       29.207      864.244
07/01/2013  22:58:00      -40.911      123.401      -13.069       27.904       29.695       12.785      778.644      881.807      163.446        0.945        0.091      130.006        5.461        0.002      349.109       29.296      864.219
07/01/2013  22:59:00      -58.897       82.827      -17.284       25.148       20.057       14.451      632.431      402.274      208.829        0.594        0.062      101.632       11.156        0.012      348.970       29.055      864.198
07/01/2013  23:00:00     -109.464      111.657      -29.359       36.421       29.822       16.008     1326.514      889.378      256.269        1.389        0.124      156.363       16.437        0.011      349.119       29.314      864.188
07/01/2013  23:01:00     -133.311      129.414      -31.927       31.221       39.135       22.562      974.753     1531.563      509.022        1.928        0.151      185.795       20.239        0.012      349.026       29.152      864.171
07/01/2013  23:02:00     -134.940      115.816      -29.196       30.618       42.797       22.618      937.441     1831.605      511.588        1.788        0.164      177.826       23.486        0.017      349.209       29.469      864.154
07/01/2013  23:03:00     -125.088       66.647      -16.616       29.611       26.778       21.405      876.840      717.056      458.166        1.121        0.103      141.734       15.909        0.013      349.045       29.185      864.134
07/01/2013  23:04:00     -140.080       68.877      -19.819       27.179       27.020       22.013      738.688      730.088      484.575        1.336        0.098      156.098       15.633        0.010      349.112       29.300      864.112
07/01/2013  23:05:00     -126.989       48.147      -14.021       25.920       27.885       18.039      671.825      777.549      325.413        1.021        0.089      135.809       14.426        0.011      349.059       29.208      864.095
07/01/2013  23:06:00     -135.079       30.061      -16.240       32.832       29.858       18.285     1077.973      891.486      334.329        1.086        0.115      138.384       12.133        0.008      349.050       29.194      864.080
07/01/2013  23:07:00     -125.313       23.667      -17.499       23.102       33.427       20.479      533.715     1117.366      419.387        0.932        0.104      127.528       15.223        0.014      349.108       29.293      864.073
07/01/2013  23:08:00     -158.010      -25.977      -26.358       29.086       19.932       17.630      846.004      397.271      310.818        1.395        0.078      160.131       13.894        0.008      348.920       28.967      864.062
07/01/2013  23:09:00     -185.985      -14.313      -20.897       69.484       43.393       27.310     4828.016     1882.968      745.841        2.134        0.373      186.535       32.537        0.030      348.867       28.874      864.048
07/01/2013  23:10:00     -171.461       58.151      -27.718       59.510       41.953       35.159     3541.436     1760.024     1236.190        2.004        0.327      181.054       36.779        0.041      348.791       28.743      864.032
07/01/2013  23:11:00     -178.186       26.749      -22.096       40.016       67.768       36.776     1601.311     4592.481     1352.451        2.025        0.377      180.183       20.515        0.013      348.775       28.715      864.015
07/01/2013  23:12:00     -206.663       53.349      -35.478       48.312       46.491       30.468     2334.055     2161.417      928.276        2.612        0.271      213.438       23.109        0.012      348.830       28.809      864.010
07/01/2013  23:13:00     -222.349       53.397      -25.037       59.359       48.432       30.928     3523.465     2345.670      956.530        2.987        0.341      228.670       30.689        0.018      348.848       28.841      864.011
07/01/2013  23:14:00     -183.441       56.063      -27.277       38.710       42.597       27.555     1498.489     1814.464      759.271        2.080        0.204      191.816       19.603        0.010      348.884       28.905      864.023
07/01/2013  23:15:00     -125.164        8.877      -12.761       49.213       51.637       29.211     2421.951     2666.345      853.282        1.092        0.297      125.478       29.792        0.056      348.829       28.810      864.024
07/01/2013  23:16:00     -154.168       37.317      -27.527       40.941       41.617       31.266     1676.174     1731.940      977.533        1.515        0.219      158.620       23.178        0.021      348.932       28.988      864.024
07/01/2013  23:17:00     -128.937       47.408      -15.691       52.432       45.444       32.799     2749.070     2065.147     1075.793        1.250        0.295      137.376       33.074        0.058      348.954       29.025      864.032
07/01/2013  23:18:00     -112.053       80.493       -8.844       53.924       39.733       35.077     2907.805     1578.730     1230.426        1.241        0.286      137.967       27.573        0.040      349.137       29.343      864.042
07/01/2013  23:19:00      -94.006       68.233      -10.633       40.962       43.727       28.473     1677.878     1912.030      810.715        0.900        0.220      116.159       22.701        0.038      349.043       29.180      864.053
07/01/2013  23:20:00      -97.061      107.312      -22.966       37.003       48.492       27.105     1369.216     2351.462      734.699        1.296        0.223      144.695       24.174        0.028      349.129       29.330      864.060
07/01/2013  23:21:00      -90.432      118.196      -21.002       36.387       45.620       20.976     1324.011     2081.189      439.987        1.322        0.192      148.823       18.792        0.016      349.180       29.419      864.058
07/01/2013  23:22:00       -7.960      109.510       -4.414       42.707       47.998       24.227     1823.870     2303.840      586.941        0.839        0.236      109.799       19.707        0.032      349.132       29.336      864.068
07/01/2013  23:23:00       39.882       50.659        0.355       26.231       30.729       23.674      688.085      944.292      560.436        0.317        0.110       64.474       18.458        0.082      348.914       28.956      864.078
07/01/2013  23:24:00       15.877       44.966        2.211       32.848       28.945       22.286     1078.982      837.825      496.685        0.235        0.121       47.687       20.650        0.188      348.921       28.970      864.087
07/01/2013  23:25:00      -17.429      126.315      -11.608       23.771       30.505       13.004      565.084      930.534      169.100        0.903        0.083      127.512       12.065        0.009      349.236       29.515      864.099
07/01/2013  23:26:00      -27.065      122.337      -10.043       24.797       32.749       13.369      614.886     1072.523      178.726        0.883        0.093      125.296       15.653        0.016      349.236       29.516      864.112
07/01/2013  23:27:00       -7.209      159.390      -13.017       38.800       40.120       20.926     1505.431     1609.593      437.887        1.459        0.178      159.553       17.844        0.013      349.308       29.640      864.124
07/01/2013  23:28:00      -11.042      157.559      -17.326       42.204       42.446       30.779     1781.193     1801.657      947.355        1.489        0.227      157.946       26.119        0.027      349.215       29.478      864.137
07/01/2013  23:29:00       40.832       45.152        7.500       37.433       29.410       31.000     1401.253      864.946      961.004        0.349        0.161       60.877       23.912        0.154      348.994       29.097      864.158
07/01/2013  23:30:00       25.808       67.506       -5.188       24.304       32.770       24.152      590.684     1073.845      583.326        0.375        0.112       72.271       21.007        0.084      349.028       29.157      864.173
07/01/2013  23:31:00       19.736       74.704       -4.606       33.768       41.366       27.871     1140.291     1711.109      776.775        0.481        0.181       77.267       25.202        0.106      349.087       29.256      864.179
07/01/2013  23:32:00       18.126       89.874       -7.268       31.872       58.990       29.294     1015.850     3479.797      858.111        0.691        0.268       91.684       35.076        0.146      349.126       29.325      864.179
07/01/2013  23:33:00       29.957       96.032        0.505       35.372       56.135       42.100     1251.203     3151.089     1772.380        0.815        0.309      100.596       39.098        0.151      349.149       29.366      864.190
07/01/2013  23:34:00       16.233      103.816       -7.568       26.919       32.746       24.319      724.647     1072.276      591.436        0.674        0.119      105.077       17.845        0.029      349.141       29.352      864.197
07/01/2013  23:35:00        4.396       91.333       -5.163       30.519       38.064       22.286      931.412     1448.890      496.654        0.563        0.144       91.439       24.481        0.072      349.203       29.460      864.217
07/01/2013  23:36:00       27.819      131.058      -19.981       33.351       47.011       23.137     1112.303     2210.046      535.320        1.110        0.193      133.978       21.181        0.025      349.343       29.701      864.242
07/01/2013  23:37:00       -1.737      130.019      -14.784       33.616       27.712       19.388     1130.014      767.961      375.909        0.970        0.114      130.030       15.555        0.014      349.315       29.653      864.259
07/01/2013  23:38:00       11.396      108.318      -11.506       29.037       31.126       21.136      843.132      968.840      446.735        0.713        0.113      108.916       20.574        0.036      349.332       29.682      864.280
07/01/2013  23:39:00       38.992       45.190       15.122       27.591       26.898       29.174      761.259      723.500      851.139        0.306        0.117       59.686       16.746        0.079      349.235       29.513      864.299
07/01/2013  23:40:00        4.401       36.019       73.712       25.273       32.781       19.376      638.743     1074.564      375.438        0.442        0.104       36.287       16.241        0.200      348.967       29.050      864.325
07/01/2013  23:41:00        4.991       32.046       64.378       26.578       35.302       21.082      706.368     1246.239      444.459        0.380        0.120       32.432       13.617        0.176      348.992       29.095      864.342
07/01/2013  23:42:00        5.661       30.331       59.687       24.171       34.692       24.673      584.257     1203.543      608.749        0.346        0.120       30.854       24.744        0.643      349.028       29.155      864.354
07/01/2013  23:43:00      -10.629        6.292        7.370       15.992       18.700       18.308      255.749      349.708      335.182        0.057        0.047       12.352       14.329        1.346      349.032       29.164      864.362
07/01/2013  23:44:00       -0.150       -1.603       20.768        9.495       23.424       20.743       90.160      548.665      430.288        0.075        0.053        1.610       18.170      127.363      349.062       29.217      864.386
07/01/2013  23:45:00        6.247        2.202       35.505       16.320       35.173       17.943      266.346     1237.143      321.956        0.156        0.091        6.623       13.890        4.398      349.033       29.164      864.409
07/01/2013  23:46:00       30.373       22.908       14.931       45.334       33.406       24.767     2055.175     1115.972      613.412        0.273        0.189       38.044       22.394        0.346      349.125       29.323      864.427
07/01/2013  23:47:00        4.438        0.680       21.575       11.299        7.244       10.237      127.672       52.473      104.806        0.039        0.014        4.490        7.807        3.023      349.054       29.201      864.446
07/01/2013  23:48:00        2.979       -8.945       13.545       10.825       18.027       12.687      117.170      324.989      160.955        0.044        0.030        9.428        9.360        0.985      349.020       29.140      864.457
07/01/2013  23:49:00       10.190      -14.219       10.440       32.038       26.603       15.651     1026.448      707.737      244.941        0.120        0.099       17.493       10.588        0.366      349.077       29.239      864.467
07/01/2013  23:50:00      -32.740      -12.850      -10.143       21.266       26.045       13.243      452.227      678.350      175.369        0.132        0.065       35.172        9.011        0.066      348.909       28.950      864.467
07/01/2013  23:51:00      -73.788      -53.620        1.869       63.514       43.984       29.236     4034.011     1934.555      854.718        0.757        0.341       91.212       22.925        0.063      348.866       28.875      864.469
07/01/2013  23:52:00      -70.089      -59.971        8.464       52.324       45.943       29.205     2737.814     2110.757      852.912        0.714        0.285       92.244       30.896        0.112      348.874       28.889      864.469
07/01/2013  23:53:00     -181.877     -122.521       -9.627       67.350       66.690       38.172     4535.969     4447.510     1457.116        2.931        0.522      219.295       33.905        0.024      349.028       29.151      864.453
07/01/2013  23:54:00     -147.164     -103.420       -2.016       82.262       61.350       37.490     6766.958     3763.840     1405.491        2.214        0.597      179.869       35.389        0.039      348.942       29.005      864.444
07/01/2013  23:55:00     -171.439     -114.518       15.468      109.602       87.983       49.623    12012.667     7741.025     2462.489        3.248        1.111      206.170       49.359        0.057      348.932       28.984      864.428
07/01/2013  23:56:00     -238.862     -183.073       -4.039      124.196       84.327       54.797    15424.579     7110.961     3002.696        5.806        1.277      300.950       56.810        0.036      348.917       28.959      864.407
07/01/2013  23:57:00     -247.239     -147.754       18.271      139.886      100.775       72.331    19568.194    10155.689     5231.825        5.912        1.748      288.025       83.360        0.084      348.855       28.852      864.410
07/01/2013  23:58:00     -200.522     -134.418       11.037      128.967       93.966       57.391    16632.529     8829.607     3293.776        4.357        1.438      241.407       62.171        0.066      348.896       28.924      864.418
07/01/2013  23:59:00     -201.289     -145.605       10.054      113.750       61.893       49.675    12939.144     3830.744     2467.608        4.052        0.962      248.431       59.200        0.057      349.053       29.195      864.419
